<?xml version="1.0" encoding="UTF-8" standalone="no" ?>
<gpx xmlns="http://www.topografix.com/GPX/1/1" xmlns:xsi="http://www.w3.org/2001/XMLSchema-instance" xsi:schemaLocation="http://www.topografix.com/GPX/1/1 http://www.topografix.com/GPX/1/1/gpx.xsd" version="1.1" creator="VisuGPX - https://www.visugpx.com">
  <metadata>
    <name>27 04 2025 - Vallans - La gravette</name>
  </metadata>
  <trk>
    <name><![CDATA[Vallans - La gravette]]></name>
    <extensions>
      <line xmlns="http://www.topografix.com/GPX/gpx_style/0/2">
        <color>0000FF</color>
        <width>4</width>
      </line>
    </extensions>
    <trkseg>
      <trkpt lat="46.22448" lon="-0.53755">
        <ele>24.31</ele>
        <time>2025-04-13T18:35:50.000Z</time>
      </trkpt>
      <trkpt lat="46.2244" lon="-0.53758">
        <ele>24.28</ele>
        <time>2025-04-13T18:35:50.002Z</time>
      </trkpt>
      <trkpt lat="46.22416" lon="-0.53754">
        <ele>24.1</ele>
        <time>2025-04-13T18:35:50.010Z</time>
      </trkpt>
      <trkpt lat="46.22415" lon="-0.5376">
        <ele>24.06</ele>
        <time>2025-04-13T18:35:50.019Z</time>
      </trkpt>
      <trkpt lat="46.22414" lon="-0.53771">
        <ele>24.12</ele>
        <time>2025-04-13T18:35:50.029Z</time>
      </trkpt>
      <trkpt lat="46.22407" lon="-0.53775">
        <ele>24.17</ele>
        <time>2025-04-13T18:35:50.041Z</time>
      </trkpt>
      <trkpt lat="46.22386" lon="-0.53788">
        <ele>24.27</ele>
        <time>2025-04-13T18:35:50.059Z</time>
      </trkpt>
      <trkpt lat="46.22377" lon="-0.53799">
        <ele>24.38</ele>
        <time>2025-04-13T18:35:50.079Z</time>
      </trkpt>
      <trkpt lat="46.22365" lon="-0.5383">
        <ele>24.54</ele>
        <time>2025-04-13T18:35:50.105Z</time>
      </trkpt>
      <trkpt lat="46.22352" lon="-0.53862">
        <ele>24.72</ele>
        <time>2025-04-13T18:35:50.137Z</time>
      </trkpt>
      <trkpt lat="46.22339" lon="-0.53893">
        <ele>24.78</ele>
        <time>2025-04-13T18:35:50.175Z</time>
      </trkpt>
      <trkpt lat="46.2232" lon="-0.53895">
        <ele>24.95</ele>
        <time>2025-04-13T18:35:50.218Z</time>
      </trkpt>
      <trkpt lat="46.22319" lon="-0.53895">
        <ele>25.06</ele>
        <time>2025-04-13T18:35:50.261Z</time>
      </trkpt>
      <trkpt lat="46.22309" lon="-0.53902">
        <ele>25.18</ele>
        <time>2025-04-13T18:35:50.307Z</time>
      </trkpt>
      <trkpt lat="46.22288" lon="-0.53931">
        <ele>25.28</ele>
        <time>2025-04-13T18:35:50.359Z</time>
      </trkpt>
      <trkpt lat="46.22268" lon="-0.5396">
        <ele>25.31</ele>
        <time>2025-04-13T18:35:50.418Z</time>
      </trkpt>
      <trkpt lat="46.2226" lon="-0.53945">
        <ele>25.39</ele>
        <time>2025-04-13T18:35:50.480Z</time>
      </trkpt>
      <trkpt lat="46.22255" lon="-0.53934">
        <ele>25.41</ele>
        <time>2025-04-13T18:35:50.544Z</time>
      </trkpt>
      <trkpt lat="46.22252" lon="-0.53904">
        <ele>25.35</ele>
        <time>2025-04-13T18:35:50.613Z</time>
      </trkpt>
      <trkpt lat="46.22248" lon="-0.53874">
        <ele>25.29</ele>
        <time>2025-04-13T18:35:50.687Z</time>
      </trkpt>
      <trkpt lat="46.22244" lon="-0.53844">
        <ele>25.24</ele>
        <time>2025-04-13T18:35:50.766Z</time>
      </trkpt>
      <trkpt lat="46.22237" lon="-0.53803">
        <ele>25.24</ele>
        <time>2025-04-13T18:35:50.852Z</time>
      </trkpt>
      <trkpt lat="46.2223" lon="-0.53762">
        <ele>25.38</ele>
        <time>2025-04-13T18:35:50.945Z</time>
      </trkpt>
      <trkpt lat="46.22223" lon="-0.53721">
        <ele>25.34</ele>
        <time>2025-04-13T18:35:51.045Z</time>
      </trkpt>
      <trkpt lat="46.22214" lon="-0.53685">
        <ele>25.23</ele>
        <time>2025-04-13T18:35:51.151Z</time>
      </trkpt>
      <trkpt lat="46.22204" lon="-0.53655">
        <ele>25.26</ele>
        <time>2025-04-13T18:35:51.263Z</time>
      </trkpt>
      <trkpt lat="46.22184" lon="-0.53627">
        <ele>25.35</ele>
        <time>2025-04-13T18:35:51.381Z</time>
      </trkpt>
      <trkpt lat="46.2217" lon="-0.53599">
        <ele>25.45</ele>
        <time>2025-04-13T18:35:51.505Z</time>
      </trkpt>
      <trkpt lat="46.22155" lon="-0.5357">
        <ele>25.54</ele>
        <time>2025-04-13T18:35:51.635Z</time>
      </trkpt>
      <trkpt lat="46.22141" lon="-0.53542">
        <ele>25.59</ele>
        <time>2025-04-13T18:35:51.770Z</time>
      </trkpt>
      <trkpt lat="46.22126" lon="-0.53513">
        <ele>25.65</ele>
        <time>2025-04-13T18:35:51.911Z</time>
      </trkpt>
      <trkpt lat="46.22101" lon="-0.53496">
        <ele>25.75</ele>
        <time>2025-04-13T18:35:52.059Z</time>
      </trkpt>
      <trkpt lat="46.2208" lon="-0.53496">
        <ele>25.8</ele>
        <time>2025-04-13T18:35:52.211Z</time>
      </trkpt>
      <trkpt lat="46.2206" lon="-0.53496">
        <ele>25.97</ele>
        <time>2025-04-13T18:35:52.368Z</time>
      </trkpt>
      <trkpt lat="46.22044" lon="-0.53504">
        <ele>26.16</ele>
        <time>2025-04-13T18:35:52.529Z</time>
      </trkpt>
      <trkpt lat="46.22028" lon="-0.53511">
        <ele>26.35</ele>
        <time>2025-04-13T18:35:52.694Z</time>
      </trkpt>
      <trkpt lat="46.22002" lon="-0.53526">
        <ele>26.58</ele>
        <time>2025-04-13T18:35:52.866Z</time>
      </trkpt>
      <trkpt lat="46.21976" lon="-0.53541">
        <ele>26.9</ele>
        <time>2025-04-13T18:35:53.044Z</time>
      </trkpt>
      <trkpt lat="46.21977" lon="-0.53561">
        <ele>27.25</ele>
        <time>2025-04-13T18:35:53.226Z</time>
      </trkpt>
      <trkpt lat="46.2198" lon="-0.53603">
        <ele>27.63</ele>
        <time>2025-04-13T18:35:53.414Z</time>
      </trkpt>
      <trkpt lat="46.21983" lon="-0.53644">
        <ele>28.1</ele>
        <time>2025-04-13T18:35:53.609Z</time>
      </trkpt>
      <trkpt lat="46.21988" lon="-0.53682">
        <ele>28.54</ele>
        <time>2025-04-13T18:35:53.810Z</time>
      </trkpt>
      <trkpt lat="46.21994" lon="-0.53719">
        <ele>29.01</ele>
        <time>2025-04-13T18:35:54.018Z</time>
      </trkpt>
      <trkpt lat="46.22" lon="-0.53756">
        <ele>29.49</ele>
        <time>2025-04-13T18:35:54.232Z</time>
      </trkpt>
      <trkpt lat="46.21993" lon="-0.5379">
        <ele>29.96</ele>
        <time>2025-04-13T18:35:54.452Z</time>
      </trkpt>
      <trkpt lat="46.21968" lon="-0.53813">
        <ele>30.63</ele>
        <time>2025-04-13T18:35:54.679Z</time>
      </trkpt>
      <trkpt lat="46.21943" lon="-0.53837">
        <ele>31.33</ele>
        <time>2025-04-13T18:35:54.913Z</time>
      </trkpt>
      <trkpt lat="46.21917" lon="-0.5386">
        <ele>32.08</ele>
        <time>2025-04-13T18:35:55.154Z</time>
      </trkpt>
      <trkpt lat="46.21892" lon="-0.53883">
        <ele>32.9</ele>
        <time>2025-04-13T18:35:55.402Z</time>
      </trkpt>
      <trkpt lat="46.21867" lon="-0.53906">
        <ele>33.78</ele>
        <time>2025-04-13T18:35:55.657Z</time>
      </trkpt>
      <trkpt lat="46.21846" lon="-0.53931">
        <ele>34.63</ele>
        <time>2025-04-13T18:35:55.918Z</time>
      </trkpt>
      <trkpt lat="46.21826" lon="-0.53955">
        <ele>35.46</ele>
        <time>2025-04-13T18:35:56.186Z</time>
      </trkpt>
      <trkpt lat="46.21806" lon="-0.53983">
        <ele>36.34</ele>
        <time>2025-04-13T18:35:56.460Z</time>
      </trkpt>
      <trkpt lat="46.21786" lon="-0.5401">
        <ele>37.18</ele>
        <time>2025-04-13T18:35:56.740Z</time>
      </trkpt>
      <trkpt lat="46.21766" lon="-0.54038">
        <ele>37.97</ele>
        <time>2025-04-13T18:35:57.027Z</time>
      </trkpt>
      <trkpt lat="46.21747" lon="-0.54065">
        <ele>38.69</ele>
        <time>2025-04-13T18:35:57.320Z</time>
      </trkpt>
      <trkpt lat="46.2174" lon="-0.54082">
        <ele>39.37</ele>
        <time>2025-04-13T18:35:57.617Z</time>
      </trkpt>
      <trkpt lat="46.2173" lon="-0.54121">
        <ele>40.05</ele>
        <time>2025-04-13T18:35:57.920Z</time>
      </trkpt>
      <trkpt lat="46.21721" lon="-0.54159">
        <ele>40.68</ele>
        <time>2025-04-13T18:35:58.230Z</time>
      </trkpt>
      <trkpt lat="46.21707" lon="-0.54183">
        <ele>41.33</ele>
        <time>2025-04-13T18:35:58.545Z</time>
      </trkpt>
      <trkpt lat="46.21694" lon="-0.54206">
        <ele>41.93</ele>
        <time>2025-04-13T18:35:58.865Z</time>
      </trkpt>
      <trkpt lat="46.2168" lon="-0.5423">
        <ele>42.43</ele>
        <time>2025-04-13T18:35:59.190Z</time>
      </trkpt>
      <trkpt lat="46.21682" lon="-0.54206">
        <ele>42.91</ele>
        <time>2025-04-13T18:35:59.519Z</time>
      </trkpt>
      <trkpt lat="46.21679" lon="-0.54184">
        <ele>43.34</ele>
        <time>2025-04-13T18:35:59.852Z</time>
      </trkpt>
      <trkpt lat="46.21674" lon="-0.54148">
        <ele>43.73</ele>
        <time>2025-04-13T18:36:00.191Z</time>
      </trkpt>
      <trkpt lat="46.21653" lon="-0.54159">
        <ele>44.11</ele>
        <time>2025-04-13T18:36:00.535Z</time>
      </trkpt>
      <trkpt lat="46.21626" lon="-0.54173">
        <ele>44.48</ele>
        <time>2025-04-13T18:36:00.886Z</time>
      </trkpt>
      <trkpt lat="46.21599" lon="-0.54187">
        <ele>44.85</ele>
        <time>2025-04-13T18:36:01.243Z</time>
      </trkpt>
      <trkpt lat="46.21574" lon="-0.54205">
        <ele>45.06</ele>
        <time>2025-04-13T18:36:01.607Z</time>
      </trkpt>
      <trkpt lat="46.2155" lon="-0.54223">
        <ele>45.13</ele>
        <time>2025-04-13T18:36:01.977Z</time>
      </trkpt>
      <trkpt lat="46.21526" lon="-0.54241">
        <ele>45.25</ele>
        <time>2025-04-13T18:36:02.354Z</time>
      </trkpt>
      <trkpt lat="46.21513" lon="-0.54258">
        <ele>45.36</ele>
        <time>2025-04-13T18:36:02.735Z</time>
      </trkpt>
      <trkpt lat="46.215" lon="-0.54275">
        <ele>45.43</ele>
        <time>2025-04-13T18:36:03.120Z</time>
      </trkpt>
      <trkpt lat="46.21474" lon="-0.54293">
        <ele>45.49</ele>
        <time>2025-04-13T18:36:03.512Z</time>
      </trkpt>
      <trkpt lat="46.21448" lon="-0.54312">
        <ele>45.49</ele>
        <time>2025-04-13T18:36:03.910Z</time>
      </trkpt>
      <trkpt lat="46.21423" lon="-0.5433">
        <ele>45.55</ele>
        <time>2025-04-13T18:36:04.315Z</time>
      </trkpt>
      <trkpt lat="46.21397" lon="-0.54348">
        <ele>45.62</ele>
        <time>2025-04-13T18:36:04.727Z</time>
      </trkpt>
      <trkpt lat="46.21371" lon="-0.54366">
        <ele>45.61</ele>
        <time>2025-04-13T18:36:05.146Z</time>
      </trkpt>
      <trkpt lat="46.21345" lon="-0.54385">
        <ele>45.57</ele>
        <time>2025-04-13T18:36:05.571Z</time>
      </trkpt>
      <trkpt lat="46.21342" lon="-0.54363">
        <ele>45.61</ele>
        <time>2025-04-13T18:36:06.000Z</time>
      </trkpt>
      <trkpt lat="46.21336" lon="-0.54327">
        <ele>45.67</ele>
        <time>2025-04-13T18:36:06.435Z</time>
      </trkpt>
      <trkpt lat="46.2133" lon="-0.54292">
        <ele>45.58</ele>
        <time>2025-04-13T18:36:06.876Z</time>
      </trkpt>
      <trkpt lat="46.21326" lon="-0.54255">
        <ele>45.47</ele>
        <time>2025-04-13T18:36:07.323Z</time>
      </trkpt>
      <trkpt lat="46.21321" lon="-0.54217">
        <ele>45.48</ele>
        <time>2025-04-13T18:36:07.776Z</time>
      </trkpt>
      <trkpt lat="46.21316" lon="-0.54179">
        <ele>45.42</ele>
        <time>2025-04-13T18:36:08.236Z</time>
      </trkpt>
      <trkpt lat="46.21312" lon="-0.54142">
        <ele>45.36</ele>
        <time>2025-04-13T18:36:08.702Z</time>
      </trkpt>
      <trkpt lat="46.21307" lon="-0.54104">
        <ele>45.28</ele>
        <time>2025-04-13T18:36:09.174Z</time>
      </trkpt>
      <trkpt lat="46.21302" lon="-0.54067">
        <ele>45.25</ele>
        <time>2025-04-13T18:36:09.652Z</time>
      </trkpt>
      <trkpt lat="46.21296" lon="-0.54024">
        <ele>45.19</ele>
        <time>2025-04-13T18:36:10.138Z</time>
      </trkpt>
      <trkpt lat="46.2129" lon="-0.53981">
        <ele>45.08</ele>
        <time>2025-04-13T18:36:10.631Z</time>
      </trkpt>
      <trkpt lat="46.21283" lon="-0.53938">
        <ele>45.07</ele>
        <time>2025-04-13T18:36:11.131Z</time>
      </trkpt>
      <trkpt lat="46.21277" lon="-0.53895">
        <ele>45.11</ele>
        <time>2025-04-13T18:36:11.638Z</time>
      </trkpt>
      <trkpt lat="46.2127" lon="-0.53852">
        <ele>45.04</ele>
        <time>2025-04-13T18:36:12.152Z</time>
      </trkpt>
      <trkpt lat="46.21262" lon="-0.53814">
        <ele>44.97</ele>
        <time>2025-04-13T18:36:12.673Z</time>
      </trkpt>
      <trkpt lat="46.21236" lon="-0.53788">
        <ele>45.01</ele>
        <time>2025-04-13T18:36:13.201Z</time>
      </trkpt>
      <trkpt lat="46.21214" lon="-0.53775">
        <ele>45.13</ele>
        <time>2025-04-13T18:36:13.735Z</time>
      </trkpt>
      <trkpt lat="46.21187" lon="-0.53769">
        <ele>45.22</ele>
        <time>2025-04-13T18:36:14.275Z</time>
      </trkpt>
      <trkpt lat="46.21167" lon="-0.53777">
        <ele>45.38</ele>
        <time>2025-04-13T18:36:14.820Z</time>
      </trkpt>
      <trkpt lat="46.2115" lon="-0.53777">
        <ele>45.53</ele>
        <time>2025-04-13T18:36:15.369Z</time>
      </trkpt>
      <trkpt lat="46.21148" lon="-0.53778">
        <ele>45.69</ele>
        <time>2025-04-13T18:36:15.919Z</time>
      </trkpt>
      <trkpt lat="46.21124" lon="-0.53794">
        <ele>45.85</ele>
        <time>2025-04-13T18:36:16.475Z</time>
      </trkpt>
      <trkpt lat="46.21103" lon="-0.53816">
        <ele>46.05</ele>
        <time>2025-04-13T18:36:17.037Z</time>
      </trkpt>
      <trkpt lat="46.21079" lon="-0.5383">
        <ele>46.38</ele>
        <time>2025-04-13T18:36:17.605Z</time>
      </trkpt>
      <trkpt lat="46.21054" lon="-0.53844">
        <ele>46.6</ele>
        <time>2025-04-13T18:36:18.179Z</time>
      </trkpt>
      <trkpt lat="46.2103" lon="-0.53859">
        <ele>46.74</ele>
        <time>2025-04-13T18:36:18.760Z</time>
      </trkpt>
      <trkpt lat="46.21023" lon="-0.5383">
        <ele>46.9</ele>
        <time>2025-04-13T18:36:19.346Z</time>
      </trkpt>
      <trkpt lat="46.21012" lon="-0.53788">
        <ele>47.07</ele>
        <time>2025-04-13T18:36:19.939Z</time>
      </trkpt>
      <trkpt lat="46.21001" lon="-0.53745">
        <ele>47.23</ele>
        <time>2025-04-13T18:36:20.539Z</time>
      </trkpt>
      <trkpt lat="46.2099" lon="-0.53703">
        <ele>47.43</ele>
        <time>2025-04-13T18:36:21.147Z</time>
      </trkpt>
      <trkpt lat="46.20979" lon="-0.53661">
        <ele>47.69</ele>
        <time>2025-04-13T18:36:21.762Z</time>
      </trkpt>
      <trkpt lat="46.20968" lon="-0.53619">
        <ele>47.81</ele>
        <time>2025-04-13T18:36:22.384Z</time>
      </trkpt>
      <trkpt lat="46.20957" lon="-0.53576">
        <ele>47.85</ele>
        <time>2025-04-13T18:36:23.014Z</time>
      </trkpt>
      <trkpt lat="46.20947" lon="-0.53534">
        <ele>47.91</ele>
        <time>2025-04-13T18:36:23.651Z</time>
      </trkpt>
      <trkpt lat="46.20936" lon="-0.53492">
        <ele>47.95</ele>
        <time>2025-04-13T18:36:24.295Z</time>
      </trkpt>
      <trkpt lat="46.20925" lon="-0.53449">
        <ele>48.01</ele>
        <time>2025-04-13T18:36:24.947Z</time>
      </trkpt>
      <trkpt lat="46.20914" lon="-0.53407">
        <ele>48.03</ele>
        <time>2025-04-13T18:36:25.606Z</time>
      </trkpt>
      <trkpt lat="46.20903" lon="-0.53365">
        <ele>48.02</ele>
        <time>2025-04-13T18:36:26.273Z</time>
      </trkpt>
      <trkpt lat="46.20892" lon="-0.53323">
        <ele>47.98</ele>
        <time>2025-04-13T18:36:26.947Z</time>
      </trkpt>
      <trkpt lat="46.20882" lon="-0.53282">
        <ele>47.93</ele>
        <time>2025-04-13T18:36:27.628Z</time>
      </trkpt>
      <trkpt lat="46.20873" lon="-0.53245">
        <ele>47.92</ele>
        <time>2025-04-13T18:36:28.315Z</time>
      </trkpt>
      <trkpt lat="46.20865" lon="-0.53208">
        <ele>47.9</ele>
        <time>2025-04-13T18:36:29.009Z</time>
      </trkpt>
      <trkpt lat="46.20856" lon="-0.53172">
        <ele>47.88</ele>
        <time>2025-04-13T18:36:29.709Z</time>
      </trkpt>
      <trkpt lat="46.20848" lon="-0.53136">
        <ele>47.88</ele>
        <time>2025-04-13T18:36:30.415Z</time>
      </trkpt>
      <trkpt lat="46.20826" lon="-0.5314">
        <ele>47.87</ele>
        <time>2025-04-13T18:36:31.126Z</time>
      </trkpt>
      <trkpt lat="46.20798" lon="-0.53145">
        <ele>48</ele>
        <time>2025-04-13T18:36:31.844Z</time>
      </trkpt>
      <trkpt lat="46.20769" lon="-0.53151">
        <ele>48.11</ele>
        <time>2025-04-13T18:36:32.569Z</time>
      </trkpt>
      <trkpt lat="46.20741" lon="-0.53157">
        <ele>48.26</ele>
        <time>2025-04-13T18:36:33.301Z</time>
      </trkpt>
      <trkpt lat="46.20713" lon="-0.53162">
        <ele>48.4</ele>
        <time>2025-04-13T18:36:34.039Z</time>
      </trkpt>
      <trkpt lat="46.20684" lon="-0.53168">
        <ele>48.57</ele>
        <time>2025-04-13T18:36:34.784Z</time>
      </trkpt>
      <trkpt lat="46.20658" lon="-0.5317">
        <ele>48.82</ele>
        <time>2025-04-13T18:36:35.535Z</time>
      </trkpt>
      <trkpt lat="46.20632" lon="-0.53173">
        <ele>49.1</ele>
        <time>2025-04-13T18:36:36.292Z</time>
      </trkpt>
      <trkpt lat="46.20606" lon="-0.53176">
        <ele>49.33</ele>
        <time>2025-04-13T18:36:37.055Z</time>
      </trkpt>
      <trkpt lat="46.2058" lon="-0.53178">
        <ele>49.56</ele>
        <time>2025-04-13T18:36:37.825Z</time>
      </trkpt>
      <trkpt lat="46.20554" lon="-0.53181">
        <ele>49.8</ele>
        <time>2025-04-13T18:36:38.601Z</time>
      </trkpt>
      <trkpt lat="46.20525" lon="-0.53181">
        <ele>50.09</ele>
        <time>2025-04-13T18:36:39.384Z</time>
      </trkpt>
      <trkpt lat="46.20496" lon="-0.53182">
        <ele>50.45</ele>
        <time>2025-04-13T18:36:40.173Z</time>
      </trkpt>
      <trkpt lat="46.20468" lon="-0.53183">
        <ele>50.83</ele>
        <time>2025-04-13T18:36:40.969Z</time>
      </trkpt>
      <trkpt lat="46.20461" lon="-0.53187">
        <ele>51.17</ele>
        <time>2025-04-13T18:36:41.767Z</time>
      </trkpt>
      <trkpt lat="46.20438" lon="-0.53183">
        <ele>51.53</ele>
        <time>2025-04-13T18:36:42.570Z</time>
      </trkpt>
      <trkpt lat="46.20416" lon="-0.53179">
        <ele>51.89</ele>
        <time>2025-04-13T18:36:43.379Z</time>
      </trkpt>
      <trkpt lat="46.20393" lon="-0.53174">
        <ele>52.23</ele>
        <time>2025-04-13T18:36:44.193Z</time>
      </trkpt>
      <trkpt lat="46.20371" lon="-0.53176">
        <ele>52.54</ele>
        <time>2025-04-13T18:36:45.012Z</time>
      </trkpt>
      <trkpt lat="46.2035" lon="-0.53179">
        <ele>52.86</ele>
        <time>2025-04-13T18:36:45.836Z</time>
      </trkpt>
      <trkpt lat="46.2032" lon="-0.53176">
        <ele>53.18</ele>
        <time>2025-04-13T18:36:46.667Z</time>
      </trkpt>
      <trkpt lat="46.20295" lon="-0.53168">
        <ele>53.5</ele>
        <time>2025-04-13T18:36:47.504Z</time>
      </trkpt>
      <trkpt lat="46.2027" lon="-0.5316">
        <ele>53.75</ele>
        <time>2025-04-13T18:36:48.347Z</time>
      </trkpt>
      <trkpt lat="46.20246" lon="-0.53152">
        <ele>53.99</ele>
        <time>2025-04-13T18:36:49.196Z</time>
      </trkpt>
      <trkpt lat="46.20221" lon="-0.53144">
        <ele>54.22</ele>
        <time>2025-04-13T18:36:50.051Z</time>
      </trkpt>
      <trkpt lat="46.20198" lon="-0.53142">
        <ele>54.41</ele>
        <time>2025-04-13T18:36:50.911Z</time>
      </trkpt>
      <trkpt lat="46.20176" lon="-0.5314">
        <ele>54.57</ele>
        <time>2025-04-13T18:36:51.777Z</time>
      </trkpt>
      <trkpt lat="46.20148" lon="-0.53145">
        <ele>54.67</ele>
        <time>2025-04-13T18:36:52.649Z</time>
      </trkpt>
      <trkpt lat="46.2012" lon="-0.53151">
        <ele>54.74</ele>
        <time>2025-04-13T18:36:53.528Z</time>
      </trkpt>
      <trkpt lat="46.20097" lon="-0.5316">
        <ele>54.89</ele>
        <time>2025-04-13T18:36:54.413Z</time>
      </trkpt>
      <trkpt lat="46.20074" lon="-0.53169">
        <ele>55.06</ele>
        <time>2025-04-13T18:36:55.303Z</time>
      </trkpt>
      <trkpt lat="46.20051" lon="-0.53179">
        <ele>55.1</ele>
        <time>2025-04-13T18:36:56.199Z</time>
      </trkpt>
      <trkpt lat="46.20066" lon="-0.53139">
        <ele>55.01</ele>
        <time>2025-04-13T18:36:57.102Z</time>
      </trkpt>
      <trkpt lat="46.20081" lon="-0.53099">
        <ele>54.65</ele>
        <time>2025-04-13T18:36:58.013Z</time>
      </trkpt>
      <trkpt lat="46.2009" lon="-0.53076">
        <ele>54.32</ele>
        <time>2025-04-13T18:36:58.928Z</time>
      </trkpt>
      <trkpt lat="46.20104" lon="-0.53043">
        <ele>53.98</ele>
        <time>2025-04-13T18:36:59.849Z</time>
      </trkpt>
      <trkpt lat="46.20118" lon="-0.53011">
        <ele>53.72</ele>
        <time>2025-04-13T18:37:00.776Z</time>
      </trkpt>
      <trkpt lat="46.20132" lon="-0.52979">
        <ele>53.37</ele>
        <time>2025-04-13T18:37:01.709Z</time>
      </trkpt>
      <trkpt lat="46.20146" lon="-0.52947">
        <ele>52.97</ele>
        <time>2025-04-13T18:37:02.649Z</time>
      </trkpt>
      <trkpt lat="46.20163" lon="-0.52914">
        <ele>52.54</ele>
        <time>2025-04-13T18:37:03.595Z</time>
      </trkpt>
      <trkpt lat="46.2018" lon="-0.5288">
        <ele>52.11</ele>
        <time>2025-04-13T18:37:04.548Z</time>
      </trkpt>
      <trkpt lat="46.20194" lon="-0.52858">
        <ele>51.69</ele>
        <time>2025-04-13T18:37:05.506Z</time>
      </trkpt>
      <trkpt lat="46.20208" lon="-0.52835">
        <ele>51.21</ele>
        <time>2025-04-13T18:37:06.469Z</time>
      </trkpt>
      <trkpt lat="46.20211" lon="-0.52809">
        <ele>50.74</ele>
        <time>2025-04-13T18:37:07.436Z</time>
      </trkpt>
      <trkpt lat="46.20215" lon="-0.52784">
        <ele>50.27</ele>
        <time>2025-04-13T18:37:08.408Z</time>
      </trkpt>
      <trkpt lat="46.2021" lon="-0.5275">
        <ele>49.79</ele>
        <time>2025-04-13T18:37:09.385Z</time>
      </trkpt>
      <trkpt lat="46.20206" lon="-0.52716">
        <ele>49.27</ele>
        <time>2025-04-13T18:37:10.368Z</time>
      </trkpt>
      <trkpt lat="46.20202" lon="-0.52683">
        <ele>48.8</ele>
        <time>2025-04-13T18:37:11.356Z</time>
      </trkpt>
      <trkpt lat="46.20208" lon="-0.52672">
        <ele>48.3</ele>
        <time>2025-04-13T18:37:12.347Z</time>
      </trkpt>
      <trkpt lat="46.2023" lon="-0.52661">
        <ele>47.77</ele>
        <time>2025-04-13T18:37:13.343Z</time>
      </trkpt>
      <trkpt lat="46.2025" lon="-0.52638">
        <ele>47.19</ele>
        <time>2025-04-13T18:37:14.345Z</time>
      </trkpt>
      <trkpt lat="46.2027" lon="-0.52615">
        <ele>46.65</ele>
        <time>2025-04-13T18:37:15.353Z</time>
      </trkpt>
      <trkpt lat="46.20291" lon="-0.52592">
        <ele>46.27</ele>
        <time>2025-04-13T18:37:16.367Z</time>
      </trkpt>
      <trkpt lat="46.20311" lon="-0.52569">
        <ele>45.87</ele>
        <time>2025-04-13T18:37:17.387Z</time>
      </trkpt>
      <trkpt lat="46.20331" lon="-0.52539">
        <ele>45.49</ele>
        <time>2025-04-13T18:37:18.414Z</time>
      </trkpt>
      <trkpt lat="46.20352" lon="-0.52509">
        <ele>45.08</ele>
        <time>2025-04-13T18:37:19.448Z</time>
      </trkpt>
      <trkpt lat="46.20362" lon="-0.52485">
        <ele>44.7</ele>
        <time>2025-04-13T18:37:20.487Z</time>
      </trkpt>
      <trkpt lat="46.20371" lon="-0.52462">
        <ele>44.36</ele>
        <time>2025-04-13T18:37:21.530Z</time>
      </trkpt>
      <trkpt lat="46.20375" lon="-0.52438">
        <ele>44.07</ele>
        <time>2025-04-13T18:37:22.577Z</time>
      </trkpt>
      <trkpt lat="46.2038" lon="-0.52415">
        <ele>43.79</ele>
        <time>2025-04-13T18:37:23.628Z</time>
      </trkpt>
      <trkpt lat="46.2038" lon="-0.52375">
        <ele>43.54</ele>
        <time>2025-04-13T18:37:24.686Z</time>
      </trkpt>
      <trkpt lat="46.2038" lon="-0.52352">
        <ele>43.38</ele>
        <time>2025-04-13T18:37:25.747Z</time>
      </trkpt>
      <trkpt lat="46.20386" lon="-0.52327">
        <ele>43.24</ele>
        <time>2025-04-13T18:37:26.813Z</time>
      </trkpt>
      <trkpt lat="46.20401" lon="-0.52303">
        <ele>43.08</ele>
        <time>2025-04-13T18:37:27.884Z</time>
      </trkpt>
      <trkpt lat="46.20416" lon="-0.5228">
        <ele>42.97</ele>
        <time>2025-04-13T18:37:28.960Z</time>
      </trkpt>
      <trkpt lat="46.2041" lon="-0.52256">
        <ele>42.88</ele>
        <time>2025-04-13T18:37:30.040Z</time>
      </trkpt>
      <trkpt lat="46.20403" lon="-0.52233">
        <ele>42.79</ele>
        <time>2025-04-13T18:37:31.124Z</time>
      </trkpt>
      <trkpt lat="46.20403" lon="-0.52233">
        <ele>42.72</ele>
        <time>2025-04-13T18:37:32.208Z</time>
      </trkpt>
      <trkpt lat="46.20391" lon="-0.52191">
        <ele>42.6</ele>
        <time>2025-04-13T18:37:33.300Z</time>
      </trkpt>
      <trkpt lat="46.20379" lon="-0.52149">
        <ele>42.52</ele>
        <time>2025-04-13T18:37:34.399Z</time>
      </trkpt>
      <trkpt lat="46.20368" lon="-0.52107">
        <ele>42.52</ele>
        <time>2025-04-13T18:37:35.506Z</time>
      </trkpt>
      <trkpt lat="46.20356" lon="-0.52066">
        <ele>42.6</ele>
        <time>2025-04-13T18:37:36.620Z</time>
      </trkpt>
      <trkpt lat="46.20344" lon="-0.52024">
        <ele>42.63</ele>
        <time>2025-04-13T18:37:37.741Z</time>
      </trkpt>
      <trkpt lat="46.20332" lon="-0.51982">
        <ele>42.66</ele>
        <time>2025-04-13T18:37:38.870Z</time>
      </trkpt>
      <trkpt lat="46.2032" lon="-0.5194">
        <ele>42.72</ele>
        <time>2025-04-13T18:37:40.006Z</time>
      </trkpt>
      <trkpt lat="46.20309" lon="-0.51898">
        <ele>42.84</ele>
        <time>2025-04-13T18:37:41.149Z</time>
      </trkpt>
      <trkpt lat="46.20297" lon="-0.51857">
        <ele>43.11</ele>
        <time>2025-04-13T18:37:42.300Z</time>
      </trkpt>
      <trkpt lat="46.20285" lon="-0.51815">
        <ele>43.47</ele>
        <time>2025-04-13T18:37:43.458Z</time>
      </trkpt>
      <trkpt lat="46.20273" lon="-0.51773">
        <ele>43.94</ele>
        <time>2025-04-13T18:37:44.624Z</time>
      </trkpt>
      <trkpt lat="46.20262" lon="-0.51732">
        <ele>44.46</ele>
        <time>2025-04-13T18:37:45.797Z</time>
      </trkpt>
      <trkpt lat="46.20257" lon="-0.51734">
        <ele>44.86</ele>
        <time>2025-04-13T18:37:46.971Z</time>
      </trkpt>
      <trkpt lat="46.20245" lon="-0.51707">
        <ele>45.38</ele>
        <time>2025-04-13T18:37:48.150Z</time>
      </trkpt>
      <trkpt lat="46.20253" lon="-0.51694">
        <ele>45.87</ele>
        <time>2025-04-13T18:37:49.332Z</time>
      </trkpt>
      <trkpt lat="46.20263" lon="-0.51686">
        <ele>46.36</ele>
        <time>2025-04-13T18:37:50.517Z</time>
      </trkpt>
      <trkpt lat="46.20281" lon="-0.5167">
        <ele>46.89</ele>
        <time>2025-04-13T18:37:51.707Z</time>
      </trkpt>
      <trkpt lat="46.20298" lon="-0.51669">
        <ele>47.41</ele>
        <time>2025-04-13T18:37:52.901Z</time>
      </trkpt>
      <trkpt lat="46.20315" lon="-0.51668">
        <ele>47.92</ele>
        <time>2025-04-13T18:37:54.099Z</time>
      </trkpt>
      <trkpt lat="46.2033" lon="-0.51677">
        <ele>48.38</ele>
        <time>2025-04-13T18:37:55.301Z</time>
      </trkpt>
      <trkpt lat="46.20358" lon="-0.51662">
        <ele>48.89</ele>
        <time>2025-04-13T18:37:56.510Z</time>
      </trkpt>
      <trkpt lat="46.20372" lon="-0.51645">
        <ele>49.37</ele>
        <time>2025-04-13T18:37:57.723Z</time>
      </trkpt>
      <trkpt lat="46.20386" lon="-0.51629">
        <ele>49.8</ele>
        <time>2025-04-13T18:37:58.940Z</time>
      </trkpt>
      <trkpt lat="46.20399" lon="-0.51632">
        <ele>50.14</ele>
        <time>2025-04-13T18:38:00.160Z</time>
      </trkpt>
      <trkpt lat="46.20408" lon="-0.5164">
        <ele>50.47</ele>
        <time>2025-04-13T18:38:01.383Z</time>
      </trkpt>
      <trkpt lat="46.20416" lon="-0.51638">
        <ele>50.79</ele>
        <time>2025-04-13T18:38:02.608Z</time>
      </trkpt>
      <trkpt lat="46.20416" lon="-0.51625">
        <ele>51.18</ele>
        <time>2025-04-13T18:38:03.835Z</time>
      </trkpt>
      <trkpt lat="46.20399" lon="-0.51599">
        <ele>51.64</ele>
        <time>2025-04-13T18:38:05.068Z</time>
      </trkpt>
      <trkpt lat="46.20393" lon="-0.51576">
        <ele>52.01</ele>
        <time>2025-04-13T18:38:06.305Z</time>
      </trkpt>
      <trkpt lat="46.20375" lon="-0.51548">
        <ele>52.4</ele>
        <time>2025-04-13T18:38:07.548Z</time>
      </trkpt>
      <trkpt lat="46.20377" lon="-0.51522">
        <ele>52.63</ele>
        <time>2025-04-13T18:38:08.795Z</time>
      </trkpt>
      <trkpt lat="46.20378" lon="-0.51496">
        <ele>52.81</ele>
        <time>2025-04-13T18:38:10.046Z</time>
      </trkpt>
      <trkpt lat="46.20384" lon="-0.51462">
        <ele>53</ele>
        <time>2025-04-13T18:38:11.303Z</time>
      </trkpt>
      <trkpt lat="46.2039" lon="-0.51428">
        <ele>53.21</ele>
        <time>2025-04-13T18:38:12.566Z</time>
      </trkpt>
      <trkpt lat="46.2039" lon="-0.51419">
        <ele>53.37</ele>
        <time>2025-04-13T18:38:13.830Z</time>
      </trkpt>
      <trkpt lat="46.20384" lon="-0.51415">
        <ele>53.5</ele>
        <time>2025-04-13T18:38:15.096Z</time>
      </trkpt>
      <trkpt lat="46.20373" lon="-0.51419">
        <ele>53.59</ele>
        <time>2025-04-13T18:38:16.365Z</time>
      </trkpt>
      <trkpt lat="46.20363" lon="-0.51415">
        <ele>53.68</ele>
        <time>2025-04-13T18:38:17.636Z</time>
      </trkpt>
      <trkpt lat="46.2036" lon="-0.51391">
        <ele>53.76</ele>
        <time>2025-04-13T18:38:18.911Z</time>
      </trkpt>
      <trkpt lat="46.20369" lon="-0.51385">
        <ele>53.76</ele>
        <time>2025-04-13T18:38:20.188Z</time>
      </trkpt>
      <trkpt lat="46.20382" lon="-0.51383">
        <ele>53.71</ele>
        <time>2025-04-13T18:38:21.468Z</time>
      </trkpt>
      <trkpt lat="46.20401" lon="-0.51389">
        <ele>53.65</ele>
        <time>2025-04-13T18:38:22.753Z</time>
      </trkpt>
      <trkpt lat="46.20414" lon="-0.514">
        <ele>53.55</ele>
        <time>2025-04-13T18:38:24.042Z</time>
      </trkpt>
      <trkpt lat="46.20423" lon="-0.51413">
        <ele>53.42</ele>
        <time>2025-04-13T18:38:25.334Z</time>
      </trkpt>
      <trkpt lat="46.20448" lon="-0.51419">
        <ele>53.24</ele>
        <time>2025-04-13T18:38:26.632Z</time>
      </trkpt>
      <trkpt lat="46.20448" lon="-0.51399">
        <ele>53.19</ele>
        <time>2025-04-13T18:38:27.933Z</time>
      </trkpt>
      <trkpt lat="46.20448" lon="-0.51376">
        <ele>53.12</ele>
        <time>2025-04-13T18:38:29.238Z</time>
      </trkpt>
      <trkpt lat="46.20446" lon="-0.51333">
        <ele>53.04</ele>
        <time>2025-04-13T18:38:30.550Z</time>
      </trkpt>
      <trkpt lat="46.20441" lon="-0.51292">
        <ele>52.97</ele>
        <time>2025-04-13T18:38:31.869Z</time>
      </trkpt>
      <trkpt lat="46.20436" lon="-0.51252">
        <ele>52.91</ele>
        <time>2025-04-13T18:38:33.194Z</time>
      </trkpt>
      <trkpt lat="46.20427" lon="-0.51213">
        <ele>52.87</ele>
        <time>2025-04-13T18:38:34.526Z</time>
      </trkpt>
      <trkpt lat="46.20418" lon="-0.51174">
        <ele>52.78</ele>
        <time>2025-04-13T18:38:35.865Z</time>
      </trkpt>
      <trkpt lat="46.20407" lon="-0.51133">
        <ele>52.68</ele>
        <time>2025-04-13T18:38:37.211Z</time>
      </trkpt>
      <trkpt lat="46.20396" lon="-0.51091">
        <ele>52.65</ele>
        <time>2025-04-13T18:38:38.564Z</time>
      </trkpt>
      <trkpt lat="46.20384" lon="-0.51049">
        <ele>52.62</ele>
        <time>2025-04-13T18:38:39.925Z</time>
      </trkpt>
      <trkpt lat="46.20373" lon="-0.51007">
        <ele>52.64</ele>
        <time>2025-04-13T18:38:41.293Z</time>
      </trkpt>
      <trkpt lat="46.20362" lon="-0.50966">
        <ele>52.65</ele>
        <time>2025-04-13T18:38:42.668Z</time>
      </trkpt>
      <trkpt lat="46.2035" lon="-0.50924">
        <ele>52.65</ele>
        <time>2025-04-13T18:38:44.051Z</time>
      </trkpt>
      <trkpt lat="46.20339" lon="-0.50883">
        <ele>52.7</ele>
        <time>2025-04-13T18:38:45.441Z</time>
      </trkpt>
      <trkpt lat="46.20326" lon="-0.50842">
        <ele>52.75</ele>
        <time>2025-04-13T18:38:46.838Z</time>
      </trkpt>
      <trkpt lat="46.20313" lon="-0.50816">
        <ele>52.8</ele>
        <time>2025-04-13T18:38:48.240Z</time>
      </trkpt>
      <trkpt lat="46.203" lon="-0.5079">
        <ele>52.88</ele>
        <time>2025-04-13T18:38:49.648Z</time>
      </trkpt>
      <trkpt lat="46.20286" lon="-0.50763">
        <ele>52.98</ele>
        <time>2025-04-13T18:38:51.061Z</time>
      </trkpt>
      <trkpt lat="46.20271" lon="-0.50736">
        <ele>53.12</ele>
        <time>2025-04-13T18:38:52.480Z</time>
      </trkpt>
      <trkpt lat="46.20257" lon="-0.50708">
        <ele>53.35</ele>
        <time>2025-04-13T18:38:53.904Z</time>
      </trkpt>
      <trkpt lat="46.20242" lon="-0.50681">
        <ele>53.58</ele>
        <time>2025-04-13T18:38:55.334Z</time>
      </trkpt>
      <trkpt lat="46.20226" lon="-0.50646">
        <ele>53.92</ele>
        <time>2025-04-13T18:38:56.771Z</time>
      </trkpt>
      <trkpt lat="46.2021" lon="-0.50611">
        <ele>54.29</ele>
        <time>2025-04-13T18:38:58.215Z</time>
      </trkpt>
      <trkpt lat="46.20193" lon="-0.50576">
        <ele>54.64</ele>
        <time>2025-04-13T18:38:59.666Z</time>
      </trkpt>
      <trkpt lat="46.20177" lon="-0.50542">
        <ele>55.01</ele>
        <time>2025-04-13T18:39:01.123Z</time>
      </trkpt>
      <trkpt lat="46.20161" lon="-0.50507">
        <ele>55.45</ele>
        <time>2025-04-13T18:39:02.587Z</time>
      </trkpt>
      <trkpt lat="46.20142" lon="-0.50472">
        <ele>55.82</ele>
        <time>2025-04-13T18:39:04.059Z</time>
      </trkpt>
      <trkpt lat="46.20122" lon="-0.50436">
        <ele>56.22</ele>
        <time>2025-04-13T18:39:05.538Z</time>
      </trkpt>
      <trkpt lat="46.20101" lon="-0.50405">
        <ele>56.65</ele>
        <time>2025-04-13T18:39:07.024Z</time>
      </trkpt>
      <trkpt lat="46.20079" lon="-0.50374">
        <ele>57.12</ele>
        <time>2025-04-13T18:39:08.517Z</time>
      </trkpt>
      <trkpt lat="46.20056" lon="-0.50348">
        <ele>57.59</ele>
        <time>2025-04-13T18:39:10.017Z</time>
      </trkpt>
      <trkpt lat="46.20034" lon="-0.50323">
        <ele>58.07</ele>
        <time>2025-04-13T18:39:11.524Z</time>
      </trkpt>
      <trkpt lat="46.20011" lon="-0.50297">
        <ele>58.69</ele>
        <time>2025-04-13T18:39:13.038Z</time>
      </trkpt>
      <trkpt lat="46.19996" lon="-0.50258">
        <ele>59.26</ele>
        <time>2025-04-13T18:39:14.559Z</time>
      </trkpt>
      <trkpt lat="46.19981" lon="-0.5022">
        <ele>59.64</ele>
        <time>2025-04-13T18:39:16.087Z</time>
      </trkpt>
      <trkpt lat="46.19961" lon="-0.50198">
        <ele>59.98</ele>
        <time>2025-04-13T18:39:17.621Z</time>
      </trkpt>
      <trkpt lat="46.1994" lon="-0.5019">
        <ele>60.41</ele>
        <time>2025-04-13T18:39:19.160Z</time>
      </trkpt>
      <trkpt lat="46.19918" lon="-0.5019">
        <ele>60.83</ele>
        <time>2025-04-13T18:39:20.704Z</time>
      </trkpt>
      <trkpt lat="46.19895" lon="-0.50196">
        <ele>61.24</ele>
        <time>2025-04-13T18:39:22.254Z</time>
      </trkpt>
      <trkpt lat="46.19875" lon="-0.50192">
        <ele>61.65</ele>
        <time>2025-04-13T18:39:23.809Z</time>
      </trkpt>
      <trkpt lat="46.19854" lon="-0.50166">
        <ele>62.05</ele>
        <time>2025-04-13T18:39:25.370Z</time>
      </trkpt>
      <trkpt lat="46.19841" lon="-0.50138">
        <ele>62.47</ele>
        <time>2025-04-13T18:39:26.937Z</time>
      </trkpt>
      <trkpt lat="46.19828" lon="-0.5011">
        <ele>62.87</ele>
        <time>2025-04-13T18:39:28.509Z</time>
      </trkpt>
      <trkpt lat="46.19848" lon="-0.50081">
        <ele>63.35</ele>
        <time>2025-04-13T18:39:30.088Z</time>
      </trkpt>
      <trkpt lat="46.19856" lon="-0.50069">
        <ele>63.72</ele>
        <time>2025-04-13T18:39:31.669Z</time>
      </trkpt>
      <trkpt lat="46.19867" lon="-0.50046">
        <ele>64.1</ele>
        <time>2025-04-13T18:39:33.255Z</time>
      </trkpt>
      <trkpt lat="46.19879" lon="-0.50005">
        <ele>64.43</ele>
        <time>2025-04-13T18:39:34.848Z</time>
      </trkpt>
      <trkpt lat="46.19891" lon="-0.49964">
        <ele>64.67</ele>
        <time>2025-04-13T18:39:36.449Z</time>
      </trkpt>
      <trkpt lat="46.19897" lon="-0.49938">
        <ele>64.89</ele>
        <time>2025-04-13T18:39:38.054Z</time>
      </trkpt>
      <trkpt lat="46.19897" lon="-0.49913">
        <ele>65.08</ele>
        <time>2025-04-13T18:39:39.663Z</time>
      </trkpt>
      <trkpt lat="46.19893" lon="-0.49871">
        <ele>65.27</ele>
        <time>2025-04-13T18:39:41.279Z</time>
      </trkpt>
      <trkpt lat="46.19888" lon="-0.49829">
        <ele>65.44</ele>
        <time>2025-04-13T18:39:42.902Z</time>
      </trkpt>
      <trkpt lat="46.19891" lon="-0.49801">
        <ele>65.61</ele>
        <time>2025-04-13T18:39:44.530Z</time>
      </trkpt>
      <trkpt lat="46.19897" lon="-0.49775">
        <ele>65.73</ele>
        <time>2025-04-13T18:39:46.162Z</time>
      </trkpt>
      <trkpt lat="46.19909" lon="-0.49745">
        <ele>65.82</ele>
        <time>2025-04-13T18:39:47.800Z</time>
      </trkpt>
      <trkpt lat="46.19921" lon="-0.49715">
        <ele>65.82</ele>
        <time>2025-04-13T18:39:49.443Z</time>
      </trkpt>
      <trkpt lat="46.19923" lon="-0.49702">
        <ele>65.8</ele>
        <time>2025-04-13T18:39:51.089Z</time>
      </trkpt>
      <trkpt lat="46.19925" lon="-0.49692">
        <ele>65.74</ele>
        <time>2025-04-13T18:39:52.736Z</time>
      </trkpt>
      <trkpt lat="46.19927" lon="-0.49675">
        <ele>65.64</ele>
        <time>2025-04-13T18:39:54.386Z</time>
      </trkpt>
      <trkpt lat="46.19925" lon="-0.49629">
        <ele>65.54</ele>
        <time>2025-04-13T18:39:56.044Z</time>
      </trkpt>
      <trkpt lat="46.19942" lon="-0.49599">
        <ele>65.42</ele>
        <time>2025-04-13T18:39:57.708Z</time>
      </trkpt>
      <trkpt lat="46.19953" lon="-0.49589">
        <ele>65.26</ele>
        <time>2025-04-13T18:39:59.375Z</time>
      </trkpt>
      <trkpt lat="46.1997" lon="-0.49572">
        <ele>65.06</ele>
        <time>2025-04-13T18:40:01.047Z</time>
      </trkpt>
      <trkpt lat="46.19965" lon="-0.49547">
        <ele>64.9</ele>
        <time>2025-04-13T18:40:02.723Z</time>
      </trkpt>
      <trkpt lat="46.19959" lon="-0.49517">
        <ele>64.68</ele>
        <time>2025-04-13T18:40:04.404Z</time>
      </trkpt>
      <trkpt lat="46.19953" lon="-0.49488">
        <ele>64.43</ele>
        <time>2025-04-13T18:40:06.090Z</time>
      </trkpt>
      <trkpt lat="46.19944" lon="-0.49462">
        <ele>64.19</ele>
        <time>2025-04-13T18:40:07.781Z</time>
      </trkpt>
      <trkpt lat="46.19931" lon="-0.49424">
        <ele>63.9</ele>
        <time>2025-04-13T18:40:09.479Z</time>
      </trkpt>
      <trkpt lat="46.19916" lon="-0.49391">
        <ele>63.68</ele>
        <time>2025-04-13T18:40:11.183Z</time>
      </trkpt>
      <trkpt lat="46.19901" lon="-0.49359">
        <ele>63.39</ele>
        <time>2025-04-13T18:40:12.894Z</time>
      </trkpt>
      <trkpt lat="46.19882" lon="-0.49327">
        <ele>63.03</ele>
        <time>2025-04-13T18:40:14.612Z</time>
      </trkpt>
      <trkpt lat="46.19868" lon="-0.49312">
        <ele>62.75</ele>
        <time>2025-04-13T18:40:16.334Z</time>
      </trkpt>
      <trkpt lat="46.19854" lon="-0.49297">
        <ele>62.39</ele>
        <time>2025-04-13T18:40:18.060Z</time>
      </trkpt>
      <trkpt lat="46.19837" lon="-0.49273">
        <ele>61.94</ele>
        <time>2025-04-13T18:40:19.791Z</time>
      </trkpt>
      <trkpt lat="46.1982" lon="-0.4925">
        <ele>61.42</ele>
        <time>2025-04-13T18:40:21.528Z</time>
      </trkpt>
      <trkpt lat="46.19803" lon="-0.49226">
        <ele>60.84</ele>
        <time>2025-04-13T18:40:23.270Z</time>
      </trkpt>
      <trkpt lat="46.19812" lon="-0.49199">
        <ele>60.21</ele>
        <time>2025-04-13T18:40:25.017Z</time>
      </trkpt>
      <trkpt lat="46.19822" lon="-0.49172">
        <ele>59.58</ele>
        <time>2025-04-13T18:40:26.769Z</time>
      </trkpt>
      <trkpt lat="46.19836" lon="-0.49135">
        <ele>58.93</ele>
        <time>2025-04-13T18:40:28.528Z</time>
      </trkpt>
      <trkpt lat="46.1985" lon="-0.49097">
        <ele>58.15</ele>
        <time>2025-04-13T18:40:30.294Z</time>
      </trkpt>
      <trkpt lat="46.1986" lon="-0.49078">
        <ele>57.35</ele>
        <time>2025-04-13T18:40:32.064Z</time>
      </trkpt>
      <trkpt lat="46.19871" lon="-0.49059">
        <ele>56.51</ele>
        <time>2025-04-13T18:40:33.838Z</time>
      </trkpt>
      <trkpt lat="46.19884" lon="-0.49042">
        <ele>55.63</ele>
        <time>2025-04-13T18:40:35.616Z</time>
      </trkpt>
      <trkpt lat="46.1991" lon="-0.4902">
        <ele>54.65</ele>
        <time>2025-04-13T18:40:37.401Z</time>
      </trkpt>
      <trkpt lat="46.19935" lon="-0.48999">
        <ele>53.73</ele>
        <time>2025-04-13T18:40:39.193Z</time>
      </trkpt>
      <trkpt lat="46.19961" lon="-0.48977">
        <ele>52.89</ele>
        <time>2025-04-13T18:40:40.992Z</time>
      </trkpt>
      <trkpt lat="46.19986" lon="-0.48956">
        <ele>51.95</ele>
        <time>2025-04-13T18:40:42.798Z</time>
      </trkpt>
      <trkpt lat="46.20012" lon="-0.48934">
        <ele>50.91</ele>
        <time>2025-04-13T18:40:44.611Z</time>
      </trkpt>
      <trkpt lat="46.20037" lon="-0.48913">
        <ele>49.88</ele>
        <time>2025-04-13T18:40:46.431Z</time>
      </trkpt>
      <trkpt lat="46.20063" lon="-0.48891">
        <ele>48.89</ele>
        <time>2025-04-13T18:40:48.258Z</time>
      </trkpt>
      <trkpt lat="46.20088" lon="-0.4887">
        <ele>47.99</ele>
        <time>2025-04-13T18:40:50.092Z</time>
      </trkpt>
      <trkpt lat="46.20114" lon="-0.48848">
        <ele>47.13</ele>
        <time>2025-04-13T18:40:51.933Z</time>
      </trkpt>
      <trkpt lat="46.20134" lon="-0.48825">
        <ele>46.34</ele>
        <time>2025-04-13T18:40:53.780Z</time>
      </trkpt>
      <trkpt lat="46.20155" lon="-0.48801">
        <ele>45.65</ele>
        <time>2025-04-13T18:40:55.634Z</time>
      </trkpt>
      <trkpt lat="46.20176" lon="-0.48778">
        <ele>44.97</ele>
        <time>2025-04-13T18:40:57.494Z</time>
      </trkpt>
      <trkpt lat="46.20189" lon="-0.48757">
        <ele>44.35</ele>
        <time>2025-04-13T18:40:59.358Z</time>
      </trkpt>
      <trkpt lat="46.20202" lon="-0.48737">
        <ele>43.77</ele>
        <time>2025-04-13T18:41:01.227Z</time>
      </trkpt>
      <trkpt lat="46.20186" lon="-0.4872">
        <ele>43.37</ele>
        <time>2025-04-13T18:41:03.100Z</time>
      </trkpt>
      <trkpt lat="46.20202" lon="-0.48737">
        <ele>43.77</ele>
        <time>2025-04-13T18:41:04.978Z</time>
      </trkpt>
      <trkpt lat="46.20217" lon="-0.487">
        <ele>42.49</ele>
        <time>2025-04-13T18:41:06.863Z</time>
      </trkpt>
      <trkpt lat="46.20223" lon="-0.48668">
        <ele>42.16</ele>
        <time>2025-04-13T18:41:08.753Z</time>
      </trkpt>
      <trkpt lat="46.20223" lon="-0.48641">
        <ele>41.9</ele>
        <time>2025-04-13T18:41:10.648Z</time>
      </trkpt>
      <trkpt lat="46.20223" lon="-0.48615">
        <ele>41.7</ele>
        <time>2025-04-13T18:41:12.547Z</time>
      </trkpt>
      <trkpt lat="46.2022" lon="-0.48574">
        <ele>41.52</ele>
        <time>2025-04-13T18:41:14.453Z</time>
      </trkpt>
      <trkpt lat="46.20216" lon="-0.48534">
        <ele>41.38</ele>
        <time>2025-04-13T18:41:16.365Z</time>
      </trkpt>
      <trkpt lat="46.20212" lon="-0.48494">
        <ele>41.26</ele>
        <time>2025-04-13T18:41:18.284Z</time>
      </trkpt>
      <trkpt lat="46.20217" lon="-0.48456">
        <ele>41.28</ele>
        <time>2025-04-13T18:41:20.209Z</time>
      </trkpt>
      <trkpt lat="46.20226" lon="-0.48413">
        <ele>41.42</ele>
        <time>2025-04-13T18:41:22.142Z</time>
      </trkpt>
      <trkpt lat="46.20236" lon="-0.4837">
        <ele>41.49</ele>
        <time>2025-04-13T18:41:24.082Z</time>
      </trkpt>
      <trkpt lat="46.20232" lon="-0.48366">
        <ele>41.61</ele>
        <time>2025-04-13T18:41:26.023Z</time>
      </trkpt>
      <trkpt lat="46.20219" lon="-0.48349">
        <ele>41.77</ele>
        <time>2025-04-13T18:41:27.968Z</time>
      </trkpt>
      <trkpt lat="46.20199" lon="-0.48323">
        <ele>41.89</ele>
        <time>2025-04-13T18:41:29.920Z</time>
      </trkpt>
      <trkpt lat="46.2018" lon="-0.48297">
        <ele>42.03</ele>
        <time>2025-04-13T18:41:31.878Z</time>
      </trkpt>
      <trkpt lat="46.20164" lon="-0.48278">
        <ele>42.18</ele>
        <time>2025-04-13T18:41:33.841Z</time>
      </trkpt>
      <trkpt lat="46.20147" lon="-0.48258">
        <ele>42.36</ele>
        <time>2025-04-13T18:41:35.809Z</time>
      </trkpt>
      <trkpt lat="46.20131" lon="-0.48239">
        <ele>42.56</ele>
        <time>2025-04-13T18:41:37.782Z</time>
      </trkpt>
      <trkpt lat="46.20106" lon="-0.48226">
        <ele>42.79</ele>
        <time>2025-04-13T18:41:39.761Z</time>
      </trkpt>
      <trkpt lat="46.20081" lon="-0.48213">
        <ele>43.04</ele>
        <time>2025-04-13T18:41:41.746Z</time>
      </trkpt>
      <trkpt lat="46.20071" lon="-0.48203">
        <ele>43.3</ele>
        <time>2025-04-13T18:41:43.734Z</time>
      </trkpt>
      <trkpt lat="46.20066" lon="-0.48192">
        <ele>43.54</ele>
        <time>2025-04-13T18:41:45.724Z</time>
      </trkpt>
      <trkpt lat="46.20039" lon="-0.48181">
        <ele>43.79</ele>
        <time>2025-04-13T18:41:47.721Z</time>
      </trkpt>
      <trkpt lat="46.20013" lon="-0.48189">
        <ele>44.07</ele>
        <time>2025-04-13T18:41:49.724Z</time>
      </trkpt>
      <trkpt lat="46.19987" lon="-0.48196">
        <ele>44.34</ele>
        <time>2025-04-13T18:41:51.733Z</time>
      </trkpt>
      <trkpt lat="46.1997" lon="-0.48196">
        <ele>44.59</ele>
        <time>2025-04-13T18:41:53.746Z</time>
      </trkpt>
      <trkpt lat="46.19951" lon="-0.48192">
        <ele>44.81</ele>
        <time>2025-04-13T18:41:55.764Z</time>
      </trkpt>
      <trkpt lat="46.19936" lon="-0.48182">
        <ele>45.02</ele>
        <time>2025-04-13T18:41:57.786Z</time>
      </trkpt>
      <trkpt lat="46.19921" lon="-0.48173">
        <ele>45.24</ele>
        <time>2025-04-13T18:41:59.812Z</time>
      </trkpt>
      <trkpt lat="46.19923" lon="-0.48207">
        <ele>45.38</ele>
        <time>2025-04-13T18:42:01.843Z</time>
      </trkpt>
      <trkpt lat="46.19928" lon="-0.4824">
        <ele>45.49</ele>
        <time>2025-04-13T18:42:03.880Z</time>
      </trkpt>
      <trkpt lat="46.19933" lon="-0.48273">
        <ele>45.57</ele>
        <time>2025-04-13T18:42:05.922Z</time>
      </trkpt>
      <trkpt lat="46.19938" lon="-0.48306">
        <ele>45.72</ele>
        <time>2025-04-13T18:42:07.970Z</time>
      </trkpt>
      <trkpt lat="46.19955" lon="-0.48327">
        <ele>45.85</ele>
        <time>2025-04-13T18:42:10.023Z</time>
      </trkpt>
      <trkpt lat="46.19953" lon="-0.48327">
        <ele>46.05</ele>
        <time>2025-04-13T18:42:12.077Z</time>
      </trkpt>
      <trkpt lat="46.1993" lon="-0.48344">
        <ele>46.33</ele>
        <time>2025-04-13T18:42:14.137Z</time>
      </trkpt>
      <trkpt lat="46.19919" lon="-0.48355">
        <ele>46.59</ele>
        <time>2025-04-13T18:42:16.200Z</time>
      </trkpt>
      <trkpt lat="46.19897" lon="-0.48387">
        <ele>46.92</ele>
        <time>2025-04-13T18:42:18.270Z</time>
      </trkpt>
      <trkpt lat="46.19874" lon="-0.48419">
        <ele>47.28</ele>
        <time>2025-04-13T18:42:20.348Z</time>
      </trkpt>
      <trkpt lat="46.19866" lon="-0.4843">
        <ele>47.58</ele>
        <time>2025-04-13T18:42:22.428Z</time>
      </trkpt>
      <trkpt lat="46.19843" lon="-0.48459">
        <ele>47.93</ele>
        <time>2025-04-13T18:42:24.516Z</time>
      </trkpt>
      <trkpt lat="46.19824" lon="-0.48479">
        <ele>48.25</ele>
        <time>2025-04-13T18:42:26.609Z</time>
      </trkpt>
      <trkpt lat="46.19798" lon="-0.48505">
        <ele>48.64</ele>
        <time>2025-04-13T18:42:28.710Z</time>
      </trkpt>
      <trkpt lat="46.1978" lon="-0.48524">
        <ele>49.05</ele>
        <time>2025-04-13T18:42:30.816Z</time>
      </trkpt>
      <trkpt lat="46.19756" lon="-0.48553">
        <ele>49.42</ele>
        <time>2025-04-13T18:42:32.929Z</time>
      </trkpt>
      <trkpt lat="46.19752" lon="-0.48557">
        <ele>49.81</ele>
        <time>2025-04-13T18:42:35.043Z</time>
      </trkpt>
      <trkpt lat="46.19727" lon="-0.48584">
        <ele>50.17</ele>
        <time>2025-04-13T18:42:37.165Z</time>
      </trkpt>
      <trkpt lat="46.19724" lon="-0.48587">
        <ele>50.6</ele>
        <time>2025-04-13T18:42:39.288Z</time>
      </trkpt>
      <trkpt lat="46.19696" lon="-0.48608">
        <ele>51.05</ele>
        <time>2025-04-13T18:42:41.418Z</time>
      </trkpt>
      <trkpt lat="46.19686" lon="-0.48616">
        <ele>51.55</ele>
        <time>2025-04-13T18:42:43.551Z</time>
      </trkpt>
      <trkpt lat="46.19658" lon="-0.48637">
        <ele>52.17</ele>
        <time>2025-04-13T18:42:45.691Z</time>
      </trkpt>
      <trkpt lat="46.1965" lon="-0.48643">
        <ele>52.73</ele>
        <time>2025-04-13T18:42:47.833Z</time>
      </trkpt>
      <trkpt lat="46.1962" lon="-0.48659">
        <ele>53.41</ele>
        <time>2025-04-13T18:42:49.983Z</time>
      </trkpt>
      <trkpt lat="46.19614" lon="-0.48662">
        <ele>53.99</ele>
        <time>2025-04-13T18:42:52.134Z</time>
      </trkpt>
      <trkpt lat="46.19592" lon="-0.48673">
        <ele>54.63</ele>
        <time>2025-04-13T18:42:54.291Z</time>
      </trkpt>
      <trkpt lat="46.19586" lon="-0.48669">
        <ele>55.19</ele>
        <time>2025-04-13T18:42:56.449Z</time>
      </trkpt>
      <trkpt lat="46.19555" lon="-0.48671">
        <ele>55.81</ele>
        <time>2025-04-13T18:42:58.615Z</time>
      </trkpt>
      <trkpt lat="46.19544" lon="-0.48671">
        <ele>56.38</ele>
        <time>2025-04-13T18:43:00.783Z</time>
      </trkpt>
      <trkpt lat="46.19513" lon="-0.48673">
        <ele>57</ele>
        <time>2025-04-13T18:43:02.959Z</time>
      </trkpt>
      <trkpt lat="46.19512" lon="-0.48673">
        <ele>57.51</ele>
        <time>2025-04-13T18:43:05.135Z</time>
      </trkpt>
      <trkpt lat="46.19485" lon="-0.48695">
        <ele>57.98</ele>
        <time>2025-04-13T18:43:07.318Z</time>
      </trkpt>
      <trkpt lat="46.19466" lon="-0.4871">
        <ele>58.35</ele>
        <time>2025-04-13T18:43:09.506Z</time>
      </trkpt>
      <trkpt lat="46.19447" lon="-0.48674">
        <ele>58.95</ele>
        <time>2025-04-13T18:43:11.702Z</time>
      </trkpt>
      <trkpt lat="46.19444" lon="-0.48667">
        <ele>59.4</ele>
        <time>2025-04-13T18:43:13.899Z</time>
      </trkpt>
      <trkpt lat="46.19431" lon="-0.48676">
        <ele>59.81</ele>
        <time>2025-04-13T18:43:16.099Z</time>
      </trkpt>
      <trkpt lat="46.19403" lon="-0.48696">
        <ele>60.3</ele>
        <time>2025-04-13T18:43:18.307Z</time>
      </trkpt>
      <trkpt lat="46.194" lon="-0.48698">
        <ele>60.7</ele>
        <time>2025-04-13T18:43:20.515Z</time>
      </trkpt>
      <trkpt lat="46.19372" lon="-0.48718">
        <ele>61.18</ele>
        <time>2025-04-13T18:43:22.731Z</time>
      </trkpt>
      <trkpt lat="46.19367" lon="-0.48722">
        <ele>61.54</ele>
        <time>2025-04-13T18:43:24.948Z</time>
      </trkpt>
      <trkpt lat="46.19338" lon="-0.4874">
        <ele>61.91</ele>
        <time>2025-04-13T18:43:27.172Z</time>
      </trkpt>
      <trkpt lat="46.19338" lon="-0.4874">
        <ele>62.23</ele>
        <time>2025-04-13T18:43:29.397Z</time>
      </trkpt>
      <trkpt lat="46.19307" lon="-0.4875">
        <ele>62.5</ele>
        <time>2025-04-13T18:43:31.629Z</time>
      </trkpt>
      <trkpt lat="46.19276" lon="-0.48759">
        <ele>62.75</ele>
        <time>2025-04-13T18:43:33.868Z</time>
      </trkpt>
      <trkpt lat="46.1927" lon="-0.48761">
        <ele>63.03</ele>
        <time>2025-04-13T18:43:36.109Z</time>
      </trkpt>
      <trkpt lat="46.19249" lon="-0.48773">
        <ele>63.35</ele>
        <time>2025-04-13T18:43:38.355Z</time>
      </trkpt>
      <trkpt lat="46.19224" lon="-0.48801">
        <ele>63.73</ele>
        <time>2025-04-13T18:43:40.609Z</time>
      </trkpt>
      <trkpt lat="46.1922" lon="-0.48805">
        <ele>64.03</ele>
        <time>2025-04-13T18:43:42.864Z</time>
      </trkpt>
      <trkpt lat="46.19195" lon="-0.48833">
        <ele>64.3</ele>
        <time>2025-04-13T18:43:45.126Z</time>
      </trkpt>
      <trkpt lat="46.19171" lon="-0.48861">
        <ele>64.63</ele>
        <time>2025-04-13T18:43:47.396Z</time>
      </trkpt>
      <trkpt lat="46.19146" lon="-0.4889">
        <ele>64.97</ele>
        <time>2025-04-13T18:43:49.673Z</time>
      </trkpt>
      <trkpt lat="46.19121" lon="-0.48918">
        <ele>65.3</ele>
        <time>2025-04-13T18:43:51.957Z</time>
      </trkpt>
      <trkpt lat="46.19116" lon="-0.48924">
        <ele>65.61</ele>
        <time>2025-04-13T18:43:54.243Z</time>
      </trkpt>
      <trkpt lat="46.19091" lon="-0.48952">
        <ele>65.97</ele>
        <time>2025-04-13T18:43:56.536Z</time>
      </trkpt>
      <trkpt lat="46.19067" lon="-0.4898">
        <ele>66.3</ele>
        <time>2025-04-13T18:43:58.837Z</time>
      </trkpt>
      <trkpt lat="46.19043" lon="-0.49007">
        <ele>66.56</ele>
        <time>2025-04-13T18:44:01.145Z</time>
      </trkpt>
      <trkpt lat="46.19039" lon="-0.49012">
        <ele>66.9</ele>
        <time>2025-04-13T18:44:03.454Z</time>
      </trkpt>
      <trkpt lat="46.19036" lon="-0.49019">
        <ele>67.24</ele>
        <time>2025-04-13T18:44:05.765Z</time>
      </trkpt>
      <trkpt lat="46.1904" lon="-0.49039">
        <ele>67.63</ele>
        <time>2025-04-13T18:44:08.079Z</time>
      </trkpt>
      <trkpt lat="46.19043" lon="-0.49045">
        <ele>67.96</ele>
        <time>2025-04-13T18:44:10.394Z</time>
      </trkpt>
      <trkpt lat="46.19054" lon="-0.49087">
        <ele>68.33</ele>
        <time>2025-04-13T18:44:12.717Z</time>
      </trkpt>
      <trkpt lat="46.19064" lon="-0.4913">
        <ele>68.81</ele>
        <time>2025-04-13T18:44:15.047Z</time>
      </trkpt>
      <trkpt lat="46.19065" lon="-0.49137">
        <ele>69.08</ele>
        <time>2025-04-13T18:44:17.378Z</time>
      </trkpt>
      <trkpt lat="46.19078" lon="-0.49178">
        <ele>69.33</ele>
        <time>2025-04-13T18:44:19.716Z</time>
      </trkpt>
      <trkpt lat="46.19087" lon="-0.49208">
        <ele>69.54</ele>
        <time>2025-04-13T18:44:22.060Z</time>
      </trkpt>
      <trkpt lat="46.19098" lon="-0.4925">
        <ele>69.69</ele>
        <time>2025-04-13T18:44:24.411Z</time>
      </trkpt>
      <trkpt lat="46.191" lon="-0.49256">
        <ele>69.81</ele>
        <time>2025-04-13T18:44:26.763Z</time>
      </trkpt>
      <trkpt lat="46.1909" lon="-0.49261">
        <ele>69.88</ele>
        <time>2025-04-13T18:44:29.118Z</time>
      </trkpt>
      <trkpt lat="46.19077" lon="-0.4927">
        <ele>69.9</ele>
        <time>2025-04-13T18:44:31.476Z</time>
      </trkpt>
      <trkpt lat="46.19059" lon="-0.4928">
        <ele>69.89</ele>
        <time>2025-04-13T18:44:33.839Z</time>
      </trkpt>
      <trkpt lat="46.19037" lon="-0.4929">
        <ele>69.9</ele>
        <time>2025-04-13T18:44:36.207Z</time>
      </trkpt>
      <trkpt lat="46.19021" lon="-0.49292">
        <ele>69.92</ele>
        <time>2025-04-13T18:44:38.579Z</time>
      </trkpt>
      <trkpt lat="46.18997" lon="-0.49292">
        <ele>69.94</ele>
        <time>2025-04-13T18:44:40.957Z</time>
      </trkpt>
      <trkpt lat="46.18979" lon="-0.49292">
        <ele>69.89</ele>
        <time>2025-04-13T18:44:43.339Z</time>
      </trkpt>
      <trkpt lat="46.18949" lon="-0.493">
        <ele>69.8</ele>
        <time>2025-04-13T18:44:45.728Z</time>
      </trkpt>
      <trkpt lat="46.18926" lon="-0.49307">
        <ele>69.79</ele>
        <time>2025-04-13T18:44:48.122Z</time>
      </trkpt>
      <trkpt lat="46.18935" lon="-0.49319">
        <ele>69.82</ele>
        <time>2025-04-13T18:44:50.519Z</time>
      </trkpt>
      <trkpt lat="46.18943" lon="-0.4933">
        <ele>69.87</ele>
        <time>2025-04-13T18:44:52.919Z</time>
      </trkpt>
      <trkpt lat="46.18966" lon="-0.49362">
        <ele>69.97</ele>
        <time>2025-04-13T18:44:55.326Z</time>
      </trkpt>
      <trkpt lat="46.18988" lon="-0.49393">
        <ele>70.13</ele>
        <time>2025-04-13T18:44:57.741Z</time>
      </trkpt>
      <trkpt lat="46.19011" lon="-0.49425">
        <ele>70.24</ele>
        <time>2025-04-13T18:45:00.163Z</time>
      </trkpt>
      <trkpt lat="46.19034" lon="-0.49456">
        <ele>70.25</ele>
        <time>2025-04-13T18:45:02.593Z</time>
      </trkpt>
      <trkpt lat="46.19056" lon="-0.49488">
        <ele>70.34</ele>
        <time>2025-04-13T18:45:05.030Z</time>
      </trkpt>
      <trkpt lat="46.19067" lon="-0.49503">
        <ele>70.34</ele>
        <time>2025-04-13T18:45:07.471Z</time>
      </trkpt>
      <trkpt lat="46.1909" lon="-0.49534">
        <ele>70.31</ele>
        <time>2025-04-13T18:45:09.919Z</time>
      </trkpt>
      <trkpt lat="46.19112" lon="-0.49566">
        <ele>70.26</ele>
        <time>2025-04-13T18:45:12.374Z</time>
      </trkpt>
      <trkpt lat="46.19135" lon="-0.49597">
        <ele>70.21</ele>
        <time>2025-04-13T18:45:14.837Z</time>
      </trkpt>
      <trkpt lat="46.19158" lon="-0.49629">
        <ele>70.18</ele>
        <time>2025-04-13T18:45:17.307Z</time>
      </trkpt>
      <trkpt lat="46.19181" lon="-0.4966">
        <ele>70.07</ele>
        <time>2025-04-13T18:45:19.785Z</time>
      </trkpt>
      <trkpt lat="46.19187" lon="-0.49669">
        <ele>69.93</ele>
        <time>2025-04-13T18:45:22.265Z</time>
      </trkpt>
      <trkpt lat="46.19209" lon="-0.49701">
        <ele>69.76</ele>
        <time>2025-04-13T18:45:24.752Z</time>
      </trkpt>
      <trkpt lat="46.19232" lon="-0.49733">
        <ele>69.58</ele>
        <time>2025-04-13T18:45:27.247Z</time>
      </trkpt>
      <trkpt lat="46.19237" lon="-0.4974">
        <ele>69.34</ele>
        <time>2025-04-13T18:45:29.743Z</time>
      </trkpt>
      <trkpt lat="46.19242" lon="-0.49736">
        <ele>69.05</ele>
        <time>2025-04-13T18:45:32.241Z</time>
      </trkpt>
      <trkpt lat="46.19269" lon="-0.49712">
        <ele>68.63</ele>
        <time>2025-04-13T18:45:34.746Z</time>
      </trkpt>
      <trkpt lat="46.1929" lon="-0.49692">
        <ele>68.26</ele>
        <time>2025-04-13T18:45:37.257Z</time>
      </trkpt>
      <trkpt lat="46.19302" lon="-0.4972">
        <ele>67.86</ele>
        <time>2025-04-13T18:45:39.773Z</time>
      </trkpt>
      <trkpt lat="46.19316" lon="-0.49761">
        <ele>67.34</ele>
        <time>2025-04-13T18:45:42.297Z</time>
      </trkpt>
      <trkpt lat="46.19322" lon="-0.4978">
        <ele>66.88</ele>
        <time>2025-04-13T18:45:44.824Z</time>
      </trkpt>
      <trkpt lat="46.19336" lon="-0.49821">
        <ele>66.29</ele>
        <time>2025-04-13T18:45:47.359Z</time>
      </trkpt>
      <trkpt lat="46.19346" lon="-0.4985">
        <ele>65.74</ele>
        <time>2025-04-13T18:45:49.899Z</time>
      </trkpt>
      <trkpt lat="46.19354" lon="-0.49868">
        <ele>65.19</ele>
        <time>2025-04-13T18:45:52.443Z</time>
      </trkpt>
      <trkpt lat="46.19373" lon="-0.49904">
        <ele>64.66</ele>
        <time>2025-04-13T18:45:54.994Z</time>
      </trkpt>
      <trkpt lat="46.19378" lon="-0.49912">
        <ele>64.16</ele>
        <time>2025-04-13T18:45:57.547Z</time>
      </trkpt>
      <trkpt lat="46.19398" lon="-0.49947">
        <ele>63.62</ele>
        <time>2025-04-13T18:46:00.107Z</time>
      </trkpt>
      <trkpt lat="46.19403" lon="-0.49956">
        <ele>63.11</ele>
        <time>2025-04-13T18:46:02.669Z</time>
      </trkpt>
      <trkpt lat="46.19424" lon="-0.4999">
        <ele>62.58</ele>
        <time>2025-04-13T18:46:05.238Z</time>
      </trkpt>
      <trkpt lat="46.19444" lon="-0.50024">
        <ele>62.16</ele>
        <time>2025-04-13T18:46:07.815Z</time>
      </trkpt>
      <trkpt lat="46.19465" lon="-0.50059">
        <ele>61.74</ele>
        <time>2025-04-13T18:46:10.399Z</time>
      </trkpt>
      <trkpt lat="46.19486" lon="-0.50093">
        <ele>61.28</ele>
        <time>2025-04-13T18:46:12.991Z</time>
      </trkpt>
      <trkpt lat="46.19504" lon="-0.50123">
        <ele>60.85</ele>
        <time>2025-04-13T18:46:15.589Z</time>
      </trkpt>
      <trkpt lat="46.19514" lon="-0.50139">
        <ele>60.43</ele>
        <time>2025-04-13T18:46:18.191Z</time>
      </trkpt>
      <trkpt lat="46.19521" lon="-0.50145">
        <ele>59.98</ele>
        <time>2025-04-13T18:46:20.795Z</time>
      </trkpt>
      <trkpt lat="46.19514" lon="-0.50169">
        <ele>59.43</ele>
        <time>2025-04-13T18:46:23.403Z</time>
      </trkpt>
      <trkpt lat="46.19502" lon="-0.50211">
        <ele>58.82</ele>
        <time>2025-04-13T18:46:26.018Z</time>
      </trkpt>
      <trkpt lat="46.19491" lon="-0.50253">
        <ele>58.32</ele>
        <time>2025-04-13T18:46:28.641Z</time>
      </trkpt>
      <trkpt lat="46.1948" lon="-0.50292">
        <ele>57.87</ele>
        <time>2025-04-13T18:46:31.271Z</time>
      </trkpt>
      <trkpt lat="46.19468" lon="-0.50334">
        <ele>57.43</ele>
        <time>2025-04-13T18:46:33.908Z</time>
      </trkpt>
      <trkpt lat="46.19466" lon="-0.5034">
        <ele>56.91</ele>
        <time>2025-04-13T18:46:36.546Z</time>
      </trkpt>
      <trkpt lat="46.1946" lon="-0.50374">
        <ele>56.27</ele>
        <time>2025-04-13T18:46:39.190Z</time>
      </trkpt>
      <trkpt lat="46.19455" lon="-0.5041">
        <ele>55.6</ele>
        <time>2025-04-13T18:46:41.840Z</time>
      </trkpt>
      <trkpt lat="46.19454" lon="-0.50442">
        <ele>54.99</ele>
        <time>2025-04-13T18:46:44.495Z</time>
      </trkpt>
      <trkpt lat="46.19453" lon="-0.50487">
        <ele>54.43</ele>
        <time>2025-04-13T18:46:47.157Z</time>
      </trkpt>
      <trkpt lat="46.19453" lon="-0.50503">
        <ele>53.9</ele>
        <time>2025-04-13T18:46:49.822Z</time>
      </trkpt>
      <trkpt lat="46.1945" lon="-0.50519">
        <ele>53.36</ele>
        <time>2025-04-13T18:46:52.490Z</time>
      </trkpt>
      <trkpt lat="46.19454" lon="-0.50528">
        <ele>52.81</ele>
        <time>2025-04-13T18:46:55.159Z</time>
      </trkpt>
      <trkpt lat="46.19453" lon="-0.5054">
        <ele>52.28</ele>
        <time>2025-04-13T18:46:57.830Z</time>
      </trkpt>
      <trkpt lat="46.19443" lon="-0.50583">
        <ele>51.73</ele>
        <time>2025-04-13T18:47:00.509Z</time>
      </trkpt>
      <trkpt lat="46.19439" lon="-0.50603">
        <ele>51.24</ele>
        <time>2025-04-13T18:47:03.191Z</time>
      </trkpt>
      <trkpt lat="46.19433" lon="-0.50633">
        <ele>50.83</ele>
        <time>2025-04-13T18:47:05.878Z</time>
      </trkpt>
      <trkpt lat="46.19427" lon="-0.50677">
        <ele>50.39</ele>
        <time>2025-04-13T18:47:08.573Z</time>
      </trkpt>
      <trkpt lat="46.19423" lon="-0.50704">
        <ele>49.97</ele>
        <time>2025-04-13T18:47:11.272Z</time>
      </trkpt>
      <trkpt lat="46.19418" lon="-0.50749">
        <ele>49.48</ele>
        <time>2025-04-13T18:47:13.979Z</time>
      </trkpt>
      <trkpt lat="46.19416" lon="-0.50769">
        <ele>49.06</ele>
        <time>2025-04-13T18:47:16.689Z</time>
      </trkpt>
      <trkpt lat="46.19413" lon="-0.50809">
        <ele>48.72</ele>
        <time>2025-04-13T18:47:19.405Z</time>
      </trkpt>
      <trkpt lat="46.19414" lon="-0.50833">
        <ele>48.41</ele>
        <time>2025-04-13T18:47:22.125Z</time>
      </trkpt>
      <trkpt lat="46.19427" lon="-0.50869">
        <ele>48.17</ele>
        <time>2025-04-13T18:47:24.852Z</time>
      </trkpt>
      <trkpt lat="46.19439" lon="-0.50899">
        <ele>47.86</ele>
        <time>2025-04-13T18:47:27.585Z</time>
      </trkpt>
      <trkpt lat="46.19457" lon="-0.50937">
        <ele>47.59</ele>
        <time>2025-04-13T18:47:30.325Z</time>
      </trkpt>
      <trkpt lat="46.19473" lon="-0.50971">
        <ele>47.45</ele>
        <time>2025-04-13T18:47:33.072Z</time>
      </trkpt>
      <trkpt lat="46.19487" lon="-0.51012">
        <ele>47.37</ele>
        <time>2025-04-13T18:47:35.826Z</time>
      </trkpt>
      <trkpt lat="46.19487" lon="-0.51012">
        <ele>47.39</ele>
        <time>2025-04-13T18:47:38.580Z</time>
      </trkpt>
      <trkpt lat="46.195" lon="-0.51053">
        <ele>47.44</ele>
        <time>2025-04-13T18:47:41.342Z</time>
      </trkpt>
      <trkpt lat="46.19502" lon="-0.51059">
        <ele>47.6</ele>
        <time>2025-04-13T18:47:44.105Z</time>
      </trkpt>
      <trkpt lat="46.19511" lon="-0.51083">
        <ele>47.79</ele>
        <time>2025-04-13T18:47:46.872Z</time>
      </trkpt>
      <trkpt lat="46.1952" lon="-0.51096">
        <ele>48.11</ele>
        <time>2025-04-13T18:47:49.642Z</time>
      </trkpt>
      <trkpt lat="46.19524" lon="-0.51098">
        <ele>48.5</ele>
        <time>2025-04-13T18:47:52.413Z</time>
      </trkpt>
      <trkpt lat="46.19516" lon="-0.51133">
        <ele>49.01</ele>
        <time>2025-04-13T18:47:55.190Z</time>
      </trkpt>
      <trkpt lat="46.19511" lon="-0.51159">
        <ele>49.57</ele>
        <time>2025-04-13T18:47:57.972Z</time>
      </trkpt>
      <trkpt lat="46.19504" lon="-0.51192">
        <ele>50.17</ele>
        <time>2025-04-13T18:48:00.759Z</time>
      </trkpt>
      <trkpt lat="46.19498" lon="-0.51236">
        <ele>50.89</ele>
        <time>2025-04-13T18:48:03.554Z</time>
      </trkpt>
      <trkpt lat="46.19494" lon="-0.51261">
        <ele>51.57</ele>
        <time>2025-04-13T18:48:06.353Z</time>
      </trkpt>
      <trkpt lat="46.19489" lon="-0.51306">
        <ele>52.3</ele>
        <time>2025-04-13T18:48:09.159Z</time>
      </trkpt>
      <trkpt lat="46.19484" lon="-0.51351">
        <ele>53.06</ele>
        <time>2025-04-13T18:48:11.973Z</time>
      </trkpt>
      <trkpt lat="46.19483" lon="-0.51364">
        <ele>53.75</ele>
        <time>2025-04-13T18:48:14.789Z</time>
      </trkpt>
      <trkpt lat="46.19474" lon="-0.51407">
        <ele>54.51</ele>
        <time>2025-04-13T18:48:17.612Z</time>
      </trkpt>
      <trkpt lat="46.19471" lon="-0.51416">
        <ele>55.21</ele>
        <time>2025-04-13T18:48:20.437Z</time>
      </trkpt>
      <trkpt lat="46.19475" lon="-0.51417">
        <ele>55.84</ele>
        <time>2025-04-13T18:48:23.263Z</time>
      </trkpt>
      <trkpt lat="46.19472" lon="-0.51432">
        <ele>56.43</ele>
        <time>2025-04-13T18:48:26.091Z</time>
      </trkpt>
      <trkpt lat="46.19446" lon="-0.51436">
        <ele>56.95</ele>
        <time>2025-04-13T18:48:28.925Z</time>
      </trkpt>
      <trkpt lat="46.19421" lon="-0.51441">
        <ele>57.52</ele>
        <time>2025-04-13T18:48:31.765Z</time>
      </trkpt>
      <trkpt lat="46.19395" lon="-0.51445">
        <ele>58.1</ele>
        <time>2025-04-13T18:48:34.612Z</time>
      </trkpt>
      <trkpt lat="46.19369" lon="-0.51449">
        <ele>58.58</ele>
        <time>2025-04-13T18:48:37.465Z</time>
      </trkpt>
      <trkpt lat="46.19363" lon="-0.51458">
        <ele>58.96</ele>
        <time>2025-04-13T18:48:40.320Z</time>
      </trkpt>
      <trkpt lat="46.19356" lon="-0.51479">
        <ele>59.29</ele>
        <time>2025-04-13T18:48:43.179Z</time>
      </trkpt>
      <trkpt lat="46.1935" lon="-0.51501">
        <ele>59.53</ele>
        <time>2025-04-13T18:48:46.041Z</time>
      </trkpt>
      <trkpt lat="46.19337" lon="-0.51511">
        <ele>59.7</ele>
        <time>2025-04-13T18:48:48.907Z</time>
      </trkpt>
      <trkpt lat="46.19311" lon="-0.51505">
        <ele>59.76</ele>
        <time>2025-04-13T18:48:51.779Z</time>
      </trkpt>
      <trkpt lat="46.193" lon="-0.51495">
        <ele>59.79</ele>
        <time>2025-04-13T18:48:54.654Z</time>
      </trkpt>
      <trkpt lat="46.19294" lon="-0.5149">
        <ele>59.8</ele>
        <time>2025-04-13T18:48:57.531Z</time>
      </trkpt>
      <trkpt lat="46.19277" lon="-0.51464">
        <ele>59.71</ele>
        <time>2025-04-13T18:49:00.414Z</time>
      </trkpt>
      <trkpt lat="46.19262" lon="-0.51468">
        <ele>59.69</ele>
        <time>2025-04-13T18:49:03.300Z</time>
      </trkpt>
      <trkpt lat="46.19242" lon="-0.51481">
        <ele>59.65</ele>
        <time>2025-04-13T18:49:06.191Z</time>
      </trkpt>
      <trkpt lat="46.19234" lon="-0.51503">
        <ele>59.58</ele>
        <time>2025-04-13T18:49:09.086Z</time>
      </trkpt>
      <trkpt lat="46.19236" lon="-0.51524">
        <ele>59.51</ele>
        <time>2025-04-13T18:49:11.985Z</time>
      </trkpt>
      <trkpt lat="46.1925" lon="-0.5155">
        <ele>59.4</ele>
        <time>2025-04-13T18:49:14.889Z</time>
      </trkpt>
      <trkpt lat="46.19264" lon="-0.51576">
        <ele>59.24</ele>
        <time>2025-04-13T18:49:17.798Z</time>
      </trkpt>
      <trkpt lat="46.1926" lon="-0.51593">
        <ele>59.09</ele>
        <time>2025-04-13T18:49:20.710Z</time>
      </trkpt>
      <trkpt lat="46.19264" lon="-0.5161">
        <ele>58.88</ele>
        <time>2025-04-13T18:49:23.625Z</time>
      </trkpt>
      <trkpt lat="46.19262" lon="-0.51627">
        <ele>58.71</ele>
        <time>2025-04-13T18:49:26.543Z</time>
      </trkpt>
      <trkpt lat="46.19251" lon="-0.51651">
        <ele>58.56</ele>
        <time>2025-04-13T18:49:29.466Z</time>
      </trkpt>
      <trkpt lat="46.19227" lon="-0.51651">
        <ele>58.43</ele>
        <time>2025-04-13T18:49:32.394Z</time>
      </trkpt>
      <trkpt lat="46.1921" lon="-0.51657">
        <ele>58.32</ele>
        <time>2025-04-13T18:49:35.327Z</time>
      </trkpt>
      <trkpt lat="46.19195" lon="-0.51677">
        <ele>58.23</ele>
        <time>2025-04-13T18:49:38.264Z</time>
      </trkpt>
      <trkpt lat="46.1918" lon="-0.51689">
        <ele>58.19</ele>
        <time>2025-04-13T18:49:41.205Z</time>
      </trkpt>
      <trkpt lat="46.19163" lon="-0.51675">
        <ele>58.15</ele>
        <time>2025-04-13T18:49:44.151Z</time>
      </trkpt>
      <trkpt lat="46.19146" lon="-0.51662">
        <ele>58.18</ele>
        <time>2025-04-13T18:49:47.102Z</time>
      </trkpt>
      <trkpt lat="46.19131" lon="-0.51659">
        <ele>58.27</ele>
        <time>2025-04-13T18:49:50.056Z</time>
      </trkpt>
      <trkpt lat="46.19105" lon="-0.51636">
        <ele>58.46</ele>
        <time>2025-04-13T18:49:53.017Z</time>
      </trkpt>
      <trkpt lat="46.19094" lon="-0.51634">
        <ele>58.67</ele>
        <time>2025-04-13T18:49:55.981Z</time>
      </trkpt>
      <trkpt lat="46.19077" lon="-0.51659">
        <ele>58.92</ele>
        <time>2025-04-13T18:49:58.951Z</time>
      </trkpt>
      <trkpt lat="46.1906" lon="-0.51682">
        <ele>59.19</ele>
        <time>2025-04-13T18:50:01.926Z</time>
      </trkpt>
      <trkpt lat="46.19043" lon="-0.51706">
        <ele>59.56</ele>
        <time>2025-04-13T18:50:04.907Z</time>
      </trkpt>
      <trkpt lat="46.19026" lon="-0.5173">
        <ele>60.04</ele>
        <time>2025-04-13T18:50:07.894Z</time>
      </trkpt>
      <trkpt lat="46.19009" lon="-0.51754">
        <ele>60.54</ele>
        <time>2025-04-13T18:50:10.886Z</time>
      </trkpt>
      <trkpt lat="46.18985" lon="-0.51778">
        <ele>61.03</ele>
        <time>2025-04-13T18:50:13.885Z</time>
      </trkpt>
      <trkpt lat="46.18962" lon="-0.51803">
        <ele>61.66</ele>
        <time>2025-04-13T18:50:16.891Z</time>
      </trkpt>
      <trkpt lat="46.18939" lon="-0.51827">
        <ele>62.34</ele>
        <time>2025-04-13T18:50:19.904Z</time>
      </trkpt>
      <trkpt lat="46.18916" lon="-0.51852">
        <ele>63.12</ele>
        <time>2025-04-13T18:50:22.923Z</time>
      </trkpt>
      <trkpt lat="46.18893" lon="-0.51876">
        <ele>63.92</ele>
        <time>2025-04-13T18:50:25.949Z</time>
      </trkpt>
      <trkpt lat="46.189" lon="-0.51902">
        <ele>64.66</ele>
        <time>2025-04-13T18:50:28.980Z</time>
      </trkpt>
      <trkpt lat="46.18908" lon="-0.51928">
        <ele>65.42</ele>
        <time>2025-04-13T18:50:32.015Z</time>
      </trkpt>
      <trkpt lat="46.18912" lon="-0.51961">
        <ele>66.1</ele>
        <time>2025-04-13T18:50:35.056Z</time>
      </trkpt>
      <trkpt lat="46.18916" lon="-0.51994">
        <ele>66.78</ele>
        <time>2025-04-13T18:50:38.102Z</time>
      </trkpt>
      <trkpt lat="46.18916" lon="-0.52039">
        <ele>67.42</ele>
        <time>2025-04-13T18:50:41.155Z</time>
      </trkpt>
      <trkpt lat="46.18915" lon="-0.52083">
        <ele>68.18</ele>
        <time>2025-04-13T18:50:44.216Z</time>
      </trkpt>
      <trkpt lat="46.18914" lon="-0.52127">
        <ele>68.79</ele>
        <time>2025-04-13T18:50:47.284Z</time>
      </trkpt>
      <trkpt lat="46.18893" lon="-0.52131">
        <ele>69.39</ele>
        <time>2025-04-13T18:50:50.357Z</time>
      </trkpt>
      <trkpt lat="46.18871" lon="-0.52136">
        <ele>69.91</ele>
        <time>2025-04-13T18:50:53.435Z</time>
      </trkpt>
      <trkpt lat="46.1885" lon="-0.5214">
        <ele>70.36</ele>
        <time>2025-04-13T18:50:56.518Z</time>
      </trkpt>
      <trkpt lat="46.18828" lon="-0.52144">
        <ele>70.83</ele>
        <time>2025-04-13T18:50:59.606Z</time>
      </trkpt>
      <trkpt lat="46.18799" lon="-0.52157">
        <ele>71.28</ele>
        <time>2025-04-13T18:51:02.702Z</time>
      </trkpt>
      <trkpt lat="46.1877" lon="-0.5217">
        <ele>71.7</ele>
        <time>2025-04-13T18:51:05.805Z</time>
      </trkpt>
      <trkpt lat="46.18759" lon="-0.52204">
        <ele>72.02</ele>
        <time>2025-04-13T18:51:08.914Z</time>
      </trkpt>
      <trkpt lat="46.18749" lon="-0.52237">
        <ele>72.22</ele>
        <time>2025-04-13T18:51:12.029Z</time>
      </trkpt>
      <trkpt lat="46.18745" lon="-0.52275">
        <ele>72.15</ele>
        <time>2025-04-13T18:51:15.150Z</time>
      </trkpt>
      <trkpt lat="46.1874" lon="-0.52314">
        <ele>72.15</ele>
        <time>2025-04-13T18:51:18.277Z</time>
      </trkpt>
      <trkpt lat="46.18733" lon="-0.52355">
        <ele>72.2</ele>
        <time>2025-04-13T18:51:21.411Z</time>
      </trkpt>
      <trkpt lat="46.18725" lon="-0.52395">
        <ele>72.2</ele>
        <time>2025-04-13T18:51:24.552Z</time>
      </trkpt>
      <trkpt lat="46.18725" lon="-0.52415">
        <ele>72.14</ele>
        <time>2025-04-13T18:51:27.696Z</time>
      </trkpt>
      <trkpt lat="46.1873" lon="-0.52443">
        <ele>72.03</ele>
        <time>2025-04-13T18:51:30.845Z</time>
      </trkpt>
      <trkpt lat="46.18734" lon="-0.5247">
        <ele>71.87</ele>
        <time>2025-04-13T18:51:33.999Z</time>
      </trkpt>
      <trkpt lat="46.18744" lon="-0.52509">
        <ele>71.61</ele>
        <time>2025-04-13T18:51:37.159Z</time>
      </trkpt>
      <trkpt lat="46.18753" lon="-0.52547">
        <ele>71.33</ele>
        <time>2025-04-13T18:51:40.326Z</time>
      </trkpt>
      <trkpt lat="46.18763" lon="-0.52586">
        <ele>71.07</ele>
        <time>2025-04-13T18:51:43.500Z</time>
      </trkpt>
      <trkpt lat="46.18773" lon="-0.52624">
        <ele>70.72</ele>
        <time>2025-04-13T18:51:46.680Z</time>
      </trkpt>
      <trkpt lat="46.18782" lon="-0.52662">
        <ele>70.42</ele>
        <time>2025-04-13T18:51:49.867Z</time>
      </trkpt>
      <trkpt lat="46.18792" lon="-0.527">
        <ele>70.16</ele>
        <time>2025-04-13T18:51:53.061Z</time>
      </trkpt>
      <trkpt lat="46.18794" lon="-0.52725">
        <ele>69.86</ele>
        <time>2025-04-13T18:51:56.259Z</time>
      </trkpt>
      <trkpt lat="46.18796" lon="-0.52749">
        <ele>69.56</ele>
        <time>2025-04-13T18:51:59.461Z</time>
      </trkpt>
      <trkpt lat="46.18796" lon="-0.52786">
        <ele>69.24</ele>
        <time>2025-04-13T18:52:02.669Z</time>
      </trkpt>
      <trkpt lat="46.18792" lon="-0.52807">
        <ele>68.91</ele>
        <time>2025-04-13T18:52:05.880Z</time>
      </trkpt>
      <trkpt lat="46.18785" lon="-0.5282">
        <ele>68.63</ele>
        <time>2025-04-13T18:52:09.094Z</time>
      </trkpt>
      <trkpt lat="46.18761" lon="-0.5284">
        <ele>68.38</ele>
        <time>2025-04-13T18:52:12.314Z</time>
      </trkpt>
      <trkpt lat="46.18737" lon="-0.52859">
        <ele>68.07</ele>
        <time>2025-04-13T18:52:15.541Z</time>
      </trkpt>
      <trkpt lat="46.18713" lon="-0.52878">
        <ele>67.86</ele>
        <time>2025-04-13T18:52:18.774Z</time>
      </trkpt>
      <trkpt lat="46.18689" lon="-0.52898">
        <ele>67.56</ele>
        <time>2025-04-13T18:52:22.014Z</time>
      </trkpt>
      <trkpt lat="46.18672" lon="-0.52921">
        <ele>67.28</ele>
        <time>2025-04-13T18:52:25.260Z</time>
      </trkpt>
      <trkpt lat="46.18657" lon="-0.52954">
        <ele>67.01</ele>
        <time>2025-04-13T18:52:28.512Z</time>
      </trkpt>
      <trkpt lat="46.18642" lon="-0.52987">
        <ele>66.8</ele>
        <time>2025-04-13T18:52:31.770Z</time>
      </trkpt>
      <trkpt lat="46.18627" lon="-0.53019">
        <ele>66.57</ele>
        <time>2025-04-13T18:52:35.035Z</time>
      </trkpt>
      <trkpt lat="46.18612" lon="-0.53052">
        <ele>66.39</ele>
        <time>2025-04-13T18:52:38.306Z</time>
      </trkpt>
      <trkpt lat="46.18594" lon="-0.53033">
        <ele>66.37</ele>
        <time>2025-04-13T18:52:41.582Z</time>
      </trkpt>
      <trkpt lat="46.18576" lon="-0.53013">
        <ele>66.33</ele>
        <time>2025-04-13T18:52:44.864Z</time>
      </trkpt>
      <trkpt lat="46.18558" lon="-0.52994">
        <ele>66.32</ele>
        <time>2025-04-13T18:52:48.151Z</time>
      </trkpt>
      <trkpt lat="46.18534" lon="-0.52972">
        <ele>66.33</ele>
        <time>2025-04-13T18:52:51.445Z</time>
      </trkpt>
      <trkpt lat="46.18511" lon="-0.52949">
        <ele>66.35</ele>
        <time>2025-04-13T18:52:54.745Z</time>
      </trkpt>
      <trkpt lat="46.18489" lon="-0.52936">
        <ele>66.31</ele>
        <time>2025-04-13T18:52:58.051Z</time>
      </trkpt>
      <trkpt lat="46.18468" lon="-0.52923">
        <ele>66.22</ele>
        <time>2025-04-13T18:53:01.362Z</time>
      </trkpt>
      <trkpt lat="46.18441" lon="-0.52917">
        <ele>66.18</ele>
        <time>2025-04-13T18:53:04.680Z</time>
      </trkpt>
      <trkpt lat="46.18414" lon="-0.5291">
        <ele>66.11</ele>
        <time>2025-04-13T18:53:08.004Z</time>
      </trkpt>
      <trkpt lat="46.18399" lon="-0.52901">
        <ele>65.99</ele>
        <time>2025-04-13T18:53:11.332Z</time>
      </trkpt>
      <trkpt lat="46.18384" lon="-0.52891">
        <ele>65.83</ele>
        <time>2025-04-13T18:53:14.664Z</time>
      </trkpt>
      <trkpt lat="46.1837" lon="-0.52863">
        <ele>65.64</ele>
        <time>2025-04-13T18:53:18.002Z</time>
      </trkpt>
      <trkpt lat="46.18356" lon="-0.52835">
        <ele>65.41</ele>
        <time>2025-04-13T18:53:21.345Z</time>
      </trkpt>
      <trkpt lat="46.18346" lon="-0.52814">
        <ele>65.22</ele>
        <time>2025-04-13T18:53:24.692Z</time>
      </trkpt>
      <trkpt lat="46.18334" lon="-0.52772">
        <ele>64.94</ele>
        <time>2025-04-13T18:53:28.047Z</time>
      </trkpt>
      <trkpt lat="46.18322" lon="-0.52731">
        <ele>64.66</ele>
        <time>2025-04-13T18:53:31.409Z</time>
      </trkpt>
      <trkpt lat="46.18311" lon="-0.52689">
        <ele>64.24</ele>
        <time>2025-04-13T18:53:34.778Z</time>
      </trkpt>
      <trkpt lat="46.18299" lon="-0.52648">
        <ele>63.77</ele>
        <time>2025-04-13T18:53:38.155Z</time>
      </trkpt>
      <trkpt lat="46.18287" lon="-0.52606">
        <ele>63.27</ele>
        <time>2025-04-13T18:53:41.539Z</time>
      </trkpt>
      <trkpt lat="46.18276" lon="-0.52565">
        <ele>62.85</ele>
        <time>2025-04-13T18:53:44.930Z</time>
      </trkpt>
      <trkpt lat="46.18264" lon="-0.52524">
        <ele>62.39</ele>
        <time>2025-04-13T18:53:48.328Z</time>
      </trkpt>
      <trkpt lat="46.18253" lon="-0.52486">
        <ele>61.76</ele>
        <time>2025-04-13T18:53:51.733Z</time>
      </trkpt>
      <trkpt lat="46.18241" lon="-0.52447">
        <ele>61.16</ele>
        <time>2025-04-13T18:53:55.145Z</time>
      </trkpt>
      <trkpt lat="46.1823" lon="-0.52409">
        <ele>60.67</ele>
        <time>2025-04-13T18:53:58.564Z</time>
      </trkpt>
      <trkpt lat="46.18219" lon="-0.52371">
        <ele>60.1</ele>
        <time>2025-04-13T18:54:01.990Z</time>
      </trkpt>
      <trkpt lat="46.18207" lon="-0.52332">
        <ele>59.44</ele>
        <time>2025-04-13T18:54:05.423Z</time>
      </trkpt>
      <trkpt lat="46.18196" lon="-0.52294">
        <ele>58.84</ele>
        <time>2025-04-13T18:54:08.862Z</time>
      </trkpt>
      <trkpt lat="46.18185" lon="-0.52256">
        <ele>58.27</ele>
        <time>2025-04-13T18:54:12.308Z</time>
      </trkpt>
      <trkpt lat="46.1817" lon="-0.52233">
        <ele>57.61</ele>
        <time>2025-04-13T18:54:15.759Z</time>
      </trkpt>
      <trkpt lat="46.18155" lon="-0.5221">
        <ele>56.88</ele>
        <time>2025-04-13T18:54:19.215Z</time>
      </trkpt>
      <trkpt lat="46.1814" lon="-0.52187">
        <ele>56.08</ele>
        <time>2025-04-13T18:54:22.677Z</time>
      </trkpt>
      <trkpt lat="46.18117" lon="-0.52163">
        <ele>55.23</ele>
        <time>2025-04-13T18:54:26.145Z</time>
      </trkpt>
      <trkpt lat="46.18095" lon="-0.52139">
        <ele>54.3</ele>
        <time>2025-04-13T18:54:29.620Z</time>
      </trkpt>
      <trkpt lat="46.18073" lon="-0.52114">
        <ele>53.48</ele>
        <time>2025-04-13T18:54:33.101Z</time>
      </trkpt>
      <trkpt lat="46.18056" lon="-0.52089">
        <ele>52.67</ele>
        <time>2025-04-13T18:54:36.588Z</time>
      </trkpt>
      <trkpt lat="46.18039" lon="-0.52064">
        <ele>51.91</ele>
        <time>2025-04-13T18:54:40.081Z</time>
      </trkpt>
      <trkpt lat="46.18022" lon="-0.52039">
        <ele>51.03</ele>
        <time>2025-04-13T18:54:43.580Z</time>
      </trkpt>
      <trkpt lat="46.18006" lon="-0.52007">
        <ele>50.17</ele>
        <time>2025-04-13T18:54:47.085Z</time>
      </trkpt>
      <trkpt lat="46.1799" lon="-0.51975">
        <ele>49.41</ele>
        <time>2025-04-13T18:54:50.596Z</time>
      </trkpt>
      <trkpt lat="46.17974" lon="-0.51942">
        <ele>48.69</ele>
        <time>2025-04-13T18:54:54.114Z</time>
      </trkpt>
      <trkpt lat="46.17958" lon="-0.5191">
        <ele>48.02</ele>
        <time>2025-04-13T18:54:57.638Z</time>
      </trkpt>
      <trkpt lat="46.17942" lon="-0.51878">
        <ele>47.4</ele>
        <time>2025-04-13T18:55:01.169Z</time>
      </trkpt>
      <trkpt lat="46.17926" lon="-0.51846">
        <ele>46.8</ele>
        <time>2025-04-13T18:55:04.706Z</time>
      </trkpt>
      <trkpt lat="46.1791" lon="-0.51814">
        <ele>46.3</ele>
        <time>2025-04-13T18:55:08.250Z</time>
      </trkpt>
      <trkpt lat="46.17896" lon="-0.51829">
        <ele>45.84</ele>
        <time>2025-04-13T18:55:11.798Z</time>
      </trkpt>
      <trkpt lat="46.17882" lon="-0.51844">
        <ele>45.42</ele>
        <time>2025-04-13T18:55:15.350Z</time>
      </trkpt>
      <trkpt lat="46.17864" lon="-0.51863">
        <ele>45.04</ele>
        <time>2025-04-13T18:55:18.907Z</time>
      </trkpt>
      <trkpt lat="46.17846" lon="-0.51883">
        <ele>44.74</ele>
        <time>2025-04-13T18:55:22.470Z</time>
      </trkpt>
      <trkpt lat="46.17825" lon="-0.51908">
        <ele>44.51</ele>
        <time>2025-04-13T18:55:26.039Z</time>
      </trkpt>
      <trkpt lat="46.17805" lon="-0.51934">
        <ele>44.41</ele>
        <time>2025-04-13T18:55:29.614Z</time>
      </trkpt>
      <trkpt lat="46.17784" lon="-0.5196">
        <ele>44.34</ele>
        <time>2025-04-13T18:55:33.196Z</time>
      </trkpt>
      <trkpt lat="46.17764" lon="-0.51986">
        <ele>44.29</ele>
        <time>2025-04-13T18:55:36.784Z</time>
      </trkpt>
      <trkpt lat="46.17738" lon="-0.52009">
        <ele>44.24</ele>
        <time>2025-04-13T18:55:40.379Z</time>
      </trkpt>
      <trkpt lat="46.17713" lon="-0.52033">
        <ele>44.19</ele>
        <time>2025-04-13T18:55:43.982Z</time>
      </trkpt>
      <trkpt lat="46.17726" lon="-0.52067">
        <ele>44.31</ele>
        <time>2025-04-13T18:55:47.591Z</time>
      </trkpt>
      <trkpt lat="46.17734" lon="-0.52087">
        <ele>44.49</ele>
        <time>2025-04-13T18:55:51.204Z</time>
      </trkpt>
      <trkpt lat="46.17743" lon="-0.52108">
        <ele>44.71</ele>
        <time>2025-04-13T18:55:54.821Z</time>
      </trkpt>
      <trkpt lat="46.17759" lon="-0.52137">
        <ele>45.05</ele>
        <time>2025-04-13T18:55:58.444Z</time>
      </trkpt>
      <trkpt lat="46.17775" lon="-0.52167">
        <ele>45.45</ele>
        <time>2025-04-13T18:56:02.073Z</time>
      </trkpt>
      <trkpt lat="46.17791" lon="-0.52196">
        <ele>45.87</ele>
        <time>2025-04-13T18:56:05.708Z</time>
      </trkpt>
      <trkpt lat="46.17807" lon="-0.52226">
        <ele>46.29</ele>
        <time>2025-04-13T18:56:09.349Z</time>
      </trkpt>
      <trkpt lat="46.1782" lon="-0.52263">
        <ele>46.75</ele>
        <time>2025-04-13T18:56:12.997Z</time>
      </trkpt>
      <trkpt lat="46.17832" lon="-0.52301">
        <ele>47.22</ele>
        <time>2025-04-13T18:56:16.652Z</time>
      </trkpt>
      <trkpt lat="46.17845" lon="-0.52338">
        <ele>47.7</ele>
        <time>2025-04-13T18:56:20.314Z</time>
      </trkpt>
      <trkpt lat="46.17857" lon="-0.52376">
        <ele>48.31</ele>
        <time>2025-04-13T18:56:23.982Z</time>
      </trkpt>
      <trkpt lat="46.1787" lon="-0.52413">
        <ele>48.96</ele>
        <time>2025-04-13T18:56:27.657Z</time>
      </trkpt>
      <trkpt lat="46.17883" lon="-0.52451">
        <ele>49.61</ele>
        <time>2025-04-13T18:56:31.339Z</time>
      </trkpt>
      <trkpt lat="46.17895" lon="-0.52488">
        <ele>50.18</ele>
        <time>2025-04-13T18:56:35.028Z</time>
      </trkpt>
      <trkpt lat="46.17905" lon="-0.52525">
        <ele>50.79</ele>
        <time>2025-04-13T18:56:38.723Z</time>
      </trkpt>
      <trkpt lat="46.17915" lon="-0.52563">
        <ele>51.48</ele>
        <time>2025-04-13T18:56:42.425Z</time>
      </trkpt>
      <trkpt lat="46.17925" lon="-0.52601">
        <ele>52.21</ele>
        <time>2025-04-13T18:56:46.134Z</time>
      </trkpt>
      <trkpt lat="46.17935" lon="-0.52639">
        <ele>52.91</ele>
        <time>2025-04-13T18:56:49.849Z</time>
      </trkpt>
      <trkpt lat="46.17946" lon="-0.52677">
        <ele>53.52</ele>
        <time>2025-04-13T18:56:53.571Z</time>
      </trkpt>
      <trkpt lat="46.17956" lon="-0.52714">
        <ele>54.07</ele>
        <time>2025-04-13T18:56:57.300Z</time>
      </trkpt>
      <trkpt lat="46.17966" lon="-0.52752">
        <ele>54.61</ele>
        <time>2025-04-13T18:57:01.035Z</time>
      </trkpt>
      <trkpt lat="46.17972" lon="-0.52795">
        <ele>55.17</ele>
        <time>2025-04-13T18:57:04.777Z</time>
      </trkpt>
      <trkpt lat="46.17979" lon="-0.52839">
        <ele>55.67</ele>
        <time>2025-04-13T18:57:08.527Z</time>
      </trkpt>
      <trkpt lat="46.17985" lon="-0.52883">
        <ele>56.11</ele>
        <time>2025-04-13T18:57:12.284Z</time>
      </trkpt>
      <trkpt lat="46.17992" lon="-0.52927">
        <ele>56.49</ele>
        <time>2025-04-13T18:57:16.048Z</time>
      </trkpt>
      <trkpt lat="46.17998" lon="-0.5297">
        <ele>56.74</ele>
        <time>2025-04-13T18:57:19.820Z</time>
      </trkpt>
      <trkpt lat="46.18004" lon="-0.53013">
        <ele>57.03</ele>
        <time>2025-04-13T18:57:23.599Z</time>
      </trkpt>
      <trkpt lat="46.17985" lon="-0.53025">
        <ele>57.14</ele>
        <time>2025-04-13T18:57:27.383Z</time>
      </trkpt>
      <trkpt lat="46.1796" lon="-0.53039">
        <ele>57.19</ele>
        <time>2025-04-13T18:57:31.173Z</time>
      </trkpt>
      <trkpt lat="46.17935" lon="-0.53054">
        <ele>57.2</ele>
        <time>2025-04-13T18:57:34.969Z</time>
      </trkpt>
      <trkpt lat="46.1791" lon="-0.53068">
        <ele>57.1</ele>
        <time>2025-04-13T18:57:38.772Z</time>
      </trkpt>
      <trkpt lat="46.17885" lon="-0.53083">
        <ele>56.92</ele>
        <time>2025-04-13T18:57:42.581Z</time>
      </trkpt>
      <trkpt lat="46.17861" lon="-0.53097">
        <ele>56.66</ele>
        <time>2025-04-13T18:57:46.396Z</time>
      </trkpt>
      <trkpt lat="46.17836" lon="-0.5312">
        <ele>56.28</ele>
        <time>2025-04-13T18:57:50.218Z</time>
      </trkpt>
      <trkpt lat="46.17811" lon="-0.53142">
        <ele>55.83</ele>
        <time>2025-04-13T18:57:54.047Z</time>
      </trkpt>
      <trkpt lat="46.17787" lon="-0.53167">
        <ele>55.42</ele>
        <time>2025-04-13T18:57:57.883Z</time>
      </trkpt>
      <trkpt lat="46.17763" lon="-0.53192">
        <ele>54.99</ele>
        <time>2025-04-13T18:58:01.726Z</time>
      </trkpt>
      <trkpt lat="46.17738" lon="-0.53217">
        <ele>54.66</ele>
        <time>2025-04-13T18:58:05.576Z</time>
      </trkpt>
      <trkpt lat="46.17713" lon="-0.53234">
        <ele>54.24</ele>
        <time>2025-04-13T18:58:09.433Z</time>
      </trkpt>
      <trkpt lat="46.17688" lon="-0.53252">
        <ele>53.68</ele>
        <time>2025-04-13T18:58:13.296Z</time>
      </trkpt>
      <trkpt lat="46.17662" lon="-0.53269">
        <ele>53.15</ele>
        <time>2025-04-13T18:58:17.166Z</time>
      </trkpt>
      <trkpt lat="46.17637" lon="-0.53286">
        <ele>52.7</ele>
        <time>2025-04-13T18:58:21.043Z</time>
      </trkpt>
      <trkpt lat="46.17612" lon="-0.53303">
        <ele>52.13</ele>
        <time>2025-04-13T18:58:24.926Z</time>
      </trkpt>
      <trkpt lat="46.17592" lon="-0.53325">
        <ele>51.49</ele>
        <time>2025-04-13T18:58:28.815Z</time>
      </trkpt>
      <trkpt lat="46.17572" lon="-0.53347">
        <ele>50.84</ele>
        <time>2025-04-13T18:58:32.710Z</time>
      </trkpt>
      <trkpt lat="46.17552" lon="-0.5337">
        <ele>50.25</ele>
        <time>2025-04-13T18:58:36.611Z</time>
      </trkpt>
      <trkpt lat="46.17541" lon="-0.534">
        <ele>49.72</ele>
        <time>2025-04-13T18:58:40.517Z</time>
      </trkpt>
      <trkpt lat="46.17517" lon="-0.53397">
        <ele>49.1</ele>
        <time>2025-04-13T18:58:44.429Z</time>
      </trkpt>
      <trkpt lat="46.17487" lon="-0.53408">
        <ele>48.45</ele>
        <time>2025-04-13T18:58:48.348Z</time>
      </trkpt>
      <trkpt lat="46.17464" lon="-0.53419">
        <ele>47.84</ele>
        <time>2025-04-13T18:58:52.273Z</time>
      </trkpt>
      <trkpt lat="46.1745" lon="-0.53436">
        <ele>47.32</ele>
        <time>2025-04-13T18:58:56.202Z</time>
      </trkpt>
      <trkpt lat="46.17436" lon="-0.53453">
        <ele>46.83</ele>
        <time>2025-04-13T18:59:00.136Z</time>
      </trkpt>
      <trkpt lat="46.17416" lon="-0.53477">
        <ele>46.4</ele>
        <time>2025-04-13T18:59:04.076Z</time>
      </trkpt>
      <trkpt lat="46.17389" lon="-0.53498">
        <ele>45.98</ele>
        <time>2025-04-13T18:59:08.023Z</time>
      </trkpt>
      <trkpt lat="46.17362" lon="-0.5352">
        <ele>45.58</ele>
        <time>2025-04-13T18:59:11.977Z</time>
      </trkpt>
      <trkpt lat="46.17335" lon="-0.53541">
        <ele>45.11</ele>
        <time>2025-04-13T18:59:15.939Z</time>
      </trkpt>
      <trkpt lat="46.17308" lon="-0.53562">
        <ele>44.62</ele>
        <time>2025-04-13T18:59:19.908Z</time>
      </trkpt>
      <trkpt lat="46.17281" lon="-0.53584">
        <ele>44.18</ele>
        <time>2025-04-13T18:59:23.884Z</time>
      </trkpt>
      <trkpt lat="46.17254" lon="-0.53605">
        <ele>43.76</ele>
        <time>2025-04-13T18:59:27.867Z</time>
      </trkpt>
      <trkpt lat="46.17227" lon="-0.53626">
        <ele>43.41</ele>
        <time>2025-04-13T18:59:31.858Z</time>
      </trkpt>
      <trkpt lat="46.172" lon="-0.53648">
        <ele>43.11</ele>
        <time>2025-04-13T18:59:35.856Z</time>
      </trkpt>
      <trkpt lat="46.17173" lon="-0.53669">
        <ele>42.85</ele>
        <time>2025-04-13T18:59:39.861Z</time>
      </trkpt>
      <trkpt lat="46.17146" lon="-0.5369">
        <ele>42.55</ele>
        <time>2025-04-13T18:59:43.873Z</time>
      </trkpt>
      <trkpt lat="46.17119" lon="-0.53712">
        <ele>42.3</ele>
        <time>2025-04-13T18:59:47.893Z</time>
      </trkpt>
      <trkpt lat="46.17092" lon="-0.53733">
        <ele>42.19</ele>
        <time>2025-04-13T18:59:51.920Z</time>
      </trkpt>
      <trkpt lat="46.17065" lon="-0.53754">
        <ele>42.15</ele>
        <time>2025-04-13T18:59:55.954Z</time>
      </trkpt>
      <trkpt lat="46.17038" lon="-0.53776">
        <ele>42.08</ele>
        <time>2025-04-13T18:59:59.995Z</time>
      </trkpt>
      <trkpt lat="46.17011" lon="-0.53797">
        <ele>42.03</ele>
        <time>2025-04-13T19:00:04.044Z</time>
      </trkpt>
      <trkpt lat="46.16984" lon="-0.53818">
        <ele>42.06</ele>
        <time>2025-04-13T19:00:08.100Z</time>
      </trkpt>
      <trkpt lat="46.16957" lon="-0.53839">
        <ele>42.1</ele>
        <time>2025-04-13T19:00:12.163Z</time>
      </trkpt>
      <trkpt lat="46.1697" lon="-0.5388">
        <ele>42.26</ele>
        <time>2025-04-13T19:00:16.233Z</time>
      </trkpt>
      <trkpt lat="46.16979" lon="-0.53907">
        <ele>42.41</ele>
        <time>2025-04-13T19:00:20.308Z</time>
      </trkpt>
      <trkpt lat="46.16989" lon="-0.53935">
        <ele>42.56</ele>
        <time>2025-04-13T19:00:24.388Z</time>
      </trkpt>
      <trkpt lat="46.16998" lon="-0.53962">
        <ele>42.69</ele>
        <time>2025-04-13T19:00:28.473Z</time>
      </trkpt>
      <trkpt lat="46.17024" lon="-0.53984">
        <ele>42.84</ele>
        <time>2025-04-13T19:00:32.565Z</time>
      </trkpt>
      <trkpt lat="46.1705" lon="-0.54006">
        <ele>43.04</ele>
        <time>2025-04-13T19:00:36.665Z</time>
      </trkpt>
      <trkpt lat="46.17077" lon="-0.54029">
        <ele>43.21</ele>
        <time>2025-04-13T19:00:40.772Z</time>
      </trkpt>
      <trkpt lat="46.17103" lon="-0.54051">
        <ele>43.37</ele>
        <time>2025-04-13T19:00:44.886Z</time>
      </trkpt>
      <trkpt lat="46.17129" lon="-0.54073">
        <ele>43.35</ele>
        <time>2025-04-13T19:00:49.007Z</time>
      </trkpt>
      <trkpt lat="46.17156" lon="-0.54087">
        <ele>43.41</ele>
        <time>2025-04-13T19:00:53.135Z</time>
      </trkpt>
      <trkpt lat="46.17183" lon="-0.54101">
        <ele>43.45</ele>
        <time>2025-04-13T19:00:57.269Z</time>
      </trkpt>
      <trkpt lat="46.17158" lon="-0.54126">
        <ele>43.46</ele>
        <time>2025-04-13T19:01:01.411Z</time>
      </trkpt>
      <trkpt lat="46.17158" lon="-0.54126">
        <ele>43.45</ele>
        <time>2025-04-13T19:01:05.553Z</time>
      </trkpt>
      <trkpt lat="46.17134" lon="-0.54149">
        <ele>43.4</ele>
        <time>2025-04-13T19:01:09.701Z</time>
      </trkpt>
      <trkpt lat="46.1711" lon="-0.54173">
        <ele>43.33</ele>
        <time>2025-04-13T19:01:13.856Z</time>
      </trkpt>
      <trkpt lat="46.17086" lon="-0.54196">
        <ele>43.19</ele>
        <time>2025-04-13T19:01:18.018Z</time>
      </trkpt>
      <trkpt lat="46.17062" lon="-0.5422">
        <ele>43</ele>
        <time>2025-04-13T19:01:22.187Z</time>
      </trkpt>
      <trkpt lat="46.17039" lon="-0.54243">
        <ele>42.83</ele>
        <time>2025-04-13T19:01:26.362Z</time>
      </trkpt>
      <trkpt lat="46.1705" lon="-0.54274">
        <ele>42.69</ele>
        <time>2025-04-13T19:01:30.543Z</time>
      </trkpt>
      <trkpt lat="46.17065" lon="-0.54312">
        <ele>42.5</ele>
        <time>2025-04-13T19:01:34.731Z</time>
      </trkpt>
      <trkpt lat="46.1707" lon="-0.54345">
        <ele>42.25</ele>
        <time>2025-04-13T19:01:38.925Z</time>
      </trkpt>
      <trkpt lat="46.17075" lon="-0.54379">
        <ele>41.94</ele>
        <time>2025-04-13T19:01:43.125Z</time>
      </trkpt>
      <trkpt lat="46.17081" lon="-0.54413">
        <ele>41.66</ele>
        <time>2025-04-13T19:01:47.330Z</time>
      </trkpt>
      <trkpt lat="46.17086" lon="-0.54447">
        <ele>41.37</ele>
        <time>2025-04-13T19:01:51.541Z</time>
      </trkpt>
      <trkpt lat="46.1709" lon="-0.54478">
        <ele>41.13</ele>
        <time>2025-04-13T19:01:55.757Z</time>
      </trkpt>
      <trkpt lat="46.17093" lon="-0.54508">
        <ele>40.93</ele>
        <time>2025-04-13T19:01:59.978Z</time>
      </trkpt>
      <trkpt lat="46.17097" lon="-0.54539">
        <ele>40.67</ele>
        <time>2025-04-13T19:02:04.204Z</time>
      </trkpt>
      <trkpt lat="46.17097" lon="-0.54539">
        <ele>40.42</ele>
        <time>2025-04-13T19:02:08.430Z</time>
      </trkpt>
      <trkpt lat="46.17102" lon="-0.54577">
        <ele>40.08</ele>
        <time>2025-04-13T19:02:12.662Z</time>
      </trkpt>
      <trkpt lat="46.17107" lon="-0.54614">
        <ele>39.68</ele>
        <time>2025-04-13T19:02:16.901Z</time>
      </trkpt>
      <trkpt lat="46.17113" lon="-0.54646">
        <ele>39.43</ele>
        <time>2025-04-13T19:02:21.145Z</time>
      </trkpt>
      <trkpt lat="46.17118" lon="-0.54678">
        <ele>39.27</ele>
        <time>2025-04-13T19:02:25.395Z</time>
      </trkpt>
      <trkpt lat="46.17134" lon="-0.54714">
        <ele>39.13</ele>
        <time>2025-04-13T19:02:29.652Z</time>
      </trkpt>
      <trkpt lat="46.1715" lon="-0.5475">
        <ele>38.91</ele>
        <time>2025-04-13T19:02:33.915Z</time>
      </trkpt>
      <trkpt lat="46.17165" lon="-0.54786">
        <ele>38.71</ele>
        <time>2025-04-13T19:02:38.185Z</time>
      </trkpt>
      <trkpt lat="46.17179" lon="-0.54821">
        <ele>38.61</ele>
        <time>2025-04-13T19:02:42.462Z</time>
      </trkpt>
      <trkpt lat="46.17193" lon="-0.54856">
        <ele>38.59</ele>
        <time>2025-04-13T19:02:46.746Z</time>
      </trkpt>
      <trkpt lat="46.17207" lon="-0.54891">
        <ele>38.57</ele>
        <time>2025-04-13T19:02:51.036Z</time>
      </trkpt>
      <trkpt lat="46.17221" lon="-0.54925">
        <ele>38.6</ele>
        <time>2025-04-13T19:02:55.333Z</time>
      </trkpt>
      <trkpt lat="46.17219" lon="-0.54953">
        <ele>38.58</ele>
        <time>2025-04-13T19:02:59.634Z</time>
      </trkpt>
      <trkpt lat="46.17225" lon="-0.54994">
        <ele>38.66</ele>
        <time>2025-04-13T19:03:03.942Z</time>
      </trkpt>
      <trkpt lat="46.17232" lon="-0.55035">
        <ele>38.71</ele>
        <time>2025-04-13T19:03:08.257Z</time>
      </trkpt>
      <trkpt lat="46.17228" lon="-0.55058">
        <ele>38.72</ele>
        <time>2025-04-13T19:03:12.576Z</time>
      </trkpt>
      <trkpt lat="46.17211" lon="-0.55069">
        <ele>38.74</ele>
        <time>2025-04-13T19:03:16.899Z</time>
      </trkpt>
      <trkpt lat="46.17194" lon="-0.5508">
        <ele>38.72</ele>
        <time>2025-04-13T19:03:21.227Z</time>
      </trkpt>
      <trkpt lat="46.17176" lon="-0.5509">
        <ele>38.72</ele>
        <time>2025-04-13T19:03:25.559Z</time>
      </trkpt>
      <trkpt lat="46.17152" lon="-0.55098">
        <ele>38.7</ele>
        <time>2025-04-13T19:03:29.897Z</time>
      </trkpt>
      <trkpt lat="46.17127" lon="-0.55106">
        <ele>38.66</ele>
        <time>2025-04-13T19:03:34.241Z</time>
      </trkpt>
      <trkpt lat="46.17103" lon="-0.55114">
        <ele>38.63</ele>
        <time>2025-04-13T19:03:38.591Z</time>
      </trkpt>
      <trkpt lat="46.1711" lon="-0.55141">
        <ele>38.89</ele>
        <time>2025-04-13T19:03:42.945Z</time>
      </trkpt>
      <trkpt lat="46.1711" lon="-0.55141">
        <ele>39.12</ele>
        <time>2025-04-13T19:03:47.299Z</time>
      </trkpt>
      <trkpt lat="46.1712" lon="-0.55181">
        <ele>39.46</ele>
        <time>2025-04-13T19:03:51.660Z</time>
      </trkpt>
      <trkpt lat="46.1713" lon="-0.55221">
        <ele>39.84</ele>
        <time>2025-04-13T19:03:56.028Z</time>
      </trkpt>
      <trkpt lat="46.17141" lon="-0.55261">
        <ele>40.22</ele>
        <time>2025-04-13T19:04:00.403Z</time>
      </trkpt>
      <trkpt lat="46.17151" lon="-0.55301">
        <ele>40.63</ele>
        <time>2025-04-13T19:04:04.785Z</time>
      </trkpt>
      <trkpt lat="46.17161" lon="-0.55341">
        <ele>41.09</ele>
        <time>2025-04-13T19:04:09.174Z</time>
      </trkpt>
      <trkpt lat="46.17171" lon="-0.55381">
        <ele>41.59</ele>
        <time>2025-04-13T19:04:13.570Z</time>
      </trkpt>
      <trkpt lat="46.17182" lon="-0.55421">
        <ele>42.11</ele>
        <time>2025-04-13T19:04:17.973Z</time>
      </trkpt>
      <trkpt lat="46.17192" lon="-0.55461">
        <ele>42.63</ele>
        <time>2025-04-13T19:04:22.383Z</time>
      </trkpt>
      <trkpt lat="46.17202" lon="-0.555">
        <ele>43.22</ele>
        <time>2025-04-13T19:04:26.800Z</time>
      </trkpt>
      <trkpt lat="46.17209" lon="-0.5554">
        <ele>43.74</ele>
        <time>2025-04-13T19:04:31.224Z</time>
      </trkpt>
      <trkpt lat="46.17217" lon="-0.55579">
        <ele>44.26</ele>
        <time>2025-04-13T19:04:35.654Z</time>
      </trkpt>
      <trkpt lat="46.17224" lon="-0.55618">
        <ele>44.77</ele>
        <time>2025-04-13T19:04:40.091Z</time>
      </trkpt>
      <trkpt lat="46.17232" lon="-0.55657">
        <ele>45.33</ele>
        <time>2025-04-13T19:04:44.535Z</time>
      </trkpt>
      <trkpt lat="46.17231" lon="-0.55695">
        <ele>45.78</ele>
        <time>2025-04-13T19:04:48.985Z</time>
      </trkpt>
      <trkpt lat="46.1723" lon="-0.55732">
        <ele>46.19</ele>
        <time>2025-04-13T19:04:53.441Z</time>
      </trkpt>
      <trkpt lat="46.17238" lon="-0.55768">
        <ele>46.62</ele>
        <time>2025-04-13T19:04:57.903Z</time>
      </trkpt>
      <trkpt lat="46.17247" lon="-0.55803">
        <ele>47.01</ele>
        <time>2025-04-13T19:05:02.371Z</time>
      </trkpt>
      <trkpt lat="46.17257" lon="-0.55839">
        <ele>47.32</ele>
        <time>2025-04-13T19:05:06.846Z</time>
      </trkpt>
      <trkpt lat="46.17267" lon="-0.55876">
        <ele>47.53</ele>
        <time>2025-04-13T19:05:11.327Z</time>
      </trkpt>
      <trkpt lat="46.17277" lon="-0.55913">
        <ele>47.77</ele>
        <time>2025-04-13T19:05:15.814Z</time>
      </trkpt>
      <trkpt lat="46.17287" lon="-0.55949">
        <ele>47.93</ele>
        <time>2025-04-13T19:05:20.308Z</time>
      </trkpt>
      <trkpt lat="46.17297" lon="-0.55986">
        <ele>48.11</ele>
        <time>2025-04-13T19:05:24.808Z</time>
      </trkpt>
      <trkpt lat="46.17307" lon="-0.56022">
        <ele>48.2</ele>
        <time>2025-04-13T19:05:29.315Z</time>
      </trkpt>
      <trkpt lat="46.17305" lon="-0.56026">
        <ele>48.19</ele>
        <time>2025-04-13T19:05:33.823Z</time>
      </trkpt>
      <trkpt lat="46.17303" lon="-0.56035">
        <ele>48.09</ele>
        <time>2025-04-13T19:05:38.332Z</time>
      </trkpt>
      <trkpt lat="46.17313" lon="-0.56072">
        <ele>47.89</ele>
        <time>2025-04-13T19:05:42.848Z</time>
      </trkpt>
      <trkpt lat="46.17324" lon="-0.5611">
        <ele>47.71</ele>
        <time>2025-04-13T19:05:47.370Z</time>
      </trkpt>
      <trkpt lat="46.17324" lon="-0.5611">
        <ele>47.41</ele>
        <time>2025-04-13T19:05:51.892Z</time>
      </trkpt>
      <trkpt lat="46.17334" lon="-0.56144">
        <ele>47.06</ele>
        <time>2025-04-13T19:05:56.420Z</time>
      </trkpt>
      <trkpt lat="46.17344" lon="-0.56177">
        <ele>46.6</ele>
        <time>2025-04-13T19:06:00.954Z</time>
      </trkpt>
      <trkpt lat="46.17353" lon="-0.56211">
        <ele>46</ele>
        <time>2025-04-13T19:06:05.494Z</time>
      </trkpt>
      <trkpt lat="46.17363" lon="-0.56245">
        <ele>45.35</ele>
        <time>2025-04-13T19:06:10.040Z</time>
      </trkpt>
      <trkpt lat="46.17367" lon="-0.5627">
        <ele>44.72</ele>
        <time>2025-04-13T19:06:14.590Z</time>
      </trkpt>
      <trkpt lat="46.17371" lon="-0.56294">
        <ele>44.05</ele>
        <time>2025-04-13T19:06:19.145Z</time>
      </trkpt>
      <trkpt lat="46.17371" lon="-0.56294">
        <ele>43.4</ele>
        <time>2025-04-13T19:06:23.700Z</time>
      </trkpt>
      <trkpt lat="46.17379" lon="-0.56334">
        <ele>42.66</ele>
        <time>2025-04-13T19:06:28.261Z</time>
      </trkpt>
      <trkpt lat="46.17386" lon="-0.56374">
        <ele>41.89</ele>
        <time>2025-04-13T19:06:32.829Z</time>
      </trkpt>
      <trkpt lat="46.17393" lon="-0.56414">
        <ele>41.15</ele>
        <time>2025-04-13T19:06:37.404Z</time>
      </trkpt>
      <trkpt lat="46.174" lon="-0.56453">
        <ele>40.42</ele>
        <time>2025-04-13T19:06:41.985Z</time>
      </trkpt>
      <trkpt lat="46.17407" lon="-0.56493">
        <ele>39.74</ele>
        <time>2025-04-13T19:06:46.573Z</time>
      </trkpt>
      <trkpt lat="46.17414" lon="-0.56532">
        <ele>39</ele>
        <time>2025-04-13T19:06:51.168Z</time>
      </trkpt>
      <trkpt lat="46.17421" lon="-0.5657">
        <ele>38.26</ele>
        <time>2025-04-13T19:06:55.769Z</time>
      </trkpt>
      <trkpt lat="46.17427" lon="-0.56608">
        <ele>37.5</ele>
        <time>2025-04-13T19:07:00.376Z</time>
      </trkpt>
      <trkpt lat="46.17434" lon="-0.56645">
        <ele>36.82</ele>
        <time>2025-04-13T19:07:04.990Z</time>
      </trkpt>
      <trkpt lat="46.1744" lon="-0.56683">
        <ele>36.25</ele>
        <time>2025-04-13T19:07:09.610Z</time>
      </trkpt>
      <trkpt lat="46.17455" lon="-0.5672">
        <ele>35.76</ele>
        <time>2025-04-13T19:07:14.237Z</time>
      </trkpt>
      <trkpt lat="46.17471" lon="-0.56758">
        <ele>35.21</ele>
        <time>2025-04-13T19:07:18.871Z</time>
      </trkpt>
      <trkpt lat="46.17486" lon="-0.56795">
        <ele>34.68</ele>
        <time>2025-04-13T19:07:23.512Z</time>
      </trkpt>
      <trkpt lat="46.17502" lon="-0.56833">
        <ele>34.28</ele>
        <time>2025-04-13T19:07:28.161Z</time>
      </trkpt>
      <trkpt lat="46.17517" lon="-0.56871">
        <ele>33.96</ele>
        <time>2025-04-13T19:07:32.817Z</time>
      </trkpt>
      <trkpt lat="46.17532" lon="-0.56908">
        <ele>33.65</ele>
        <time>2025-04-13T19:07:37.480Z</time>
      </trkpt>
      <trkpt lat="46.17548" lon="-0.56946">
        <ele>33.33</ele>
        <time>2025-04-13T19:07:42.150Z</time>
      </trkpt>
      <trkpt lat="46.17563" lon="-0.56984">
        <ele>33.16</ele>
        <time>2025-04-13T19:07:46.827Z</time>
      </trkpt>
      <trkpt lat="46.17579" lon="-0.57021">
        <ele>32.98</ele>
        <time>2025-04-13T19:07:51.511Z</time>
      </trkpt>
      <trkpt lat="46.17594" lon="-0.57059">
        <ele>32.81</ele>
        <time>2025-04-13T19:07:56.202Z</time>
      </trkpt>
      <trkpt lat="46.17609" lon="-0.57096">
        <ele>32.67</ele>
        <time>2025-04-13T19:08:00.901Z</time>
      </trkpt>
      <trkpt lat="46.17625" lon="-0.57134">
        <ele>32.58</ele>
        <time>2025-04-13T19:08:05.607Z</time>
      </trkpt>
      <trkpt lat="46.1764" lon="-0.57172">
        <ele>32.51</ele>
        <time>2025-04-13T19:08:10.320Z</time>
      </trkpt>
      <trkpt lat="46.17656" lon="-0.57209">
        <ele>32.45</ele>
        <time>2025-04-13T19:08:15.040Z</time>
      </trkpt>
      <trkpt lat="46.17671" lon="-0.57247">
        <ele>32.35</ele>
        <time>2025-04-13T19:08:19.767Z</time>
      </trkpt>
      <trkpt lat="46.17687" lon="-0.57284">
        <ele>32.21</ele>
        <time>2025-04-13T19:08:24.501Z</time>
      </trkpt>
      <trkpt lat="46.17702" lon="-0.57322">
        <ele>32.24</ele>
        <time>2025-04-13T19:08:29.242Z</time>
      </trkpt>
      <trkpt lat="46.17717" lon="-0.57359">
        <ele>32.23</ele>
        <time>2025-04-13T19:08:33.990Z</time>
      </trkpt>
      <trkpt lat="46.17742" lon="-0.57345">
        <ele>32.24</ele>
        <time>2025-04-13T19:08:38.745Z</time>
      </trkpt>
      <trkpt lat="46.17767" lon="-0.57331">
        <ele>32.31</ele>
        <time>2025-04-13T19:08:43.506Z</time>
      </trkpt>
      <trkpt lat="46.17793" lon="-0.57317">
        <ele>32.33</ele>
        <time>2025-04-13T19:08:48.274Z</time>
      </trkpt>
      <trkpt lat="46.1782" lon="-0.57303">
        <ele>32.35</ele>
        <time>2025-04-13T19:08:53.048Z</time>
      </trkpt>
      <trkpt lat="46.17847" lon="-0.57282">
        <ele>32.32</ele>
        <time>2025-04-13T19:08:57.830Z</time>
      </trkpt>
      <trkpt lat="46.17875" lon="-0.57262">
        <ele>32.29</ele>
        <time>2025-04-13T19:09:02.619Z</time>
      </trkpt>
      <trkpt lat="46.17902" lon="-0.57241">
        <ele>32.27</ele>
        <time>2025-04-13T19:09:07.415Z</time>
      </trkpt>
      <trkpt lat="46.1793" lon="-0.5722">
        <ele>32.21</ele>
        <time>2025-04-13T19:09:12.218Z</time>
      </trkpt>
      <trkpt lat="46.17957" lon="-0.572">
        <ele>32.15</ele>
        <time>2025-04-13T19:09:17.029Z</time>
      </trkpt>
      <trkpt lat="46.1797" lon="-0.57184">
        <ele>32.1</ele>
        <time>2025-04-13T19:09:21.844Z</time>
      </trkpt>
      <trkpt lat="46.17983" lon="-0.57168">
        <ele>32.05</ele>
        <time>2025-04-13T19:09:26.663Z</time>
      </trkpt>
      <trkpt lat="46.17991" lon="-0.57146">
        <ele>32.05</ele>
        <time>2025-04-13T19:09:31.486Z</time>
      </trkpt>
      <trkpt lat="46.18" lon="-0.57105">
        <ele>32.16</ele>
        <time>2025-04-13T19:09:36.316Z</time>
      </trkpt>
      <trkpt lat="46.18021" lon="-0.57098">
        <ele>32.31</ele>
        <time>2025-04-13T19:09:41.151Z</time>
      </trkpt>
      <trkpt lat="46.18042" lon="-0.57091">
        <ele>32.55</ele>
        <time>2025-04-13T19:09:45.991Z</time>
      </trkpt>
      <trkpt lat="46.18071" lon="-0.5708">
        <ele>32.96</ele>
        <time>2025-04-13T19:09:50.838Z</time>
      </trkpt>
      <trkpt lat="46.18101" lon="-0.5707">
        <ele>33.42</ele>
        <time>2025-04-13T19:09:55.692Z</time>
      </trkpt>
      <trkpt lat="46.1813" lon="-0.5706">
        <ele>33.85</ele>
        <time>2025-04-13T19:10:00.553Z</time>
      </trkpt>
      <trkpt lat="46.18159" lon="-0.5705">
        <ele>34.25</ele>
        <time>2025-04-13T19:10:05.421Z</time>
      </trkpt>
      <trkpt lat="46.18189" lon="-0.57039">
        <ele>34.76</ele>
        <time>2025-04-13T19:10:10.297Z</time>
      </trkpt>
      <trkpt lat="46.18219" lon="-0.57028">
        <ele>35.31</ele>
        <time>2025-04-13T19:10:15.180Z</time>
      </trkpt>
      <trkpt lat="46.18249" lon="-0.57017">
        <ele>35.91</ele>
        <time>2025-04-13T19:10:20.070Z</time>
      </trkpt>
      <trkpt lat="46.1828" lon="-0.57007">
        <ele>36.54</ele>
        <time>2025-04-13T19:10:24.967Z</time>
      </trkpt>
      <trkpt lat="46.1831" lon="-0.56996">
        <ele>37.16</ele>
        <time>2025-04-13T19:10:29.872Z</time>
      </trkpt>
      <trkpt lat="46.1834" lon="-0.56985">
        <ele>37.75</ele>
        <time>2025-04-13T19:10:34.784Z</time>
      </trkpt>
      <trkpt lat="46.1837" lon="-0.56974">
        <ele>38.39</ele>
        <time>2025-04-13T19:10:39.703Z</time>
      </trkpt>
      <trkpt lat="46.18401" lon="-0.56964">
        <ele>39.09</ele>
        <time>2025-04-13T19:10:44.630Z</time>
      </trkpt>
      <trkpt lat="46.18431" lon="-0.56953">
        <ele>39.78</ele>
        <time>2025-04-13T19:10:49.564Z</time>
      </trkpt>
      <trkpt lat="46.18461" lon="-0.56942">
        <ele>40.52</ele>
        <time>2025-04-13T19:10:54.505Z</time>
      </trkpt>
      <trkpt lat="46.18491" lon="-0.56932">
        <ele>41.26</ele>
        <time>2025-04-13T19:10:59.454Z</time>
      </trkpt>
      <trkpt lat="46.18522" lon="-0.56921">
        <ele>42.02</ele>
        <time>2025-04-13T19:11:04.410Z</time>
      </trkpt>
      <trkpt lat="46.18549" lon="-0.56911">
        <ele>42.81</ele>
        <time>2025-04-13T19:11:09.373Z</time>
      </trkpt>
      <trkpt lat="46.18576" lon="-0.56902">
        <ele>43.47</ele>
        <time>2025-04-13T19:11:14.342Z</time>
      </trkpt>
      <trkpt lat="46.18603" lon="-0.56893">
        <ele>44.08</ele>
        <time>2025-04-13T19:11:19.318Z</time>
      </trkpt>
      <trkpt lat="46.1863" lon="-0.56883">
        <ele>44.72</ele>
        <time>2025-04-13T19:11:24.300Z</time>
      </trkpt>
      <trkpt lat="46.18657" lon="-0.56874">
        <ele>45.39</ele>
        <time>2025-04-13T19:11:29.289Z</time>
      </trkpt>
      <trkpt lat="46.18684" lon="-0.56865">
        <ele>46.05</ele>
        <time>2025-04-13T19:11:34.284Z</time>
      </trkpt>
      <trkpt lat="46.18711" lon="-0.56855">
        <ele>46.73</ele>
        <time>2025-04-13T19:11:39.286Z</time>
      </trkpt>
      <trkpt lat="46.18738" lon="-0.56846">
        <ele>47.43</ele>
        <time>2025-04-13T19:11:44.295Z</time>
      </trkpt>
      <trkpt lat="46.18745" lon="-0.5685">
        <ele>48.02</ele>
        <time>2025-04-13T19:11:49.305Z</time>
      </trkpt>
      <trkpt lat="46.18751" lon="-0.56865">
        <ele>48.56</ele>
        <time>2025-04-13T19:11:54.318Z</time>
      </trkpt>
      <trkpt lat="46.18758" lon="-0.56867">
        <ele>49.12</ele>
        <time>2025-04-13T19:11:59.333Z</time>
      </trkpt>
      <trkpt lat="46.18786" lon="-0.56852">
        <ele>49.71</ele>
        <time>2025-04-13T19:12:04.355Z</time>
      </trkpt>
      <trkpt lat="46.18815" lon="-0.56837">
        <ele>50.27</ele>
        <time>2025-04-13T19:12:09.384Z</time>
      </trkpt>
      <trkpt lat="46.18842" lon="-0.56822">
        <ele>50.79</ele>
        <time>2025-04-13T19:12:14.420Z</time>
      </trkpt>
      <trkpt lat="46.18869" lon="-0.56808">
        <ele>51.3</ele>
        <time>2025-04-13T19:12:19.463Z</time>
      </trkpt>
      <trkpt lat="46.18896" lon="-0.56793">
        <ele>51.81</ele>
        <time>2025-04-13T19:12:24.513Z</time>
      </trkpt>
      <trkpt lat="46.18924" lon="-0.56779">
        <ele>52.25</ele>
        <time>2025-04-13T19:12:29.569Z</time>
      </trkpt>
      <trkpt lat="46.18951" lon="-0.56765">
        <ele>52.6</ele>
        <time>2025-04-13T19:12:34.632Z</time>
      </trkpt>
      <trkpt lat="46.18978" lon="-0.5675">
        <ele>52.92</ele>
        <time>2025-04-13T19:12:39.702Z</time>
      </trkpt>
      <trkpt lat="46.19005" lon="-0.56736">
        <ele>53.18</ele>
        <time>2025-04-13T19:12:44.779Z</time>
      </trkpt>
      <trkpt lat="46.19032" lon="-0.56721">
        <ele>53.41</ele>
        <time>2025-04-13T19:12:49.863Z</time>
      </trkpt>
      <trkpt lat="46.1906" lon="-0.56707">
        <ele>53.66</ele>
        <time>2025-04-13T19:12:54.953Z</time>
      </trkpt>
      <trkpt lat="46.19087" lon="-0.56693">
        <ele>53.85</ele>
        <time>2025-04-13T19:13:00.050Z</time>
      </trkpt>
      <trkpt lat="46.19115" lon="-0.56678">
        <ele>54</ele>
        <time>2025-04-13T19:13:05.154Z</time>
      </trkpt>
      <trkpt lat="46.19142" lon="-0.56664">
        <ele>54.2</ele>
        <time>2025-04-13T19:13:10.265Z</time>
      </trkpt>
      <trkpt lat="46.19169" lon="-0.56649">
        <ele>54.41</ele>
        <time>2025-04-13T19:13:15.383Z</time>
      </trkpt>
      <trkpt lat="46.19197" lon="-0.56635">
        <ele>54.63</ele>
        <time>2025-04-13T19:13:20.508Z</time>
      </trkpt>
      <trkpt lat="46.19224" lon="-0.56621">
        <ele>54.92</ele>
        <time>2025-04-13T19:13:25.640Z</time>
      </trkpt>
      <trkpt lat="46.19252" lon="-0.56606">
        <ele>55.26</ele>
        <time>2025-04-13T19:13:30.779Z</time>
      </trkpt>
      <trkpt lat="46.19279" lon="-0.56592">
        <ele>55.51</ele>
        <time>2025-04-13T19:13:35.924Z</time>
      </trkpt>
      <trkpt lat="46.19307" lon="-0.56577">
        <ele>55.67</ele>
        <time>2025-04-13T19:13:41.076Z</time>
      </trkpt>
      <trkpt lat="46.19311" lon="-0.56569">
        <ele>55.86</ele>
        <time>2025-04-13T19:13:46.230Z</time>
      </trkpt>
      <trkpt lat="46.19311" lon="-0.56558">
        <ele>56.06</ele>
        <time>2025-04-13T19:13:51.386Z</time>
      </trkpt>
      <trkpt lat="46.19297" lon="-0.56519">
        <ele>56.25</ele>
        <time>2025-04-13T19:13:56.549Z</time>
      </trkpt>
      <trkpt lat="46.19283" lon="-0.56481">
        <ele>56.46</ele>
        <time>2025-04-13T19:14:01.719Z</time>
      </trkpt>
      <trkpt lat="46.19269" lon="-0.56442">
        <ele>56.58</ele>
        <time>2025-04-13T19:14:06.896Z</time>
      </trkpt>
      <trkpt lat="46.19254" lon="-0.56403">
        <ele>56.61</ele>
        <time>2025-04-13T19:14:12.080Z</time>
      </trkpt>
      <trkpt lat="46.1924" lon="-0.56365">
        <ele>56.73</ele>
        <time>2025-04-13T19:14:17.272Z</time>
      </trkpt>
      <trkpt lat="46.19231" lon="-0.56332">
        <ele>56.84</ele>
        <time>2025-04-13T19:14:22.469Z</time>
      </trkpt>
      <trkpt lat="46.19221" lon="-0.56298">
        <ele>56.99</ele>
        <time>2025-04-13T19:14:27.672Z</time>
      </trkpt>
      <trkpt lat="46.19211" lon="-0.56265">
        <ele>57.08</ele>
        <time>2025-04-13T19:14:32.881Z</time>
      </trkpt>
      <trkpt lat="46.19202" lon="-0.56232">
        <ele>57.09</ele>
        <time>2025-04-13T19:14:38.096Z</time>
      </trkpt>
      <trkpt lat="46.1923" lon="-0.56217">
        <ele>57.11</ele>
        <time>2025-04-13T19:14:43.318Z</time>
      </trkpt>
      <trkpt lat="46.19258" lon="-0.56202">
        <ele>57.03</ele>
        <time>2025-04-13T19:14:48.547Z</time>
      </trkpt>
      <trkpt lat="46.19286" lon="-0.56187">
        <ele>56.91</ele>
        <time>2025-04-13T19:14:53.783Z</time>
      </trkpt>
      <trkpt lat="46.19314" lon="-0.56172">
        <ele>56.86</ele>
        <time>2025-04-13T19:14:59.026Z</time>
      </trkpt>
      <trkpt lat="46.19342" lon="-0.56157">
        <ele>56.75</ele>
        <time>2025-04-13T19:15:04.276Z</time>
      </trkpt>
      <trkpt lat="46.1937" lon="-0.56142">
        <ele>56.58</ele>
        <time>2025-04-13T19:15:09.533Z</time>
      </trkpt>
      <trkpt lat="46.19398" lon="-0.56127">
        <ele>56.5</ele>
        <time>2025-04-13T19:15:14.797Z</time>
      </trkpt>
      <trkpt lat="46.19426" lon="-0.56112">
        <ele>56.52</ele>
        <time>2025-04-13T19:15:20.068Z</time>
      </trkpt>
      <trkpt lat="46.19454" lon="-0.56097">
        <ele>56.46</ele>
        <time>2025-04-13T19:15:25.347Z</time>
      </trkpt>
      <trkpt lat="46.19482" lon="-0.56082">
        <ele>56.36</ele>
        <time>2025-04-13T19:15:30.633Z</time>
      </trkpt>
      <trkpt lat="46.1951" lon="-0.56067">
        <ele>56.3</ele>
        <time>2025-04-13T19:15:35.926Z</time>
      </trkpt>
      <trkpt lat="46.19539" lon="-0.56052">
        <ele>56.31</ele>
        <time>2025-04-13T19:15:41.226Z</time>
      </trkpt>
      <trkpt lat="46.19532" lon="-0.56015">
        <ele>56.3</ele>
        <time>2025-04-13T19:15:46.532Z</time>
      </trkpt>
      <trkpt lat="46.19526" lon="-0.55978">
        <ele>56.38</ele>
        <time>2025-04-13T19:15:51.844Z</time>
      </trkpt>
      <trkpt lat="46.19519" lon="-0.55941">
        <ele>56.57</ele>
        <time>2025-04-13T19:15:57.162Z</time>
      </trkpt>
      <trkpt lat="46.19513" lon="-0.55904">
        <ele>56.8</ele>
        <time>2025-04-13T19:16:02.487Z</time>
      </trkpt>
      <trkpt lat="46.19506" lon="-0.55867">
        <ele>57.04</ele>
        <time>2025-04-13T19:16:07.818Z</time>
      </trkpt>
      <trkpt lat="46.19526" lon="-0.55864">
        <ele>57.19</ele>
        <time>2025-04-13T19:16:13.153Z</time>
      </trkpt>
      <trkpt lat="46.19545" lon="-0.55861">
        <ele>57.3</ele>
        <time>2025-04-13T19:16:18.493Z</time>
      </trkpt>
      <trkpt lat="46.19575" lon="-0.55856">
        <ele>57.43</ele>
        <time>2025-04-13T19:16:23.840Z</time>
      </trkpt>
      <trkpt lat="46.19606" lon="-0.5585">
        <ele>57.65</ele>
        <time>2025-04-13T19:16:29.194Z</time>
      </trkpt>
      <trkpt lat="46.19636" lon="-0.55845">
        <ele>57.97</ele>
        <time>2025-04-13T19:16:34.556Z</time>
      </trkpt>
      <trkpt lat="46.19667" lon="-0.5584">
        <ele>58.2</ele>
        <time>2025-04-13T19:16:39.925Z</time>
      </trkpt>
      <trkpt lat="46.19697" lon="-0.55835">
        <ele>58.39</ele>
        <time>2025-04-13T19:16:45.301Z</time>
      </trkpt>
      <trkpt lat="46.19712" lon="-0.55825">
        <ele>58.54</ele>
        <time>2025-04-13T19:16:50.681Z</time>
      </trkpt>
      <trkpt lat="46.19727" lon="-0.55816">
        <ele>58.71</ele>
        <time>2025-04-13T19:16:56.065Z</time>
      </trkpt>
      <trkpt lat="46.19748" lon="-0.55794">
        <ele>58.8</ele>
        <time>2025-04-13T19:17:01.455Z</time>
      </trkpt>
      <trkpt lat="46.19768" lon="-0.55773">
        <ele>58.74</ele>
        <time>2025-04-13T19:17:06.851Z</time>
      </trkpt>
      <trkpt lat="46.19777" lon="-0.55756">
        <ele>58.61</ele>
        <time>2025-04-13T19:17:12.250Z</time>
      </trkpt>
      <trkpt lat="46.19781" lon="-0.55756">
        <ele>58.47</ele>
        <time>2025-04-13T19:17:17.650Z</time>
      </trkpt>
      <trkpt lat="46.19789" lon="-0.55791">
        <ele>58.33</ele>
        <time>2025-04-13T19:17:23.056Z</time>
      </trkpt>
      <trkpt lat="46.19796" lon="-0.55827">
        <ele>58.08</ele>
        <time>2025-04-13T19:17:28.468Z</time>
      </trkpt>
      <trkpt lat="46.19805" lon="-0.55866">
        <ele>57.71</ele>
        <time>2025-04-13T19:17:33.887Z</time>
      </trkpt>
      <trkpt lat="46.19813" lon="-0.55906">
        <ele>57.22</ele>
        <time>2025-04-13T19:17:39.313Z</time>
      </trkpt>
      <trkpt lat="46.19821" lon="-0.55945">
        <ele>56.66</ele>
        <time>2025-04-13T19:17:44.746Z</time>
      </trkpt>
      <trkpt lat="46.1983" lon="-0.55984">
        <ele>56.07</ele>
        <time>2025-04-13T19:17:50.185Z</time>
      </trkpt>
      <trkpt lat="46.19838" lon="-0.56024">
        <ele>55.55</ele>
        <time>2025-04-13T19:17:55.631Z</time>
      </trkpt>
      <trkpt lat="46.19846" lon="-0.56063">
        <ele>54.97</ele>
        <time>2025-04-13T19:18:01.084Z</time>
      </trkpt>
      <trkpt lat="46.19855" lon="-0.56103">
        <ele>54.23</ele>
        <time>2025-04-13T19:18:06.543Z</time>
      </trkpt>
      <trkpt lat="46.19863" lon="-0.56142">
        <ele>53.48</ele>
        <time>2025-04-13T19:18:12.009Z</time>
      </trkpt>
      <trkpt lat="46.19871" lon="-0.56181">
        <ele>52.77</ele>
        <time>2025-04-13T19:18:17.482Z</time>
      </trkpt>
      <trkpt lat="46.1988" lon="-0.56218">
        <ele>52.03</ele>
        <time>2025-04-13T19:18:22.961Z</time>
      </trkpt>
      <trkpt lat="46.19889" lon="-0.56256">
        <ele>51.33</ele>
        <time>2025-04-13T19:18:28.447Z</time>
      </trkpt>
      <trkpt lat="46.19898" lon="-0.56293">
        <ele>50.6</ele>
        <time>2025-04-13T19:18:33.939Z</time>
      </trkpt>
      <trkpt lat="46.19907" lon="-0.56331">
        <ele>49.88</ele>
        <time>2025-04-13T19:18:39.438Z</time>
      </trkpt>
      <trkpt lat="46.19916" lon="-0.56369">
        <ele>49.13</ele>
        <time>2025-04-13T19:18:44.943Z</time>
      </trkpt>
      <trkpt lat="46.19925" lon="-0.56406">
        <ele>48.42</ele>
        <time>2025-04-13T19:18:50.455Z</time>
      </trkpt>
      <trkpt lat="46.19933" lon="-0.56445">
        <ele>47.77</ele>
        <time>2025-04-13T19:18:55.973Z</time>
      </trkpt>
      <trkpt lat="46.19941" lon="-0.56485">
        <ele>47.2</ele>
        <time>2025-04-13T19:19:01.498Z</time>
      </trkpt>
      <trkpt lat="46.19949" lon="-0.56524">
        <ele>46.7</ele>
        <time>2025-04-13T19:19:07.030Z</time>
      </trkpt>
      <trkpt lat="46.19957" lon="-0.56564">
        <ele>46.23</ele>
        <time>2025-04-13T19:19:12.569Z</time>
      </trkpt>
      <trkpt lat="46.19965" lon="-0.56603">
        <ele>45.77</ele>
        <time>2025-04-13T19:19:18.114Z</time>
      </trkpt>
      <trkpt lat="46.19974" lon="-0.56642">
        <ele>45.37</ele>
        <time>2025-04-13T19:19:23.666Z</time>
      </trkpt>
      <trkpt lat="46.19982" lon="-0.56682">
        <ele>45.09</ele>
        <time>2025-04-13T19:19:29.225Z</time>
      </trkpt>
      <trkpt lat="46.1999" lon="-0.56721">
        <ele>44.92</ele>
        <time>2025-04-13T19:19:34.791Z</time>
      </trkpt>
      <trkpt lat="46.19998" lon="-0.5676">
        <ele>44.85</ele>
        <time>2025-04-13T19:19:40.363Z</time>
      </trkpt>
      <trkpt lat="46.19998" lon="-0.5676">
        <ele>44.86</ele>
        <time>2025-04-13T19:19:45.935Z</time>
      </trkpt>
      <trkpt lat="46.2002" lon="-0.56743">
        <ele>44.96</ele>
        <time>2025-04-13T19:19:51.513Z</time>
      </trkpt>
      <trkpt lat="46.20041" lon="-0.56726">
        <ele>45.19</ele>
        <time>2025-04-13T19:19:57.097Z</time>
      </trkpt>
      <trkpt lat="46.20058" lon="-0.56713">
        <ele>45.48</ele>
        <time>2025-04-13T19:20:02.685Z</time>
      </trkpt>
      <trkpt lat="46.20084" lon="-0.5669">
        <ele>45.88</ele>
        <time>2025-04-13T19:20:08.280Z</time>
      </trkpt>
      <trkpt lat="46.20109" lon="-0.56667">
        <ele>46.35</ele>
        <time>2025-04-13T19:20:13.882Z</time>
      </trkpt>
      <trkpt lat="46.20135" lon="-0.56644">
        <ele>46.74</ele>
        <time>2025-04-13T19:20:19.492Z</time>
      </trkpt>
      <trkpt lat="46.20161" lon="-0.56622">
        <ele>47.18</ele>
        <time>2025-04-13T19:20:25.109Z</time>
      </trkpt>
      <trkpt lat="46.20187" lon="-0.56599">
        <ele>47.75</ele>
        <time>2025-04-13T19:20:30.733Z</time>
      </trkpt>
      <trkpt lat="46.20209" lon="-0.56572">
        <ele>48.4</ele>
        <time>2025-04-13T19:20:36.364Z</time>
      </trkpt>
      <trkpt lat="46.20231" lon="-0.56545">
        <ele>49.07</ele>
        <time>2025-04-13T19:20:42.001Z</time>
      </trkpt>
      <trkpt lat="46.20253" lon="-0.56517">
        <ele>49.72</ele>
        <time>2025-04-13T19:20:47.645Z</time>
      </trkpt>
      <trkpt lat="46.20277" lon="-0.56488">
        <ele>50.36</ele>
        <time>2025-04-13T19:20:53.297Z</time>
      </trkpt>
      <trkpt lat="46.20301" lon="-0.56459">
        <ele>51.01</ele>
        <time>2025-04-13T19:20:58.956Z</time>
      </trkpt>
      <trkpt lat="46.20325" lon="-0.5643">
        <ele>51.55</ele>
        <time>2025-04-13T19:21:04.622Z</time>
      </trkpt>
      <trkpt lat="46.20349" lon="-0.564">
        <ele>52.05</ele>
        <time>2025-04-13T19:21:10.296Z</time>
      </trkpt>
      <trkpt lat="46.20373" lon="-0.56371">
        <ele>52.53</ele>
        <time>2025-04-13T19:21:15.977Z</time>
      </trkpt>
      <trkpt lat="46.20396" lon="-0.56342">
        <ele>53.01</ele>
        <time>2025-04-13T19:21:21.666Z</time>
      </trkpt>
      <trkpt lat="46.2042" lon="-0.56313">
        <ele>53.41</ele>
        <time>2025-04-13T19:21:27.362Z</time>
      </trkpt>
      <trkpt lat="46.20444" lon="-0.56284">
        <ele>53.81</ele>
        <time>2025-04-13T19:21:33.065Z</time>
      </trkpt>
      <trkpt lat="46.20461" lon="-0.56261">
        <ele>54.12</ele>
        <time>2025-04-13T19:21:38.774Z</time>
      </trkpt>
      <trkpt lat="46.20477" lon="-0.56238">
        <ele>54.31</ele>
        <time>2025-04-13T19:21:44.488Z</time>
      </trkpt>
      <trkpt lat="46.20493" lon="-0.56215">
        <ele>54.45</ele>
        <time>2025-04-13T19:21:50.207Z</time>
      </trkpt>
      <trkpt lat="46.20503" lon="-0.56196">
        <ele>54.59</ele>
        <time>2025-04-13T19:21:55.930Z</time>
      </trkpt>
      <trkpt lat="46.20513" lon="-0.56176">
        <ele>54.71</ele>
        <time>2025-04-13T19:22:01.657Z</time>
      </trkpt>
      <trkpt lat="46.20529" lon="-0.56154">
        <ele>54.79</ele>
        <time>2025-04-13T19:22:07.390Z</time>
      </trkpt>
      <trkpt lat="46.20545" lon="-0.56131">
        <ele>54.87</ele>
        <time>2025-04-13T19:22:13.128Z</time>
      </trkpt>
      <trkpt lat="46.20564" lon="-0.56097">
        <ele>54.96</ele>
        <time>2025-04-13T19:22:18.873Z</time>
      </trkpt>
      <trkpt lat="46.20584" lon="-0.56062">
        <ele>55.03</ele>
        <time>2025-04-13T19:22:24.625Z</time>
      </trkpt>
      <trkpt lat="46.20603" lon="-0.56028">
        <ele>55.02</ele>
        <time>2025-04-13T19:22:30.385Z</time>
      </trkpt>
      <trkpt lat="46.20622" lon="-0.55994">
        <ele>54.98</ele>
        <time>2025-04-13T19:22:36.152Z</time>
      </trkpt>
      <trkpt lat="46.20628" lon="-0.56017">
        <ele>54.97</ele>
        <time>2025-04-13T19:22:41.923Z</time>
      </trkpt>
      <trkpt lat="46.20634" lon="-0.5604">
        <ele>54.99</ele>
        <time>2025-04-13T19:22:47.698Z</time>
      </trkpt>
      <trkpt lat="46.20642" lon="-0.56071">
        <ele>54.97</ele>
        <time>2025-04-13T19:22:53.478Z</time>
      </trkpt>
      <trkpt lat="46.20651" lon="-0.56102">
        <ele>54.9</ele>
        <time>2025-04-13T19:22:59.264Z</time>
      </trkpt>
      <trkpt lat="46.20659" lon="-0.56133">
        <ele>54.79</ele>
        <time>2025-04-13T19:23:05.055Z</time>
      </trkpt>
      <trkpt lat="46.20666" lon="-0.56154">
        <ele>54.72</ele>
        <time>2025-04-13T19:23:10.850Z</time>
      </trkpt>
      <trkpt lat="46.20674" lon="-0.56174">
        <ele>54.71</ele>
        <time>2025-04-13T19:23:16.649Z</time>
      </trkpt>
      <trkpt lat="46.20693" lon="-0.56206">
        <ele>54.74</ele>
        <time>2025-04-13T19:23:22.455Z</time>
      </trkpt>
      <trkpt lat="46.20712" lon="-0.5623">
        <ele>54.68</ele>
        <time>2025-04-13T19:23:28.267Z</time>
      </trkpt>
      <trkpt lat="46.20732" lon="-0.56254">
        <ele>54.62</ele>
        <time>2025-04-13T19:23:34.085Z</time>
      </trkpt>
      <trkpt lat="46.20751" lon="-0.56278">
        <ele>54.54</ele>
        <time>2025-04-13T19:23:39.909Z</time>
      </trkpt>
      <trkpt lat="46.2077" lon="-0.56302">
        <ele>54.39</ele>
        <time>2025-04-13T19:23:45.739Z</time>
      </trkpt>
      <trkpt lat="46.2079" lon="-0.56326">
        <ele>54.39</ele>
        <time>2025-04-13T19:23:51.575Z</time>
      </trkpt>
      <trkpt lat="46.20805" lon="-0.56349">
        <ele>54.38</ele>
        <time>2025-04-13T19:23:57.416Z</time>
      </trkpt>
      <trkpt lat="46.2082" lon="-0.56372">
        <ele>54.33</ele>
        <time>2025-04-13T19:24:03.262Z</time>
      </trkpt>
      <trkpt lat="46.20838" lon="-0.56405">
        <ele>54.24</ele>
        <time>2025-04-13T19:24:09.115Z</time>
      </trkpt>
      <trkpt lat="46.20856" lon="-0.56438">
        <ele>54.21</ele>
        <time>2025-04-13T19:24:14.975Z</time>
      </trkpt>
      <trkpt lat="46.2088" lon="-0.56466">
        <ele>54.13</ele>
        <time>2025-04-13T19:24:20.842Z</time>
      </trkpt>
      <trkpt lat="46.20903" lon="-0.56494">
        <ele>54.08</ele>
        <time>2025-04-13T19:24:26.716Z</time>
      </trkpt>
      <trkpt lat="46.20927" lon="-0.56522">
        <ele>54.06</ele>
        <time>2025-04-13T19:24:32.597Z</time>
      </trkpt>
      <trkpt lat="46.20927" lon="-0.56522">
        <ele>54.04</ele>
        <time>2025-04-13T19:24:38.478Z</time>
      </trkpt>
      <trkpt lat="46.20943" lon="-0.56492">
        <ele>54.05</ele>
        <time>2025-04-13T19:24:44.365Z</time>
      </trkpt>
      <trkpt lat="46.20959" lon="-0.56462">
        <ele>54.08</ele>
        <time>2025-04-13T19:24:50.259Z</time>
      </trkpt>
      <trkpt lat="46.20974" lon="-0.5644">
        <ele>54.07</ele>
        <time>2025-04-13T19:24:56.158Z</time>
      </trkpt>
      <trkpt lat="46.20989" lon="-0.56434">
        <ele>54.05</ele>
        <time>2025-04-13T19:25:02.060Z</time>
      </trkpt>
      <trkpt lat="46.21017" lon="-0.56429">
        <ele>54.04</ele>
        <time>2025-04-13T19:25:07.969Z</time>
      </trkpt>
      <trkpt lat="46.21043" lon="-0.56432">
        <ele>54.06</ele>
        <time>2025-04-13T19:25:13.884Z</time>
      </trkpt>
      <trkpt lat="46.21059" lon="-0.56427">
        <ele>54.07</ele>
        <time>2025-04-13T19:25:19.803Z</time>
      </trkpt>
      <trkpt lat="46.21075" lon="-0.56423">
        <ele>54.06</ele>
        <time>2025-04-13T19:25:25.726Z</time>
      </trkpt>
      <trkpt lat="46.21096" lon="-0.56402">
        <ele>53.97</ele>
        <time>2025-04-13T19:25:31.655Z</time>
      </trkpt>
      <trkpt lat="46.21114" lon="-0.56369">
        <ele>53.85</ele>
        <time>2025-04-13T19:25:37.590Z</time>
      </trkpt>
      <trkpt lat="46.21111" lon="-0.56402">
        <ele>53.79</ele>
        <time>2025-04-13T19:25:43.531Z</time>
      </trkpt>
      <trkpt lat="46.21109" lon="-0.56434">
        <ele>53.72</ele>
        <time>2025-04-13T19:25:49.477Z</time>
      </trkpt>
      <trkpt lat="46.2111" lon="-0.56464">
        <ele>53.59</ele>
        <time>2025-04-13T19:25:55.428Z</time>
      </trkpt>
      <trkpt lat="46.2111" lon="-0.56504">
        <ele>53.51</ele>
        <time>2025-04-13T19:26:01.385Z</time>
      </trkpt>
      <trkpt lat="46.2111" lon="-0.56544">
        <ele>53.37</ele>
        <time>2025-04-13T19:26:07.349Z</time>
      </trkpt>
      <trkpt lat="46.21111" lon="-0.56584">
        <ele>53.25</ele>
        <time>2025-04-13T19:26:13.320Z</time>
      </trkpt>
      <trkpt lat="46.21111" lon="-0.56624">
        <ele>53.11</ele>
        <time>2025-04-13T19:26:19.297Z</time>
      </trkpt>
      <trkpt lat="46.21111" lon="-0.56663">
        <ele>53.02</ele>
        <time>2025-04-13T19:26:25.281Z</time>
      </trkpt>
      <trkpt lat="46.2111" lon="-0.56687">
        <ele>52.95</ele>
        <time>2025-04-13T19:26:31.268Z</time>
      </trkpt>
      <trkpt lat="46.21109" lon="-0.56711">
        <ele>52.91</ele>
        <time>2025-04-13T19:26:37.259Z</time>
      </trkpt>
      <trkpt lat="46.21111" lon="-0.56736">
        <ele>52.88</ele>
        <time>2025-04-13T19:26:43.255Z</time>
      </trkpt>
      <trkpt lat="46.21114" lon="-0.56762">
        <ele>52.82</ele>
        <time>2025-04-13T19:26:49.255Z</time>
      </trkpt>
      <trkpt lat="46.2112" lon="-0.568">
        <ele>52.77</ele>
        <time>2025-04-13T19:26:55.261Z</time>
      </trkpt>
      <trkpt lat="46.21126" lon="-0.56837">
        <ele>52.67</ele>
        <time>2025-04-13T19:27:01.273Z</time>
      </trkpt>
      <trkpt lat="46.21136" lon="-0.56877">
        <ele>52.63</ele>
        <time>2025-04-13T19:27:07.292Z</time>
      </trkpt>
      <trkpt lat="46.21146" lon="-0.56916">
        <ele>52.6</ele>
        <time>2025-04-13T19:27:13.318Z</time>
      </trkpt>
      <trkpt lat="46.21156" lon="-0.56956">
        <ele>52.53</ele>
        <time>2025-04-13T19:27:19.351Z</time>
      </trkpt>
      <trkpt lat="46.21166" lon="-0.56995">
        <ele>52.54</ele>
        <time>2025-04-13T19:27:25.391Z</time>
      </trkpt>
      <trkpt lat="46.21176" lon="-0.57035">
        <ele>52.51</ele>
        <time>2025-04-13T19:27:31.438Z</time>
      </trkpt>
      <trkpt lat="46.21185" lon="-0.57069">
        <ele>52.42</ele>
        <time>2025-04-13T19:27:37.491Z</time>
      </trkpt>
      <trkpt lat="46.21195" lon="-0.57103">
        <ele>52.35</ele>
        <time>2025-04-13T19:27:43.550Z</time>
      </trkpt>
      <trkpt lat="46.21206" lon="-0.5713">
        <ele>52.4</ele>
        <time>2025-04-13T19:27:49.614Z</time>
      </trkpt>
      <trkpt lat="46.21217" lon="-0.57158">
        <ele>52.47</ele>
        <time>2025-04-13T19:27:55.683Z</time>
      </trkpt>
      <trkpt lat="46.21227" lon="-0.57185">
        <ele>52.47</ele>
        <time>2025-04-13T19:28:01.757Z</time>
      </trkpt>
      <trkpt lat="46.21247" lon="-0.57173">
        <ele>52.4</ele>
        <time>2025-04-13T19:28:07.836Z</time>
      </trkpt>
      <trkpt lat="46.21266" lon="-0.57161">
        <ele>52.34</ele>
        <time>2025-04-13T19:28:13.920Z</time>
      </trkpt>
      <trkpt lat="46.21273" lon="-0.57154">
        <ele>52.26</ele>
        <time>2025-04-13T19:28:20.006Z</time>
      </trkpt>
      <trkpt lat="46.2129" lon="-0.57135">
        <ele>52.14</ele>
        <time>2025-04-13T19:28:26.097Z</time>
      </trkpt>
      <trkpt lat="46.2131" lon="-0.57107">
        <ele>51.98</ele>
        <time>2025-04-13T19:28:32.195Z</time>
      </trkpt>
      <trkpt lat="46.21331" lon="-0.5708">
        <ele>51.79</ele>
        <time>2025-04-13T19:28:38.299Z</time>
      </trkpt>
      <trkpt lat="46.21352" lon="-0.57052">
        <ele>51.53</ele>
        <time>2025-04-13T19:28:44.410Z</time>
      </trkpt>
      <trkpt lat="46.21366" lon="-0.57041">
        <ele>51.18</ele>
        <time>2025-04-13T19:28:50.525Z</time>
      </trkpt>
      <trkpt lat="46.2138" lon="-0.5703">
        <ele>50.77</ele>
        <time>2025-04-13T19:28:56.643Z</time>
      </trkpt>
      <trkpt lat="46.21401" lon="-0.57022">
        <ele>50.31</ele>
        <time>2025-04-13T19:29:02.767Z</time>
      </trkpt>
      <trkpt lat="46.21423" lon="-0.57015">
        <ele>49.82</ele>
        <time>2025-04-13T19:29:08.896Z</time>
      </trkpt>
      <trkpt lat="46.21444" lon="-0.57007">
        <ele>49.28</ele>
        <time>2025-04-13T19:29:15.030Z</time>
      </trkpt>
      <trkpt lat="46.21444" lon="-0.57007">
        <ele>48.68</ele>
        <time>2025-04-13T19:29:21.164Z</time>
      </trkpt>
      <trkpt lat="46.21471" lon="-0.56998">
        <ele>48</ele>
        <time>2025-04-13T19:29:27.305Z</time>
      </trkpt>
      <trkpt lat="46.21498" lon="-0.56989">
        <ele>47.25</ele>
        <time>2025-04-13T19:29:33.452Z</time>
      </trkpt>
      <trkpt lat="46.21524" lon="-0.56981">
        <ele>46.38</ele>
        <time>2025-04-13T19:29:39.605Z</time>
      </trkpt>
      <trkpt lat="46.21551" lon="-0.56972">
        <ele>45.48</ele>
        <time>2025-04-13T19:29:45.765Z</time>
      </trkpt>
      <trkpt lat="46.21575" lon="-0.56968">
        <ele>44.47</ele>
        <time>2025-04-13T19:29:51.931Z</time>
      </trkpt>
      <trkpt lat="46.21599" lon="-0.56964">
        <ele>43.44</ele>
        <time>2025-04-13T19:29:58.102Z</time>
      </trkpt>
      <trkpt lat="46.21625" lon="-0.56947">
        <ele>42.29</ele>
        <time>2025-04-13T19:30:04.280Z</time>
      </trkpt>
      <trkpt lat="46.21651" lon="-0.56929">
        <ele>41.1</ele>
        <time>2025-04-13T19:30:10.465Z</time>
      </trkpt>
      <trkpt lat="46.21677" lon="-0.56912">
        <ele>39.84</ele>
        <time>2025-04-13T19:30:16.657Z</time>
      </trkpt>
      <trkpt lat="46.21704" lon="-0.56895">
        <ele>38.53</ele>
        <time>2025-04-13T19:30:22.855Z</time>
      </trkpt>
      <trkpt lat="46.21725" lon="-0.56886">
        <ele>37.22</ele>
        <time>2025-04-13T19:30:29.059Z</time>
      </trkpt>
      <trkpt lat="46.21751" lon="-0.56886">
        <ele>35.92</ele>
        <time>2025-04-13T19:30:35.269Z</time>
      </trkpt>
      <trkpt lat="46.21781" lon="-0.56889">
        <ele>34.68</ele>
        <time>2025-04-13T19:30:41.486Z</time>
      </trkpt>
      <trkpt lat="46.21811" lon="-0.56892">
        <ele>33.38</ele>
        <time>2025-04-13T19:30:47.710Z</time>
      </trkpt>
      <trkpt lat="46.21841" lon="-0.56895">
        <ele>32.06</ele>
        <time>2025-04-13T19:30:53.941Z</time>
      </trkpt>
      <trkpt lat="46.21865" lon="-0.56892">
        <ele>30.83</ele>
        <time>2025-04-13T19:31:00.177Z</time>
      </trkpt>
      <trkpt lat="46.21888" lon="-0.56889">
        <ele>29.68</ele>
        <time>2025-04-13T19:31:06.419Z</time>
      </trkpt>
      <trkpt lat="46.21912" lon="-0.56886">
        <ele>28.6</ele>
        <time>2025-04-13T19:31:12.667Z</time>
      </trkpt>
      <trkpt lat="46.21938" lon="-0.5688">
        <ele>27.71</ele>
        <time>2025-04-13T19:31:18.921Z</time>
      </trkpt>
      <trkpt lat="46.21963" lon="-0.56874">
        <ele>26.88</ele>
        <time>2025-04-13T19:31:25.181Z</time>
      </trkpt>
      <trkpt lat="46.2197" lon="-0.56867">
        <ele>26.15</ele>
        <time>2025-04-13T19:31:31.443Z</time>
      </trkpt>
      <trkpt lat="46.21959" lon="-0.56829">
        <ele>25.52</ele>
        <time>2025-04-13T19:31:37.712Z</time>
      </trkpt>
      <trkpt lat="46.2195" lon="-0.56799">
        <ele>25.03</ele>
        <time>2025-04-13T19:31:43.986Z</time>
      </trkpt>
      <trkpt lat="46.21941" lon="-0.56776">
        <ele>24.64</ele>
        <time>2025-04-13T19:31:50.264Z</time>
      </trkpt>
      <trkpt lat="46.21931" lon="-0.56753">
        <ele>24.35</ele>
        <time>2025-04-13T19:31:56.546Z</time>
      </trkpt>
      <trkpt lat="46.2192" lon="-0.56713">
        <ele>24.14</ele>
        <time>2025-04-13T19:32:02.836Z</time>
      </trkpt>
      <trkpt lat="46.21917" lon="-0.56676">
        <ele>24.02</ele>
        <time>2025-04-13T19:32:09.132Z</time>
      </trkpt>
      <trkpt lat="46.21913" lon="-0.56638">
        <ele>23.88</ele>
        <time>2025-04-13T19:32:15.434Z</time>
      </trkpt>
      <trkpt lat="46.21909" lon="-0.56601">
        <ele>23.95</ele>
        <time>2025-04-13T19:32:21.742Z</time>
      </trkpt>
      <trkpt lat="46.21905" lon="-0.56565">
        <ele>24.1</ele>
        <time>2025-04-13T19:32:28.056Z</time>
      </trkpt>
      <trkpt lat="46.21899" lon="-0.56528">
        <ele>24.42</ele>
        <time>2025-04-13T19:32:34.376Z</time>
      </trkpt>
      <trkpt lat="46.21894" lon="-0.5649">
        <ele>24.85</ele>
        <time>2025-04-13T19:32:40.703Z</time>
      </trkpt>
      <trkpt lat="46.21888" lon="-0.56453">
        <ele>25.37</ele>
        <time>2025-04-13T19:32:47.036Z</time>
      </trkpt>
      <trkpt lat="46.21882" lon="-0.56417">
        <ele>25.99</ele>
        <time>2025-04-13T19:32:53.375Z</time>
      </trkpt>
      <trkpt lat="46.21879" lon="-0.56379">
        <ele>26.56</ele>
        <time>2025-04-13T19:32:59.720Z</time>
      </trkpt>
      <trkpt lat="46.21875" lon="-0.56341">
        <ele>27.19</ele>
        <time>2025-04-13T19:33:06.071Z</time>
      </trkpt>
      <trkpt lat="46.21872" lon="-0.56304">
        <ele>27.88</ele>
        <time>2025-04-13T19:33:12.428Z</time>
      </trkpt>
      <trkpt lat="46.21869" lon="-0.56266">
        <ele>28.59</ele>
        <time>2025-04-13T19:33:18.792Z</time>
      </trkpt>
      <trkpt lat="46.21864" lon="-0.56236">
        <ele>29.32</ele>
        <time>2025-04-13T19:33:25.161Z</time>
      </trkpt>
      <trkpt lat="46.21859" lon="-0.56206">
        <ele>30.08</ele>
        <time>2025-04-13T19:33:31.535Z</time>
      </trkpt>
      <trkpt lat="46.21854" lon="-0.56176">
        <ele>30.88</ele>
        <time>2025-04-13T19:33:37.914Z</time>
      </trkpt>
      <trkpt lat="46.21848" lon="-0.56147">
        <ele>31.63</ele>
        <time>2025-04-13T19:33:44.298Z</time>
      </trkpt>
      <trkpt lat="46.21842" lon="-0.56117">
        <ele>32.39</ele>
        <time>2025-04-13T19:33:50.687Z</time>
      </trkpt>
      <trkpt lat="46.21837" lon="-0.56088">
        <ele>33.2</ele>
        <time>2025-04-13T19:33:57.081Z</time>
      </trkpt>
      <trkpt lat="46.2182" lon="-0.56052">
        <ele>33.99</ele>
        <time>2025-04-13T19:34:03.482Z</time>
      </trkpt>
      <trkpt lat="46.21804" lon="-0.56015">
        <ele>34.72</ele>
        <time>2025-04-13T19:34:09.890Z</time>
      </trkpt>
      <trkpt lat="46.21788" lon="-0.55979">
        <ele>35.49</ele>
        <time>2025-04-13T19:34:16.305Z</time>
      </trkpt>
      <trkpt lat="46.21771" lon="-0.55942">
        <ele>36.23</ele>
        <time>2025-04-13T19:34:22.727Z</time>
      </trkpt>
      <trkpt lat="46.21755" lon="-0.55906">
        <ele>36.78</ele>
        <time>2025-04-13T19:34:29.156Z</time>
      </trkpt>
      <trkpt lat="46.21748" lon="-0.55884">
        <ele>37.29</ele>
        <time>2025-04-13T19:34:35.589Z</time>
      </trkpt>
      <trkpt lat="46.2174" lon="-0.55863">
        <ele>37.73</ele>
        <time>2025-04-13T19:34:42.026Z</time>
      </trkpt>
      <trkpt lat="46.21735" lon="-0.55822">
        <ele>38.06</ele>
        <time>2025-04-13T19:34:48.470Z</time>
      </trkpt>
      <trkpt lat="46.2173" lon="-0.55781">
        <ele>38.23</ele>
        <time>2025-04-13T19:34:54.921Z</time>
      </trkpt>
      <trkpt lat="46.21726" lon="-0.5574">
        <ele>38.38</ele>
        <time>2025-04-13T19:35:01.378Z</time>
      </trkpt>
      <trkpt lat="46.21721" lon="-0.557">
        <ele>38.44</ele>
        <time>2025-04-13T19:35:07.842Z</time>
      </trkpt>
      <trkpt lat="46.21709" lon="-0.55672">
        <ele>38.52</ele>
        <time>2025-04-13T19:35:14.311Z</time>
      </trkpt>
      <trkpt lat="46.21697" lon="-0.55644">
        <ele>38.53</ele>
        <time>2025-04-13T19:35:20.786Z</time>
      </trkpt>
      <trkpt lat="46.21688" lon="-0.5561">
        <ele>38.47</ele>
        <time>2025-04-13T19:35:27.267Z</time>
      </trkpt>
      <trkpt lat="46.21678" lon="-0.55576">
        <ele>38.34</ele>
        <time>2025-04-13T19:35:33.754Z</time>
      </trkpt>
      <trkpt lat="46.21669" lon="-0.55542">
        <ele>38.13</ele>
        <time>2025-04-13T19:35:40.247Z</time>
      </trkpt>
      <trkpt lat="46.21659" lon="-0.55508">
        <ele>37.86</ele>
        <time>2025-04-13T19:35:46.746Z</time>
      </trkpt>
      <trkpt lat="46.2165" lon="-0.55475">
        <ele>37.52</ele>
        <time>2025-04-13T19:35:53.251Z</time>
      </trkpt>
      <trkpt lat="46.21639" lon="-0.55436">
        <ele>37.14</ele>
        <time>2025-04-13T19:35:59.762Z</time>
      </trkpt>
      <trkpt lat="46.21632" lon="-0.55407">
        <ele>36.74</ele>
        <time>2025-04-13T19:36:06.278Z</time>
      </trkpt>
      <trkpt lat="46.21625" lon="-0.55379">
        <ele>36.25</ele>
        <time>2025-04-13T19:36:12.799Z</time>
      </trkpt>
      <trkpt lat="46.21618" lon="-0.5535">
        <ele>35.75</ele>
        <time>2025-04-13T19:36:19.325Z</time>
      </trkpt>
      <trkpt lat="46.2162" lon="-0.55308">
        <ele>35.15</ele>
        <time>2025-04-13T19:36:25.858Z</time>
      </trkpt>
      <trkpt lat="46.21622" lon="-0.55266">
        <ele>34.59</ele>
        <time>2025-04-13T19:36:32.398Z</time>
      </trkpt>
      <trkpt lat="46.21646" lon="-0.55249">
        <ele>34.01</ele>
        <time>2025-04-13T19:36:38.944Z</time>
      </trkpt>
      <trkpt lat="46.21646" lon="-0.55249">
        <ele>33.46</ele>
        <time>2025-04-13T19:36:45.490Z</time>
      </trkpt>
      <trkpt lat="46.21664" lon="-0.55228">
        <ele>32.86</ele>
        <time>2025-04-13T19:36:52.042Z</time>
      </trkpt>
      <trkpt lat="46.21682" lon="-0.55206">
        <ele>32.23</ele>
        <time>2025-04-13T19:36:58.599Z</time>
      </trkpt>
      <trkpt lat="46.21708" lon="-0.55187">
        <ele>31.66</ele>
        <time>2025-04-13T19:37:05.163Z</time>
      </trkpt>
      <trkpt lat="46.21727" lon="-0.55183">
        <ele>31.15</ele>
        <time>2025-04-13T19:37:11.732Z</time>
      </trkpt>
      <trkpt lat="46.21747" lon="-0.55178">
        <ele>30.64</ele>
        <time>2025-04-13T19:37:18.305Z</time>
      </trkpt>
      <trkpt lat="46.21764" lon="-0.55169">
        <ele>30.14</ele>
        <time>2025-04-13T19:37:24.883Z</time>
      </trkpt>
      <trkpt lat="46.21781" lon="-0.55159">
        <ele>29.65</ele>
        <time>2025-04-13T19:37:31.465Z</time>
      </trkpt>
      <trkpt lat="46.218" lon="-0.55145">
        <ele>29.19</ele>
        <time>2025-04-13T19:37:38.052Z</time>
      </trkpt>
      <trkpt lat="46.2182" lon="-0.55131">
        <ele>28.78</ele>
        <time>2025-04-13T19:37:44.644Z</time>
      </trkpt>
      <trkpt lat="46.21822" lon="-0.55121">
        <ele>28.44</ele>
        <time>2025-04-13T19:37:51.238Z</time>
      </trkpt>
      <trkpt lat="46.21839" lon="-0.55126">
        <ele>28.12</ele>
        <time>2025-04-13T19:37:57.836Z</time>
      </trkpt>
      <trkpt lat="46.21856" lon="-0.55131">
        <ele>27.84</ele>
        <time>2025-04-13T19:38:04.438Z</time>
      </trkpt>
      <trkpt lat="46.21885" lon="-0.5514">
        <ele>27.54</ele>
        <time>2025-04-13T19:38:11.047Z</time>
      </trkpt>
      <trkpt lat="46.21914" lon="-0.55148">
        <ele>27.27</ele>
        <time>2025-04-13T19:38:17.663Z</time>
      </trkpt>
      <trkpt lat="46.21931" lon="-0.55151">
        <ele>27.02</ele>
        <time>2025-04-13T19:38:24.283Z</time>
      </trkpt>
      <trkpt lat="46.21948" lon="-0.55149">
        <ele>26.81</ele>
        <time>2025-04-13T19:38:30.907Z</time>
      </trkpt>
      <trkpt lat="46.21965" lon="-0.55148">
        <ele>26.58</ele>
        <time>2025-04-13T19:38:37.535Z</time>
      </trkpt>
      <trkpt lat="46.21989" lon="-0.55146">
        <ele>26.4</ele>
        <time>2025-04-13T19:38:44.169Z</time>
      </trkpt>
      <trkpt lat="46.22008" lon="-0.55151">
        <ele>26.16</ele>
        <time>2025-04-13T19:38:50.807Z</time>
      </trkpt>
      <trkpt lat="46.22013" lon="-0.55138">
        <ele>26.02</ele>
        <time>2025-04-13T19:38:57.448Z</time>
      </trkpt>
      <trkpt lat="46.22021" lon="-0.55127">
        <ele>25.83</ele>
        <time>2025-04-13T19:39:04.091Z</time>
      </trkpt>
      <trkpt lat="46.2204" lon="-0.55118">
        <ele>25.62</ele>
        <time>2025-04-13T19:39:10.739Z</time>
      </trkpt>
      <trkpt lat="46.22069" lon="-0.55105">
        <ele>25.39</ele>
        <time>2025-04-13T19:39:17.394Z</time>
      </trkpt>
      <trkpt lat="46.22098" lon="-0.55091">
        <ele>25.22</ele>
        <time>2025-04-13T19:39:24.057Z</time>
      </trkpt>
      <trkpt lat="46.22127" lon="-0.55078">
        <ele>25.11</ele>
        <time>2025-04-13T19:39:30.727Z</time>
      </trkpt>
      <trkpt lat="46.22156" lon="-0.55065">
        <ele>25.02</ele>
        <time>2025-04-13T19:39:37.404Z</time>
      </trkpt>
      <trkpt lat="46.22186" lon="-0.55055">
        <ele>24.81</ele>
        <time>2025-04-13T19:39:44.088Z</time>
      </trkpt>
      <trkpt lat="46.22215" lon="-0.55046">
        <ele>24.66</ele>
        <time>2025-04-13T19:39:50.779Z</time>
      </trkpt>
      <trkpt lat="46.22244" lon="-0.55037">
        <ele>24.44</ele>
        <time>2025-04-13T19:39:57.477Z</time>
      </trkpt>
      <trkpt lat="46.22274" lon="-0.5503">
        <ele>24.17</ele>
        <time>2025-04-13T19:40:04.182Z</time>
      </trkpt>
      <trkpt lat="46.22304" lon="-0.55024">
        <ele>23.99</ele>
        <time>2025-04-13T19:40:10.894Z</time>
      </trkpt>
      <trkpt lat="46.22334" lon="-0.55018">
        <ele>23.81</ele>
        <time>2025-04-13T19:40:17.614Z</time>
      </trkpt>
      <trkpt lat="46.22364" lon="-0.55011">
        <ele>23.61</ele>
        <time>2025-04-13T19:40:24.341Z</time>
      </trkpt>
      <trkpt lat="46.22395" lon="-0.55005">
        <ele>23.45</ele>
        <time>2025-04-13T19:40:31.075Z</time>
      </trkpt>
      <trkpt lat="46.22422" lon="-0.55">
        <ele>23.29</ele>
        <time>2025-04-13T19:40:37.815Z</time>
      </trkpt>
      <trkpt lat="46.2245" lon="-0.54995">
        <ele>23.14</ele>
        <time>2025-04-13T19:40:44.562Z</time>
      </trkpt>
      <trkpt lat="46.22477" lon="-0.54991">
        <ele>23</ele>
        <time>2025-04-13T19:40:51.315Z</time>
      </trkpt>
      <trkpt lat="46.22505" lon="-0.54986">
        <ele>22.86</ele>
        <time>2025-04-13T19:40:58.075Z</time>
      </trkpt>
      <trkpt lat="46.22532" lon="-0.54981">
        <ele>22.75</ele>
        <time>2025-04-13T19:41:04.841Z</time>
      </trkpt>
      <trkpt lat="46.2256" lon="-0.54977">
        <ele>22.62</ele>
        <time>2025-04-13T19:41:11.614Z</time>
      </trkpt>
      <trkpt lat="46.22586" lon="-0.54979">
        <ele>22.44</ele>
        <time>2025-04-13T19:41:18.393Z</time>
      </trkpt>
      <trkpt lat="46.22598" lon="-0.54987">
        <ele>22.29</ele>
        <time>2025-04-13T19:41:25.175Z</time>
      </trkpt>
      <trkpt lat="46.22613" lon="-0.54998">
        <ele>22.13</ele>
        <time>2025-04-13T19:41:31.961Z</time>
      </trkpt>
      <trkpt lat="46.22635" lon="-0.55025">
        <ele>21.99</ele>
        <time>2025-04-13T19:41:38.754Z</time>
      </trkpt>
      <trkpt lat="46.22656" lon="-0.55051">
        <ele>21.95</ele>
        <time>2025-04-13T19:41:45.554Z</time>
      </trkpt>
      <trkpt lat="46.22677" lon="-0.55077">
        <ele>21.79</ele>
        <time>2025-04-13T19:41:52.360Z</time>
      </trkpt>
      <trkpt lat="46.22689" lon="-0.55093">
        <ele>21.7</ele>
        <time>2025-04-13T19:41:59.170Z</time>
      </trkpt>
      <trkpt lat="46.22701" lon="-0.55108">
        <ele>21.63</ele>
        <time>2025-04-13T19:42:05.984Z</time>
      </trkpt>
      <trkpt lat="46.22712" lon="-0.55142">
        <ele>21.63</ele>
        <time>2025-04-13T19:42:12.804Z</time>
      </trkpt>
      <trkpt lat="46.22716" lon="-0.55183">
        <ele>21.61</ele>
        <time>2025-04-13T19:42:19.631Z</time>
      </trkpt>
      <trkpt lat="46.22721" lon="-0.55224">
        <ele>21.38</ele>
        <time>2025-04-13T19:42:26.464Z</time>
      </trkpt>
      <trkpt lat="46.22725" lon="-0.55265">
        <ele>21.22</ele>
        <time>2025-04-13T19:42:33.304Z</time>
      </trkpt>
      <trkpt lat="46.22729" lon="-0.55305">
        <ele>21.12</ele>
        <time>2025-04-13T19:42:40.151Z</time>
      </trkpt>
      <trkpt lat="46.22736" lon="-0.55337">
        <ele>21.06</ele>
        <time>2025-04-13T19:42:47.003Z</time>
      </trkpt>
      <trkpt lat="46.22744" lon="-0.55361">
        <ele>20.97</ele>
        <time>2025-04-13T19:42:53.860Z</time>
      </trkpt>
      <trkpt lat="46.22757" lon="-0.55376">
        <ele>20.88</ele>
        <time>2025-04-13T19:43:00.721Z</time>
      </trkpt>
      <trkpt lat="46.2277" lon="-0.55384">
        <ele>20.79</ele>
        <time>2025-04-13T19:43:07.585Z</time>
      </trkpt>
      <trkpt lat="46.22795" lon="-0.55382">
        <ele>20.69</ele>
        <time>2025-04-13T19:43:14.455Z</time>
      </trkpt>
      <trkpt lat="46.2282" lon="-0.55379">
        <ele>20.62</ele>
        <time>2025-04-13T19:43:21.331Z</time>
      </trkpt>
      <trkpt lat="46.22845" lon="-0.55376">
        <ele>20.5</ele>
        <time>2025-04-13T19:43:28.213Z</time>
      </trkpt>
      <trkpt lat="46.22852" lon="-0.55382">
        <ele>20.4</ele>
        <time>2025-04-13T19:43:35.096Z</time>
      </trkpt>
      <trkpt lat="46.22857" lon="-0.55418">
        <ele>20.29</ele>
        <time>2025-04-13T19:43:41.985Z</time>
      </trkpt>
      <trkpt lat="46.22862" lon="-0.55454">
        <ele>20.16</ele>
        <time>2025-04-13T19:43:48.880Z</time>
      </trkpt>
      <trkpt lat="46.22867" lon="-0.5549">
        <ele>20.03</ele>
        <time>2025-04-13T19:43:55.781Z</time>
      </trkpt>
      <trkpt lat="46.22895" lon="-0.55498">
        <ele>19.87</ele>
        <time>2025-04-13T19:44:02.689Z</time>
      </trkpt>
      <trkpt lat="46.22914" lon="-0.555">
        <ele>19.77</ele>
        <time>2025-04-13T19:44:09.602Z</time>
      </trkpt>
      <trkpt lat="46.22933" lon="-0.55502">
        <ele>19.68</ele>
        <time>2025-04-13T19:44:16.519Z</time>
      </trkpt>
      <trkpt lat="46.22948" lon="-0.555">
        <ele>19.62</ele>
        <time>2025-04-13T19:44:23.440Z</time>
      </trkpt>
      <trkpt lat="46.22953" lon="-0.55522">
        <ele>19.52</ele>
        <time>2025-04-13T19:44:30.365Z</time>
      </trkpt>
      <trkpt lat="46.22958" lon="-0.55544">
        <ele>19.41</ele>
        <time>2025-04-13T19:44:37.293Z</time>
      </trkpt>
      <trkpt lat="46.22966" lon="-0.55577">
        <ele>19.3</ele>
        <time>2025-04-13T19:44:44.227Z</time>
      </trkpt>
      <trkpt lat="46.22974" lon="-0.55611">
        <ele>19.26</ele>
        <time>2025-04-13T19:44:51.167Z</time>
      </trkpt>
      <trkpt lat="46.22981" lon="-0.55644">
        <ele>19.2</ele>
        <time>2025-04-13T19:44:58.112Z</time>
      </trkpt>
      <trkpt lat="46.22989" lon="-0.55676">
        <ele>19.11</ele>
        <time>2025-04-13T19:45:05.063Z</time>
      </trkpt>
      <trkpt lat="46.22997" lon="-0.55718">
        <ele>19.11</ele>
        <time>2025-04-13T19:45:12.021Z</time>
      </trkpt>
      <trkpt lat="46.23005" lon="-0.55759">
        <ele>19.15</ele>
        <time>2025-04-13T19:45:18.986Z</time>
      </trkpt>
      <trkpt lat="46.23013" lon="-0.55801">
        <ele>19.07</ele>
        <time>2025-04-13T19:45:25.958Z</time>
      </trkpt>
      <trkpt lat="46.23021" lon="-0.55843">
        <ele>18.92</ele>
        <time>2025-04-13T19:45:32.937Z</time>
      </trkpt>
      <trkpt lat="46.23028" lon="-0.55884">
        <ele>18.78</ele>
        <time>2025-04-13T19:45:39.923Z</time>
      </trkpt>
      <trkpt lat="46.23036" lon="-0.55925">
        <ele>18.62</ele>
        <time>2025-04-13T19:45:46.916Z</time>
      </trkpt>
      <trkpt lat="46.23039" lon="-0.55966">
        <ele>18.47</ele>
        <time>2025-04-13T19:45:53.916Z</time>
      </trkpt>
      <trkpt lat="46.23042" lon="-0.56008">
        <ele>18.28</ele>
        <time>2025-04-13T19:46:00.923Z</time>
      </trkpt>
      <trkpt lat="46.23045" lon="-0.56049">
        <ele>18.13</ele>
        <time>2025-04-13T19:46:07.937Z</time>
      </trkpt>
      <trkpt lat="46.23048" lon="-0.5609">
        <ele>18.05</ele>
        <time>2025-04-13T19:46:14.957Z</time>
      </trkpt>
      <trkpt lat="46.23051" lon="-0.56131">
        <ele>18.07</ele>
        <time>2025-04-13T19:46:21.984Z</time>
      </trkpt>
      <trkpt lat="46.23054" lon="-0.56167">
        <ele>18.02</ele>
        <time>2025-04-13T19:46:29.017Z</time>
      </trkpt>
      <trkpt lat="46.23057" lon="-0.56203">
        <ele>18</ele>
        <time>2025-04-13T19:46:36.056Z</time>
      </trkpt>
      <trkpt lat="46.2306" lon="-0.5624">
        <ele>17.93</ele>
        <time>2025-04-13T19:46:43.101Z</time>
      </trkpt>
      <trkpt lat="46.23063" lon="-0.56276">
        <ele>17.9</ele>
        <time>2025-04-13T19:46:50.152Z</time>
      </trkpt>
      <trkpt lat="46.23066" lon="-0.56311">
        <ele>17.85</ele>
        <time>2025-04-13T19:46:57.209Z</time>
      </trkpt>
      <trkpt lat="46.23066" lon="-0.56311">
        <ele>17.8</ele>
        <time>2025-04-13T19:47:04.266Z</time>
      </trkpt>
      <trkpt lat="46.23068" lon="-0.56337">
        <ele>17.7</ele>
        <time>2025-04-13T19:47:11.327Z</time>
      </trkpt>
      <trkpt lat="46.23053" lon="-0.56356">
        <ele>17.63</ele>
        <time>2025-04-13T19:47:18.393Z</time>
      </trkpt>
      <trkpt lat="46.23038" lon="-0.56364">
        <ele>17.57</ele>
        <time>2025-04-13T19:47:25.462Z</time>
      </trkpt>
      <trkpt lat="46.23023" lon="-0.56372">
        <ele>17.54</ele>
        <time>2025-04-13T19:47:32.535Z</time>
      </trkpt>
      <trkpt lat="46.22995" lon="-0.56373">
        <ele>17.53</ele>
        <time>2025-04-13T19:47:39.615Z</time>
      </trkpt>
      <trkpt lat="46.22966" lon="-0.56375">
        <ele>17.6</ele>
        <time>2025-04-13T19:47:46.701Z</time>
      </trkpt>
      <trkpt lat="46.22938" lon="-0.56376">
        <ele>17.64</ele>
        <time>2025-04-13T19:47:53.794Z</time>
      </trkpt>
      <trkpt lat="46.2291" lon="-0.56378">
        <ele>17.66</ele>
        <time>2025-04-13T19:48:00.894Z</time>
      </trkpt>
      <trkpt lat="46.22884" lon="-0.56388">
        <ele>17.68</ele>
        <time>2025-04-13T19:48:08.000Z</time>
      </trkpt>
      <trkpt lat="46.22858" lon="-0.56398">
        <ele>17.65</ele>
        <time>2025-04-13T19:48:15.112Z</time>
      </trkpt>
      <trkpt lat="46.22832" lon="-0.56408">
        <ele>17.66</ele>
        <time>2025-04-13T19:48:22.231Z</time>
      </trkpt>
      <trkpt lat="46.22807" lon="-0.56417">
        <ele>17.77</ele>
        <time>2025-04-13T19:48:29.356Z</time>
      </trkpt>
      <trkpt lat="46.22781" lon="-0.56427">
        <ele>17.81</ele>
        <time>2025-04-13T19:48:36.487Z</time>
      </trkpt>
      <trkpt lat="46.22786" lon="-0.56455">
        <ele>17.78</ele>
        <time>2025-04-13T19:48:43.623Z</time>
      </trkpt>
      <trkpt lat="46.22794" lon="-0.56497">
        <ele>17.81</ele>
        <time>2025-04-13T19:48:50.766Z</time>
      </trkpt>
      <trkpt lat="46.22801" lon="-0.56538">
        <ele>17.86</ele>
        <time>2025-04-13T19:48:57.916Z</time>
      </trkpt>
      <trkpt lat="46.22809" lon="-0.5658">
        <ele>17.81</ele>
        <time>2025-04-13T19:49:05.073Z</time>
      </trkpt>
      <trkpt lat="46.22823" lon="-0.56614">
        <ele>17.8</ele>
        <time>2025-04-13T19:49:12.237Z</time>
      </trkpt>
      <trkpt lat="46.22837" lon="-0.56648">
        <ele>17.82</ele>
        <time>2025-04-13T19:49:19.407Z</time>
      </trkpt>
      <trkpt lat="46.22851" lon="-0.56683">
        <ele>17.87</ele>
        <time>2025-04-13T19:49:26.584Z</time>
      </trkpt>
      <trkpt lat="46.22865" lon="-0.56717">
        <ele>17.78</ele>
        <time>2025-04-13T19:49:33.767Z</time>
      </trkpt>
      <trkpt lat="46.22874" lon="-0.56746">
        <ele>17.7</ele>
        <time>2025-04-13T19:49:40.955Z</time>
      </trkpt>
      <trkpt lat="46.22884" lon="-0.56775">
        <ele>17.64</ele>
        <time>2025-04-13T19:49:48.148Z</time>
      </trkpt>
      <trkpt lat="46.22898" lon="-0.56807">
        <ele>17.64</ele>
        <time>2025-04-13T19:49:55.348Z</time>
      </trkpt>
      <trkpt lat="46.22911" lon="-0.56839">
        <ele>17.65</ele>
        <time>2025-04-13T19:50:02.554Z</time>
      </trkpt>
      <trkpt lat="46.22925" lon="-0.5687">
        <ele>17.68</ele>
        <time>2025-04-13T19:50:09.766Z</time>
      </trkpt>
      <trkpt lat="46.22939" lon="-0.56902">
        <ele>17.66</ele>
        <time>2025-04-13T19:50:16.984Z</time>
      </trkpt>
      <trkpt lat="46.22953" lon="-0.56934">
        <ele>17.6</ele>
        <time>2025-04-13T19:50:24.208Z</time>
      </trkpt>
      <trkpt lat="46.22963" lon="-0.56974">
        <ele>17.48</ele>
        <time>2025-04-13T19:50:31.439Z</time>
      </trkpt>
      <trkpt lat="46.22974" lon="-0.56994">
        <ele>17.47</ele>
        <time>2025-04-13T19:50:38.674Z</time>
      </trkpt>
      <trkpt lat="46.22976" lon="-0.56998">
        <ele>17.46</ele>
        <time>2025-04-13T19:50:45.910Z</time>
      </trkpt>
      <trkpt lat="46.22981" lon="-0.57039">
        <ele>17.43</ele>
        <time>2025-04-13T19:50:53.153Z</time>
      </trkpt>
      <trkpt lat="46.22987" lon="-0.5708">
        <ele>17.44</ele>
        <time>2025-04-13T19:51:00.403Z</time>
      </trkpt>
      <trkpt lat="46.22993" lon="-0.57097">
        <ele>17.48</ele>
        <time>2025-04-13T19:51:07.656Z</time>
      </trkpt>
      <trkpt lat="46.22998" lon="-0.57103">
        <ele>17.55</ele>
        <time>2025-04-13T19:51:14.910Z</time>
      </trkpt>
      <trkpt lat="46.23013" lon="-0.57114">
        <ele>17.58</ele>
        <time>2025-04-13T19:51:22.168Z</time>
      </trkpt>
      <trkpt lat="46.23023" lon="-0.57114">
        <ele>17.64</ele>
        <time>2025-04-13T19:51:29.429Z</time>
      </trkpt>
      <trkpt lat="46.23044" lon="-0.5708">
        <ele>17.79</ele>
        <time>2025-04-13T19:51:36.697Z</time>
      </trkpt>
      <trkpt lat="46.23065" lon="-0.57047">
        <ele>17.95</ele>
        <time>2025-04-13T19:51:43.972Z</time>
      </trkpt>
      <trkpt lat="46.23086" lon="-0.57013">
        <ele>18.07</ele>
        <time>2025-04-13T19:51:51.255Z</time>
      </trkpt>
      <trkpt lat="46.23107" lon="-0.56979">
        <ele>18.16</ele>
        <time>2025-04-13T19:51:58.545Z</time>
      </trkpt>
      <trkpt lat="46.23127" lon="-0.56946">
        <ele>18.21</ele>
        <time>2025-04-13T19:52:05.843Z</time>
      </trkpt>
      <trkpt lat="46.23148" lon="-0.56912">
        <ele>18.27</ele>
        <time>2025-04-13T19:52:13.148Z</time>
      </trkpt>
      <trkpt lat="46.23169" lon="-0.56878">
        <ele>18.38</ele>
        <time>2025-04-13T19:52:20.460Z</time>
      </trkpt>
      <trkpt lat="46.23189" lon="-0.56848">
        <ele>18.49</ele>
        <time>2025-04-13T19:52:27.779Z</time>
      </trkpt>
      <trkpt lat="46.2321" lon="-0.56817">
        <ele>18.63</ele>
        <time>2025-04-13T19:52:35.105Z</time>
      </trkpt>
      <trkpt lat="46.2323" lon="-0.56787">
        <ele>18.67</ele>
        <time>2025-04-13T19:52:42.438Z</time>
      </trkpt>
      <trkpt lat="46.2325" lon="-0.56757">
        <ele>18.71</ele>
        <time>2025-04-13T19:52:49.778Z</time>
      </trkpt>
      <trkpt lat="46.2327" lon="-0.56726">
        <ele>18.77</ele>
        <time>2025-04-13T19:52:57.125Z</time>
      </trkpt>
      <trkpt lat="46.2329" lon="-0.56696">
        <ele>18.7</ele>
        <time>2025-04-13T19:53:04.479Z</time>
      </trkpt>
      <trkpt lat="46.2331" lon="-0.56666">
        <ele>18.64</ele>
        <time>2025-04-13T19:53:11.839Z</time>
      </trkpt>
      <trkpt lat="46.2333" lon="-0.56635">
        <ele>18.66</ele>
        <time>2025-04-13T19:53:19.206Z</time>
      </trkpt>
      <trkpt lat="46.23352" lon="-0.56612">
        <ele>18.73</ele>
        <time>2025-04-13T19:53:26.580Z</time>
      </trkpt>
      <trkpt lat="46.23363" lon="-0.56586">
        <ele>18.71</ele>
        <time>2025-04-13T19:53:33.959Z</time>
      </trkpt>
      <trkpt lat="46.23375" lon="-0.5656">
        <ele>18.69</ele>
        <time>2025-04-13T19:53:41.343Z</time>
      </trkpt>
      <trkpt lat="46.23386" lon="-0.56535">
        <ele>18.61</ele>
        <time>2025-04-13T19:53:48.732Z</time>
      </trkpt>
      <trkpt lat="46.23392" lon="-0.56511">
        <ele>18.49</ele>
        <time>2025-04-13T19:53:56.125Z</time>
      </trkpt>
      <trkpt lat="46.2339" lon="-0.56474">
        <ele>18.31</ele>
        <time>2025-04-13T19:54:03.524Z</time>
      </trkpt>
      <trkpt lat="46.23387" lon="-0.56438">
        <ele>18.1</ele>
        <time>2025-04-13T19:54:10.929Z</time>
      </trkpt>
      <trkpt lat="46.23384" lon="-0.56402">
        <ele>17.94</ele>
        <time>2025-04-13T19:54:18.340Z</time>
      </trkpt>
      <trkpt lat="46.23384" lon="-0.56389">
        <ele>17.86</ele>
        <time>2025-04-13T19:54:25.753Z</time>
      </trkpt>
      <trkpt lat="46.23384" lon="-0.56389">
        <ele>17.79</ele>
        <time>2025-04-13T19:54:33.166Z</time>
      </trkpt>
      <trkpt lat="46.23381" lon="-0.56354">
        <ele>17.79</ele>
        <time>2025-04-13T19:54:40.584Z</time>
      </trkpt>
      <trkpt lat="46.23379" lon="-0.56319">
        <ele>17.75</ele>
        <time>2025-04-13T19:54:48.008Z</time>
      </trkpt>
      <trkpt lat="46.23376" lon="-0.56285">
        <ele>17.73</ele>
        <time>2025-04-13T19:54:55.438Z</time>
      </trkpt>
      <trkpt lat="46.23374" lon="-0.56249">
        <ele>17.72</ele>
        <time>2025-04-13T19:55:02.874Z</time>
      </trkpt>
      <trkpt lat="46.23371" lon="-0.56213">
        <ele>17.74</ele>
        <time>2025-04-13T19:55:10.316Z</time>
      </trkpt>
      <trkpt lat="46.2337" lon="-0.56169">
        <ele>17.79</ele>
        <time>2025-04-13T19:55:17.765Z</time>
      </trkpt>
      <trkpt lat="46.23368" lon="-0.56126">
        <ele>17.84</ele>
        <time>2025-04-13T19:55:25.221Z</time>
      </trkpt>
      <trkpt lat="46.23367" lon="-0.56083">
        <ele>17.91</ele>
        <time>2025-04-13T19:55:32.684Z</time>
      </trkpt>
      <trkpt lat="46.23366" lon="-0.5604">
        <ele>17.99</ele>
        <time>2025-04-13T19:55:40.154Z</time>
      </trkpt>
      <trkpt lat="46.23364" lon="-0.55997">
        <ele>18.04</ele>
        <time>2025-04-13T19:55:47.631Z</time>
      </trkpt>
      <trkpt lat="46.23363" lon="-0.55953">
        <ele>18.11</ele>
        <time>2025-04-13T19:55:55.115Z</time>
      </trkpt>
      <trkpt lat="46.23362" lon="-0.5591">
        <ele>18.36</ele>
        <time>2025-04-13T19:56:02.606Z</time>
      </trkpt>
      <trkpt lat="46.23361" lon="-0.55867">
        <ele>18.6</ele>
        <time>2025-04-13T19:56:10.104Z</time>
      </trkpt>
      <trkpt lat="46.23359" lon="-0.55824">
        <ele>18.76</ele>
        <time>2025-04-13T19:56:17.609Z</time>
      </trkpt>
      <trkpt lat="46.23358" lon="-0.55781">
        <ele>18.89</ele>
        <time>2025-04-13T19:56:25.121Z</time>
      </trkpt>
      <trkpt lat="46.23357" lon="-0.55749">
        <ele>18.85</ele>
        <time>2025-04-13T19:56:32.638Z</time>
      </trkpt>
      <trkpt lat="46.23355" lon="-0.55717">
        <ele>18.8</ele>
        <time>2025-04-13T19:56:40.161Z</time>
      </trkpt>
      <trkpt lat="46.23354" lon="-0.55685">
        <ele>18.83</ele>
        <time>2025-04-13T19:56:47.689Z</time>
      </trkpt>
      <trkpt lat="46.23356" lon="-0.55642">
        <ele>18.9</ele>
        <time>2025-04-13T19:56:55.224Z</time>
      </trkpt>
      <trkpt lat="46.23358" lon="-0.556">
        <ele>18.95</ele>
        <time>2025-04-13T19:57:02.766Z</time>
      </trkpt>
      <trkpt lat="46.2336" lon="-0.55557">
        <ele>18.99</ele>
        <time>2025-04-13T19:57:10.315Z</time>
      </trkpt>
      <trkpt lat="46.23362" lon="-0.55515">
        <ele>19.11</ele>
        <time>2025-04-13T19:57:17.871Z</time>
      </trkpt>
      <trkpt lat="46.23367" lon="-0.55475">
        <ele>19.29</ele>
        <time>2025-04-13T19:57:25.433Z</time>
      </trkpt>
      <trkpt lat="46.23371" lon="-0.55435">
        <ele>19.38</ele>
        <time>2025-04-13T19:57:33.002Z</time>
      </trkpt>
      <trkpt lat="46.23375" lon="-0.55395">
        <ele>19.46</ele>
        <time>2025-04-13T19:57:40.578Z</time>
      </trkpt>
      <trkpt lat="46.23377" lon="-0.55355">
        <ele>19.52</ele>
        <time>2025-04-13T19:57:48.160Z</time>
      </trkpt>
      <trkpt lat="46.2338" lon="-0.55315">
        <ele>19.59</ele>
        <time>2025-04-13T19:57:55.749Z</time>
      </trkpt>
      <trkpt lat="46.23382" lon="-0.55274">
        <ele>19.72</ele>
        <time>2025-04-13T19:58:03.344Z</time>
      </trkpt>
      <trkpt lat="46.23384" lon="-0.55234">
        <ele>19.81</ele>
        <time>2025-04-13T19:58:10.946Z</time>
      </trkpt>
      <trkpt lat="46.23382" lon="-0.55226">
        <ele>19.87</ele>
        <time>2025-04-13T19:58:18.549Z</time>
      </trkpt>
      <trkpt lat="46.23377" lon="-0.55224">
        <ele>19.9</ele>
        <time>2025-04-13T19:58:26.154Z</time>
      </trkpt>
      <trkpt lat="46.23348" lon="-0.55228">
        <ele>19.9</ele>
        <time>2025-04-13T19:58:33.766Z</time>
      </trkpt>
      <trkpt lat="46.23318" lon="-0.55232">
        <ele>19.85</ele>
        <time>2025-04-13T19:58:41.385Z</time>
      </trkpt>
      <trkpt lat="46.23288" lon="-0.55236">
        <ele>19.84</ele>
        <time>2025-04-13T19:58:49.011Z</time>
      </trkpt>
      <trkpt lat="46.23259" lon="-0.55241">
        <ele>19.87</ele>
        <time>2025-04-13T19:58:56.644Z</time>
      </trkpt>
      <trkpt lat="46.23229" lon="-0.55245">
        <ele>19.8</ele>
        <time>2025-04-13T19:59:04.284Z</time>
      </trkpt>
      <trkpt lat="46.23199" lon="-0.55249">
        <ele>19.74</ele>
        <time>2025-04-13T19:59:11.931Z</time>
      </trkpt>
      <trkpt lat="46.23195" lon="-0.55245">
        <ele>19.68</ele>
        <time>2025-04-13T19:59:19.579Z</time>
      </trkpt>
      <trkpt lat="46.23192" lon="-0.552">
        <ele>19.59</ele>
        <time>2025-04-13T19:59:27.234Z</time>
      </trkpt>
      <trkpt lat="46.23189" lon="-0.55155">
        <ele>19.47</ele>
        <time>2025-04-13T19:59:34.897Z</time>
      </trkpt>
      <trkpt lat="46.23182" lon="-0.5514">
        <ele>19.44</ele>
        <time>2025-04-13T19:59:42.563Z</time>
      </trkpt>
      <trkpt lat="46.23174" lon="-0.55136">
        <ele>19.41</ele>
        <time>2025-04-13T19:59:50.231Z</time>
      </trkpt>
      <trkpt lat="46.23156" lon="-0.55141">
        <ele>19.4</ele>
        <time>2025-04-13T19:59:57.903Z</time>
      </trkpt>
      <trkpt lat="46.23139" lon="-0.55146">
        <ele>19.32</ele>
        <time>2025-04-13T20:00:05.579Z</time>
      </trkpt>
      <trkpt lat="46.23116" lon="-0.55125">
        <ele>19.33</ele>
        <time>2025-04-13T20:00:13.262Z</time>
      </trkpt>
      <trkpt lat="46.23103" lon="-0.55109">
        <ele>19.31</ele>
        <time>2025-04-13T20:00:20.949Z</time>
      </trkpt>
      <trkpt lat="46.2309" lon="-0.55093">
        <ele>19.31</ele>
        <time>2025-04-13T20:00:28.640Z</time>
      </trkpt>
      <trkpt lat="46.23077" lon="-0.55083">
        <ele>19.26</ele>
        <time>2025-04-13T20:00:36.334Z</time>
      </trkpt>
      <trkpt lat="46.23066" lon="-0.55075">
        <ele>19.26</ele>
        <time>2025-04-13T20:00:44.031Z</time>
      </trkpt>
      <trkpt lat="46.23043" lon="-0.55073">
        <ele>19.23</ele>
        <time>2025-04-13T20:00:51.733Z</time>
      </trkpt>
      <trkpt lat="46.23022" lon="-0.55083">
        <ele>19.26</ele>
        <time>2025-04-13T20:00:59.441Z</time>
      </trkpt>
      <trkpt lat="46.23001" lon="-0.55093">
        <ele>19.3</ele>
        <time>2025-04-13T20:01:07.154Z</time>
      </trkpt>
      <trkpt lat="46.2298" lon="-0.55103">
        <ele>19.27</ele>
        <time>2025-04-13T20:01:14.872Z</time>
      </trkpt>
      <trkpt lat="46.22955" lon="-0.55119">
        <ele>19.17</ele>
        <time>2025-04-13T20:01:22.596Z</time>
      </trkpt>
      <trkpt lat="46.22929" lon="-0.55136">
        <ele>19.1</ele>
        <time>2025-04-13T20:01:30.327Z</time>
      </trkpt>
      <trkpt lat="46.22901" lon="-0.55148">
        <ele>19.12</ele>
        <time>2025-04-13T20:01:38.065Z</time>
      </trkpt>
      <trkpt lat="46.22873" lon="-0.55161">
        <ele>19.12</ele>
        <time>2025-04-13T20:01:45.810Z</time>
      </trkpt>
      <trkpt lat="46.22845" lon="-0.55174">
        <ele>19.1</ele>
        <time>2025-04-13T20:01:53.562Z</time>
      </trkpt>
      <trkpt lat="46.22852" lon="-0.55153">
        <ele>19.09</ele>
        <time>2025-04-13T20:02:01.317Z</time>
      </trkpt>
      <trkpt lat="46.22858" lon="-0.55132">
        <ele>19.1</ele>
        <time>2025-04-13T20:02:09.076Z</time>
      </trkpt>
      <trkpt lat="46.22858" lon="-0.55132">
        <ele>19.1</ele>
        <time>2025-04-13T20:02:16.835Z</time>
      </trkpt>
      <trkpt lat="46.22865" lon="-0.55112">
        <ele>19.12</ele>
        <time>2025-04-13T20:02:24.598Z</time>
      </trkpt>
      <trkpt lat="46.22868" lon="-0.55075">
        <ele>19.11</ele>
        <time>2025-04-13T20:02:32.367Z</time>
      </trkpt>
      <trkpt lat="46.22872" lon="-0.55037">
        <ele>19.12</ele>
        <time>2025-04-13T20:02:40.142Z</time>
      </trkpt>
      <trkpt lat="46.22875" lon="-0.55">
        <ele>19.2</ele>
        <time>2025-04-13T20:02:47.923Z</time>
      </trkpt>
      <trkpt lat="46.22888" lon="-0.5499">
        <ele>19.23</ele>
        <time>2025-04-13T20:02:55.708Z</time>
      </trkpt>
      <trkpt lat="46.22909" lon="-0.54979">
        <ele>19.25</ele>
        <time>2025-04-13T20:03:03.498Z</time>
      </trkpt>
      <trkpt lat="46.22929" lon="-0.54968">
        <ele>19.32</ele>
        <time>2025-04-13T20:03:11.293Z</time>
      </trkpt>
      <trkpt lat="46.22935" lon="-0.54957">
        <ele>19.37</ele>
        <time>2025-04-13T20:03:19.090Z</time>
      </trkpt>
      <trkpt lat="46.22937" lon="-0.54912">
        <ele>19.41</ele>
        <time>2025-04-13T20:03:26.895Z</time>
      </trkpt>
      <trkpt lat="46.22946" lon="-0.54902">
        <ele>19.46</ele>
        <time>2025-04-13T20:03:34.702Z</time>
      </trkpt>
      <trkpt lat="46.22975" lon="-0.54884">
        <ele>19.46</ele>
        <time>2025-04-13T20:03:42.517Z</time>
      </trkpt>
      <trkpt lat="46.23004" lon="-0.54867">
        <ele>19.42</ele>
        <time>2025-04-13T20:03:50.339Z</time>
      </trkpt>
      <trkpt lat="46.22997" lon="-0.54835">
        <ele>19.47</ele>
        <time>2025-04-13T20:03:58.167Z</time>
      </trkpt>
      <trkpt lat="46.2299" lon="-0.54802">
        <ele>19.57</ele>
        <time>2025-04-13T20:04:06.000Z</time>
      </trkpt>
      <trkpt lat="46.22983" lon="-0.54769">
        <ele>19.71</ele>
        <time>2025-04-13T20:04:13.839Z</time>
      </trkpt>
      <trkpt lat="46.22976" lon="-0.54737">
        <ele>19.88</ele>
        <time>2025-04-13T20:04:21.683Z</time>
      </trkpt>
      <trkpt lat="46.22967" lon="-0.54698">
        <ele>20.04</ele>
        <time>2025-04-13T20:04:29.534Z</time>
      </trkpt>
      <trkpt lat="46.22959" lon="-0.54658">
        <ele>20.2</ele>
        <time>2025-04-13T20:04:37.392Z</time>
      </trkpt>
      <trkpt lat="46.2295" lon="-0.54619">
        <ele>20.5</ele>
        <time>2025-04-13T20:04:45.257Z</time>
      </trkpt>
      <trkpt lat="46.22942" lon="-0.5458">
        <ele>20.79</ele>
        <time>2025-04-13T20:04:53.128Z</time>
      </trkpt>
      <trkpt lat="46.22933" lon="-0.54541">
        <ele>20.95</ele>
        <time>2025-04-13T20:05:01.006Z</time>
      </trkpt>
      <trkpt lat="46.22931" lon="-0.54537">
        <ele>21.15</ele>
        <time>2025-04-13T20:05:08.885Z</time>
      </trkpt>
      <trkpt lat="46.22909" lon="-0.54538">
        <ele>21.32</ele>
        <time>2025-04-13T20:05:16.769Z</time>
      </trkpt>
      <trkpt lat="46.22886" lon="-0.54539">
        <ele>21.54</ele>
        <time>2025-04-13T20:05:24.658Z</time>
      </trkpt>
      <trkpt lat="46.22875" lon="-0.54526">
        <ele>21.79</ele>
        <time>2025-04-13T20:05:32.551Z</time>
      </trkpt>
      <trkpt lat="46.2287" lon="-0.54493">
        <ele>22.06</ele>
        <time>2025-04-13T20:05:40.449Z</time>
      </trkpt>
      <trkpt lat="46.22865" lon="-0.5446">
        <ele>22.31</ele>
        <time>2025-04-13T20:05:48.353Z</time>
      </trkpt>
      <trkpt lat="46.2286" lon="-0.54427">
        <ele>22.52</ele>
        <time>2025-04-13T20:05:56.262Z</time>
      </trkpt>
      <trkpt lat="46.22858" lon="-0.54387">
        <ele>22.72</ele>
        <time>2025-04-13T20:06:04.178Z</time>
      </trkpt>
      <trkpt lat="46.22856" lon="-0.54347">
        <ele>22.98</ele>
        <time>2025-04-13T20:06:12.100Z</time>
      </trkpt>
      <trkpt lat="46.22854" lon="-0.54307">
        <ele>23.22</ele>
        <time>2025-04-13T20:06:20.029Z</time>
      </trkpt>
      <trkpt lat="46.22843" lon="-0.54294">
        <ele>23.32</ele>
        <time>2025-04-13T20:06:27.961Z</time>
      </trkpt>
      <trkpt lat="46.22819" lon="-0.54299">
        <ele>23.4</ele>
        <time>2025-04-13T20:06:35.899Z</time>
      </trkpt>
      <trkpt lat="46.22811" lon="-0.54297">
        <ele>23.43</ele>
        <time>2025-04-13T20:06:43.839Z</time>
      </trkpt>
      <trkpt lat="46.22807" lon="-0.54288">
        <ele>23.43</ele>
        <time>2025-04-13T20:06:51.781Z</time>
      </trkpt>
      <trkpt lat="46.22808" lon="-0.54256">
        <ele>23.38</ele>
        <time>2025-04-13T20:06:59.728Z</time>
      </trkpt>
      <trkpt lat="46.22809" lon="-0.54224">
        <ele>23.24</ele>
        <time>2025-04-13T20:07:07.680Z</time>
      </trkpt>
      <trkpt lat="46.22838" lon="-0.54207">
        <ele>23.1</ele>
        <time>2025-04-13T20:07:15.639Z</time>
      </trkpt>
      <trkpt lat="46.22843" lon="-0.54204">
        <ele>22.98</ele>
        <time>2025-04-13T20:07:23.600Z</time>
      </trkpt>
      <trkpt lat="46.22857" lon="-0.54191">
        <ele>22.84</ele>
        <time>2025-04-13T20:07:31.565Z</time>
      </trkpt>
      <trkpt lat="46.22871" lon="-0.54179">
        <ele>22.71</ele>
        <time>2025-04-13T20:07:39.534Z</time>
      </trkpt>
      <trkpt lat="46.22886" lon="-0.54162">
        <ele>22.54</ele>
        <time>2025-04-13T20:07:47.507Z</time>
      </trkpt>
      <trkpt lat="46.22901" lon="-0.54146">
        <ele>22.31</ele>
        <time>2025-04-13T20:07:55.484Z</time>
      </trkpt>
      <trkpt lat="46.22921" lon="-0.54118">
        <ele>22.07</ele>
        <time>2025-04-13T20:08:03.468Z</time>
      </trkpt>
      <trkpt lat="46.22942" lon="-0.54091">
        <ele>21.84</ele>
        <time>2025-04-13T20:08:11.459Z</time>
      </trkpt>
      <trkpt lat="46.22957" lon="-0.54076">
        <ele>21.62</ele>
        <time>2025-04-13T20:08:19.454Z</time>
      </trkpt>
      <trkpt lat="46.22972" lon="-0.54061">
        <ele>21.4</ele>
        <time>2025-04-13T20:08:27.453Z</time>
      </trkpt>
      <trkpt lat="46.2299" lon="-0.54042">
        <ele>21.2</ele>
        <time>2025-04-13T20:08:35.457Z</time>
      </trkpt>
      <trkpt lat="46.23008" lon="-0.54023">
        <ele>21.1</ele>
        <time>2025-04-13T20:08:43.467Z</time>
      </trkpt>
      <trkpt lat="46.23025" lon="-0.54005">
        <ele>21.01</ele>
        <time>2025-04-13T20:08:51.482Z</time>
      </trkpt>
      <trkpt lat="46.23048" lon="-0.53981">
        <ele>20.99</ele>
        <time>2025-04-13T20:08:59.503Z</time>
      </trkpt>
      <trkpt lat="46.23071" lon="-0.53958">
        <ele>20.97</ele>
        <time>2025-04-13T20:09:07.531Z</time>
      </trkpt>
      <trkpt lat="46.23081" lon="-0.53949">
        <ele>20.99</ele>
        <time>2025-04-13T20:09:15.562Z</time>
      </trkpt>
      <trkpt lat="46.23105" lon="-0.53923">
        <ele>21.05</ele>
        <time>2025-04-13T20:09:23.600Z</time>
      </trkpt>
      <trkpt lat="46.23118" lon="-0.53906">
        <ele>21.14</ele>
        <time>2025-04-13T20:09:31.642Z</time>
      </trkpt>
      <trkpt lat="46.23131" lon="-0.53889">
        <ele>21.26</ele>
        <time>2025-04-13T20:09:39.688Z</time>
      </trkpt>
      <trkpt lat="46.23139" lon="-0.53861">
        <ele>21.44</ele>
        <time>2025-04-13T20:09:47.739Z</time>
      </trkpt>
      <trkpt lat="46.23146" lon="-0.53825">
        <ele>21.68</ele>
        <time>2025-04-13T20:09:55.796Z</time>
      </trkpt>
      <trkpt lat="46.23152" lon="-0.53789">
        <ele>21.95</ele>
        <time>2025-04-13T20:10:03.859Z</time>
      </trkpt>
      <trkpt lat="46.23159" lon="-0.53754">
        <ele>22.29</ele>
        <time>2025-04-13T20:10:11.928Z</time>
      </trkpt>
      <trkpt lat="46.23171" lon="-0.53732">
        <ele>22.56</ele>
        <time>2025-04-13T20:10:20.002Z</time>
      </trkpt>
      <trkpt lat="46.23186" lon="-0.53721">
        <ele>22.88</ele>
        <time>2025-04-13T20:10:28.080Z</time>
      </trkpt>
      <trkpt lat="46.23193" lon="-0.53719">
        <ele>23.2</ele>
        <time>2025-04-13T20:10:36.159Z</time>
      </trkpt>
      <trkpt lat="46.23195" lon="-0.53719">
        <ele>23.54</ele>
        <time>2025-04-13T20:10:44.239Z</time>
      </trkpt>
      <trkpt lat="46.23192" lon="-0.53696">
        <ele>23.85</ele>
        <time>2025-04-13T20:10:52.323Z</time>
      </trkpt>
      <trkpt lat="46.23189" lon="-0.53672">
        <ele>24.23</ele>
        <time>2025-04-13T20:11:00.411Z</time>
      </trkpt>
      <trkpt lat="46.23189" lon="-0.53672">
        <ele>24.62</ele>
        <time>2025-04-13T20:11:08.499Z</time>
      </trkpt>
      <trkpt lat="46.23189" lon="-0.53672">
        <ele>24.23</ele>
        <time>2025-04-13T20:11:16.587Z</time>
      </trkpt>
      <trkpt lat="46.23189" lon="-0.5364">
        <ele>25.47</ele>
        <time>2025-04-13T20:11:24.680Z</time>
      </trkpt>
      <trkpt lat="46.23216" lon="-0.53639">
        <ele>25.87</ele>
        <time>2025-04-13T20:11:32.779Z</time>
      </trkpt>
      <trkpt lat="46.23239" lon="-0.53639">
        <ele>26.26</ele>
        <time>2025-04-13T20:11:40.884Z</time>
      </trkpt>
      <trkpt lat="46.23263" lon="-0.53639">
        <ele>26.69</ele>
        <time>2025-04-13T20:11:48.994Z</time>
      </trkpt>
      <trkpt lat="46.23287" lon="-0.53638">
        <ele>27.13</ele>
        <time>2025-04-13T20:11:57.110Z</time>
      </trkpt>
      <trkpt lat="46.23311" lon="-0.53638">
        <ele>27.6</ele>
        <time>2025-04-13T20:12:05.232Z</time>
      </trkpt>
      <trkpt lat="46.23332" lon="-0.53644">
        <ele>27.99</ele>
        <time>2025-04-13T20:12:13.359Z</time>
      </trkpt>
      <trkpt lat="46.23352" lon="-0.53651">
        <ele>28.26</ele>
        <time>2025-04-13T20:12:21.491Z</time>
      </trkpt>
      <trkpt lat="46.23373" lon="-0.53657">
        <ele>28.4</ele>
        <time>2025-04-13T20:12:29.628Z</time>
      </trkpt>
      <trkpt lat="46.23395" lon="-0.5367">
        <ele>28.5</ele>
        <time>2025-04-13T20:12:37.770Z</time>
      </trkpt>
      <trkpt lat="46.23397" lon="-0.53679">
        <ele>28.58</ele>
        <time>2025-04-13T20:12:45.914Z</time>
      </trkpt>
      <trkpt lat="46.23422" lon="-0.53683">
        <ele>28.52</ele>
        <time>2025-04-13T20:12:54.064Z</time>
      </trkpt>
      <trkpt lat="46.23444" lon="-0.53691">
        <ele>28.49</ele>
        <time>2025-04-13T20:13:02.219Z</time>
      </trkpt>
      <trkpt lat="46.23465" lon="-0.537">
        <ele>28.45</ele>
        <time>2025-04-13T20:13:10.379Z</time>
      </trkpt>
      <trkpt lat="46.23487" lon="-0.53709">
        <ele>28.33</ele>
        <time>2025-04-13T20:13:18.544Z</time>
      </trkpt>
      <trkpt lat="46.23515" lon="-0.53726">
        <ele>28.14</ele>
        <time>2025-04-13T20:13:26.717Z</time>
      </trkpt>
      <trkpt lat="46.23521" lon="-0.53734">
        <ele>27.91</ele>
        <time>2025-04-13T20:13:34.892Z</time>
      </trkpt>
      <trkpt lat="46.23532" lon="-0.53728">
        <ele>27.68</ele>
        <time>2025-04-13T20:13:43.069Z</time>
      </trkpt>
      <trkpt lat="46.23548" lon="-0.53732">
        <ele>27.39</ele>
        <time>2025-04-13T20:13:51.250Z</time>
      </trkpt>
      <trkpt lat="46.2357" lon="-0.53739">
        <ele>27.03</ele>
        <time>2025-04-13T20:13:59.436Z</time>
      </trkpt>
      <trkpt lat="46.23592" lon="-0.53745">
        <ele>26.54</ele>
        <time>2025-04-13T20:14:07.628Z</time>
      </trkpt>
      <trkpt lat="46.23613" lon="-0.53745">
        <ele>25.99</ele>
        <time>2025-04-13T20:14:15.825Z</time>
      </trkpt>
      <trkpt lat="46.23633" lon="-0.53733">
        <ele>25.51</ele>
        <time>2025-04-13T20:14:24.027Z</time>
      </trkpt>
      <trkpt lat="46.23652" lon="-0.53721">
        <ele>25.1</ele>
        <time>2025-04-13T20:14:32.234Z</time>
      </trkpt>
      <trkpt lat="46.23658" lon="-0.53717">
        <ele>24.67</ele>
        <time>2025-04-13T20:14:40.442Z</time>
      </trkpt>
      <trkpt lat="46.23686" lon="-0.53721">
        <ele>24.11</ele>
        <time>2025-04-13T20:14:48.657Z</time>
      </trkpt>
      <trkpt lat="46.23705" lon="-0.53727">
        <ele>23.67</ele>
        <time>2025-04-13T20:14:56.876Z</time>
      </trkpt>
      <trkpt lat="46.23723" lon="-0.53732">
        <ele>23.25</ele>
        <time>2025-04-13T20:15:05.100Z</time>
      </trkpt>
      <trkpt lat="46.2375" lon="-0.53737">
        <ele>22.9</ele>
        <time>2025-04-13T20:15:13.330Z</time>
      </trkpt>
      <trkpt lat="46.23776" lon="-0.53741">
        <ele>22.6</ele>
        <time>2025-04-13T20:15:21.566Z</time>
      </trkpt>
      <trkpt lat="46.23803" lon="-0.53746">
        <ele>22.23</ele>
        <time>2025-04-13T20:15:29.809Z</time>
      </trkpt>
      <trkpt lat="46.2383" lon="-0.53751">
        <ele>21.83</ele>
        <time>2025-04-13T20:15:38.058Z</time>
      </trkpt>
      <trkpt lat="46.23857" lon="-0.53755">
        <ele>21.46</ele>
        <time>2025-04-13T20:15:46.313Z</time>
      </trkpt>
      <trkpt lat="46.23884" lon="-0.5376">
        <ele>21.13</ele>
        <time>2025-04-13T20:15:54.575Z</time>
      </trkpt>
      <trkpt lat="46.2391" lon="-0.53747">
        <ele>20.89</ele>
        <time>2025-04-13T20:16:02.843Z</time>
      </trkpt>
      <trkpt lat="46.23937" lon="-0.53733">
        <ele>20.69</ele>
        <time>2025-04-13T20:16:11.118Z</time>
      </trkpt>
      <trkpt lat="46.23964" lon="-0.5372">
        <ele>20.52</ele>
        <time>2025-04-13T20:16:19.400Z</time>
      </trkpt>
      <trkpt lat="46.2399" lon="-0.53707">
        <ele>20.4</ele>
        <time>2025-04-13T20:16:27.688Z</time>
      </trkpt>
      <trkpt lat="46.24017" lon="-0.53694">
        <ele>20.32</ele>
        <time>2025-04-13T20:16:35.983Z</time>
      </trkpt>
      <trkpt lat="46.24013" lon="-0.53653">
        <ele>20.28</ele>
        <time>2025-04-13T20:16:44.285Z</time>
      </trkpt>
      <trkpt lat="46.24013" lon="-0.53653">
        <ele>20.28</ele>
        <time>2025-04-13T20:16:52.587Z</time>
      </trkpt>
      <trkpt lat="46.24008" lon="-0.53613">
        <ele>20.32</ele>
        <time>2025-04-13T20:17:00.895Z</time>
      </trkpt>
      <trkpt lat="46.24004" lon="-0.53573">
        <ele>20.4</ele>
        <time>2025-04-13T20:17:09.210Z</time>
      </trkpt>
      <trkpt lat="46.24" lon="-0.53533">
        <ele>20.52</ele>
        <time>2025-04-13T20:17:17.532Z</time>
      </trkpt>
      <trkpt lat="46.23999" lon="-0.53496">
        <ele>20.73</ele>
        <time>2025-04-13T20:17:25.860Z</time>
      </trkpt>
      <trkpt lat="46.23998" lon="-0.53459">
        <ele>20.92</ele>
        <time>2025-04-13T20:17:34.194Z</time>
      </trkpt>
      <trkpt lat="46.23997" lon="-0.53422">
        <ele>21.15</ele>
        <time>2025-04-13T20:17:42.534Z</time>
      </trkpt>
      <trkpt lat="46.23996" lon="-0.53385">
        <ele>21.4</ele>
        <time>2025-04-13T20:17:50.880Z</time>
      </trkpt>
      <trkpt lat="46.23995" lon="-0.53348">
        <ele>21.77</ele>
        <time>2025-04-13T20:17:59.232Z</time>
      </trkpt>
      <trkpt lat="46.23966" lon="-0.53348">
        <ele>22.02</ele>
        <time>2025-04-13T20:18:07.591Z</time>
      </trkpt>
      <trkpt lat="46.23945" lon="-0.53348">
        <ele>22.33</ele>
        <time>2025-04-13T20:18:15.955Z</time>
      </trkpt>
      <trkpt lat="46.23925" lon="-0.53348">
        <ele>22.71</ele>
        <time>2025-04-13T20:18:24.323Z</time>
      </trkpt>
      <trkpt lat="46.23899" lon="-0.53327">
        <ele>23.19</ele>
        <time>2025-04-13T20:18:32.698Z</time>
      </trkpt>
      <trkpt lat="46.23888" lon="-0.53309">
        <ele>23.58</ele>
        <time>2025-04-13T20:18:41.077Z</time>
      </trkpt>
      <trkpt lat="46.23869" lon="-0.53292">
        <ele>24</ele>
        <time>2025-04-13T20:18:49.462Z</time>
      </trkpt>
      <trkpt lat="46.23839" lon="-0.53282">
        <ele>24.38</ele>
        <time>2025-04-13T20:18:57.854Z</time>
      </trkpt>
      <trkpt lat="46.23826" lon="-0.53271">
        <ele>24.75</ele>
        <time>2025-04-13T20:19:06.249Z</time>
      </trkpt>
      <trkpt lat="46.23819" lon="-0.53229">
        <ele>25.09</ele>
        <time>2025-04-13T20:19:14.651Z</time>
      </trkpt>
      <trkpt lat="46.23813" lon="-0.53187">
        <ele>25.48</ele>
        <time>2025-04-13T20:19:23.060Z</time>
      </trkpt>
      <trkpt lat="46.23804" lon="-0.53153">
        <ele>25.9</ele>
        <time>2025-04-13T20:19:31.475Z</time>
      </trkpt>
      <trkpt lat="46.23802" lon="-0.53149">
        <ele>26.32</ele>
        <time>2025-04-13T20:19:39.891Z</time>
      </trkpt>
      <trkpt lat="46.23779" lon="-0.53157">
        <ele>26.73</ele>
        <time>2025-04-13T20:19:48.313Z</time>
      </trkpt>
      <trkpt lat="46.23756" lon="-0.53166">
        <ele>27.15</ele>
        <time>2025-04-13T20:19:56.740Z</time>
      </trkpt>
      <trkpt lat="46.23733" lon="-0.53175">
        <ele>27.57</ele>
        <time>2025-04-13T20:20:05.173Z</time>
      </trkpt>
      <trkpt lat="46.2371" lon="-0.53184">
        <ele>27.98</ele>
        <time>2025-04-13T20:20:13.612Z</time>
      </trkpt>
      <trkpt lat="46.23686" lon="-0.53193">
        <ele>28.36</ele>
        <time>2025-04-13T20:20:22.056Z</time>
      </trkpt>
      <trkpt lat="46.23663" lon="-0.53202">
        <ele>28.75</ele>
        <time>2025-04-13T20:20:30.506Z</time>
      </trkpt>
      <trkpt lat="46.23633" lon="-0.53207">
        <ele>29.09</ele>
        <time>2025-04-13T20:20:38.963Z</time>
      </trkpt>
      <trkpt lat="46.23604" lon="-0.53212">
        <ele>29.36</ele>
        <time>2025-04-13T20:20:47.427Z</time>
      </trkpt>
      <trkpt lat="46.23575" lon="-0.53217">
        <ele>29.5</ele>
        <time>2025-04-13T20:20:55.898Z</time>
      </trkpt>
      <trkpt lat="46.23546" lon="-0.53222">
        <ele>29.52</ele>
        <time>2025-04-13T20:21:04.376Z</time>
      </trkpt>
      <trkpt lat="46.23516" lon="-0.53227">
        <ele>29.54</ele>
        <time>2025-04-13T20:21:12.861Z</time>
      </trkpt>
      <trkpt lat="46.23487" lon="-0.53232">
        <ele>29.43</ele>
        <time>2025-04-13T20:21:21.353Z</time>
      </trkpt>
      <trkpt lat="46.23484" lon="-0.53192">
        <ele>29.32</ele>
        <time>2025-04-13T20:21:29.851Z</time>
      </trkpt>
      <trkpt lat="46.23484" lon="-0.53192">
        <ele>29.16</ele>
        <time>2025-04-13T20:21:38.349Z</time>
      </trkpt>
      <trkpt lat="46.2348" lon="-0.53153">
        <ele>28.94</ele>
        <time>2025-04-13T20:21:46.854Z</time>
      </trkpt>
      <trkpt lat="46.23477" lon="-0.53114">
        <ele>28.61</ele>
        <time>2025-04-13T20:21:55.365Z</time>
      </trkpt>
      <trkpt lat="46.23474" lon="-0.53074">
        <ele>28.23</ele>
        <time>2025-04-13T20:22:03.883Z</time>
      </trkpt>
      <trkpt lat="46.23471" lon="-0.53035">
        <ele>27.83</ele>
        <time>2025-04-13T20:22:12.407Z</time>
      </trkpt>
      <trkpt lat="46.23467" lon="-0.52996">
        <ele>27.42</ele>
        <time>2025-04-13T20:22:20.938Z</time>
      </trkpt>
      <trkpt lat="46.23461" lon="-0.52992">
        <ele>27.02</ele>
        <time>2025-04-13T20:22:29.470Z</time>
      </trkpt>
      <trkpt lat="46.23443" lon="-0.53018">
        <ele>26.61</ele>
        <time>2025-04-13T20:22:38.008Z</time>
      </trkpt>
      <trkpt lat="46.23425" lon="-0.53043">
        <ele>26.2</ele>
        <time>2025-04-13T20:22:46.552Z</time>
      </trkpt>
      <trkpt lat="46.23399" lon="-0.53069">
        <ele>25.76</ele>
        <time>2025-04-13T20:22:55.104Z</time>
      </trkpt>
      <trkpt lat="46.23374" lon="-0.53095">
        <ele>25.36</ele>
        <time>2025-04-13T20:23:03.663Z</time>
      </trkpt>
      <trkpt lat="46.23349" lon="-0.53121">
        <ele>25.06</ele>
        <time>2025-04-13T20:23:12.229Z</time>
      </trkpt>
      <trkpt lat="46.23324" lon="-0.53146">
        <ele>24.78</ele>
        <time>2025-04-13T20:23:20.802Z</time>
      </trkpt>
      <trkpt lat="46.23304" lon="-0.53181">
        <ele>24.47</ele>
        <time>2025-04-13T20:23:29.383Z</time>
      </trkpt>
      <trkpt lat="46.23298" lon="-0.53213">
        <ele>24.15</ele>
        <time>2025-04-13T20:23:37.969Z</time>
      </trkpt>
      <trkpt lat="46.23282" lon="-0.53201">
        <ele>23.84</ele>
        <time>2025-04-13T20:23:46.559Z</time>
      </trkpt>
      <trkpt lat="46.23266" lon="-0.53189">
        <ele>23.55</ele>
        <time>2025-04-13T20:23:55.154Z</time>
      </trkpt>
      <trkpt lat="46.23264" lon="-0.5317">
        <ele>23.33</ele>
        <time>2025-04-13T20:24:03.752Z</time>
      </trkpt>
      <trkpt lat="46.23258" lon="-0.53153">
        <ele>23.1</ele>
        <time>2025-04-13T20:24:12.353Z</time>
      </trkpt>
      <trkpt lat="46.23251" lon="-0.53133">
        <ele>22.92</ele>
        <time>2025-04-13T20:24:20.958Z</time>
      </trkpt>
      <trkpt lat="46.23244" lon="-0.53112">
        <ele>22.82</ele>
        <time>2025-04-13T20:24:29.566Z</time>
      </trkpt>
      <trkpt lat="46.23244" lon="-0.53112">
        <ele>22.73</ele>
        <time>2025-04-13T20:24:38.174Z</time>
      </trkpt>
      <trkpt lat="46.23236" lon="-0.53083">
        <ele>22.64</ele>
        <time>2025-04-13T20:24:46.787Z</time>
      </trkpt>
      <trkpt lat="46.23229" lon="-0.53055">
        <ele>22.61</ele>
        <time>2025-04-13T20:24:55.405Z</time>
      </trkpt>
      <trkpt lat="46.23221" lon="-0.53026">
        <ele>22.63</ele>
        <time>2025-04-13T20:25:04.028Z</time>
      </trkpt>
      <trkpt lat="46.23214" lon="-0.53016">
        <ele>22.67</ele>
        <time>2025-04-13T20:25:12.654Z</time>
      </trkpt>
      <trkpt lat="46.2319" lon="-0.53001">
        <ele>22.78</ele>
        <time>2025-04-13T20:25:21.286Z</time>
      </trkpt>
      <trkpt lat="46.23165" lon="-0.52985">
        <ele>22.94</ele>
        <time>2025-04-13T20:25:29.924Z</time>
      </trkpt>
      <trkpt lat="46.23154" lon="-0.52967">
        <ele>23.14</ele>
        <time>2025-04-13T20:25:38.566Z</time>
      </trkpt>
      <trkpt lat="46.23143" lon="-0.52949">
        <ele>23.35</ele>
        <time>2025-04-13T20:25:47.212Z</time>
      </trkpt>
      <trkpt lat="46.23139" lon="-0.52943">
        <ele>23.53</ele>
        <time>2025-04-13T20:25:55.860Z</time>
      </trkpt>
      <trkpt lat="46.23133" lon="-0.52923">
        <ele>23.71</ele>
        <time>2025-04-13T20:26:04.511Z</time>
      </trkpt>
      <trkpt lat="46.23135" lon="-0.52904">
        <ele>23.89</ele>
        <time>2025-04-13T20:26:13.165Z</time>
      </trkpt>
      <trkpt lat="46.23134" lon="-0.52889">
        <ele>24.06</ele>
        <time>2025-04-13T20:26:21.822Z</time>
      </trkpt>
      <trkpt lat="46.23135" lon="-0.52843">
        <ele>24.26</ele>
        <time>2025-04-13T20:26:30.486Z</time>
      </trkpt>
      <trkpt lat="46.23136" lon="-0.52798">
        <ele>24.38</ele>
        <time>2025-04-13T20:26:39.158Z</time>
      </trkpt>
      <trkpt lat="46.23137" lon="-0.52775">
        <ele>24.56</ele>
        <time>2025-04-13T20:26:47.833Z</time>
      </trkpt>
      <trkpt lat="46.23161" lon="-0.52746">
        <ele>24.64</ele>
        <time>2025-04-13T20:26:56.516Z</time>
      </trkpt>
      <trkpt lat="46.23185" lon="-0.52716">
        <ele>24.72</ele>
        <time>2025-04-13T20:27:05.206Z</time>
      </trkpt>
      <trkpt lat="46.23194" lon="-0.52705">
        <ele>24.84</ele>
        <time>2025-04-13T20:27:13.899Z</time>
      </trkpt>
      <trkpt lat="46.23181" lon="-0.52665">
        <ele>25.02</ele>
        <time>2025-04-13T20:27:22.599Z</time>
      </trkpt>
      <trkpt lat="46.23167" lon="-0.52624">
        <ele>25.14</ele>
        <time>2025-04-13T20:27:31.307Z</time>
      </trkpt>
      <trkpt lat="46.23153" lon="-0.52583">
        <ele>25.15</ele>
        <time>2025-04-13T20:27:40.022Z</time>
      </trkpt>
      <trkpt lat="46.2314" lon="-0.52542">
        <ele>25.21</ele>
        <time>2025-04-13T20:27:48.745Z</time>
      </trkpt>
      <trkpt lat="46.23127" lon="-0.52504">
        <ele>25.25</ele>
        <time>2025-04-13T20:27:57.475Z</time>
      </trkpt>
      <trkpt lat="46.23097" lon="-0.52491">
        <ele>25.17</ele>
        <time>2025-04-13T20:28:06.212Z</time>
      </trkpt>
      <trkpt lat="46.23066" lon="-0.52478">
        <ele>25.09</ele>
        <time>2025-04-13T20:28:14.956Z</time>
      </trkpt>
      <trkpt lat="46.23056" lon="-0.52474">
        <ele>25.1</ele>
        <time>2025-04-13T20:28:23.703Z</time>
      </trkpt>
      <trkpt lat="46.23058" lon="-0.52475">
        <ele>25.09</ele>
        <time>2025-04-13T20:28:32.451Z</time>
      </trkpt>
      <trkpt lat="46.2306" lon="-0.5244">
        <ele>25.01</ele>
        <time>2025-04-13T20:28:41.204Z</time>
      </trkpt>
      <trkpt lat="46.23062" lon="-0.52406">
        <ele>25</ele>
        <time>2025-04-13T20:28:49.963Z</time>
      </trkpt>
      <trkpt lat="46.23064" lon="-0.52372">
        <ele>25</ele>
        <time>2025-04-13T20:28:58.727Z</time>
      </trkpt>
      <trkpt lat="46.23062" lon="-0.52327">
        <ele>24.99</ele>
        <time>2025-04-13T20:29:07.499Z</time>
      </trkpt>
      <trkpt lat="46.23034" lon="-0.52312">
        <ele>25.06</ele>
        <time>2025-04-13T20:29:16.278Z</time>
      </trkpt>
      <trkpt lat="46.23006" lon="-0.5231">
        <ele>25.1</ele>
        <time>2025-04-13T20:29:25.063Z</time>
      </trkpt>
      <trkpt lat="46.22998" lon="-0.52301">
        <ele>25.17</ele>
        <time>2025-04-13T20:29:33.851Z</time>
      </trkpt>
      <trkpt lat="46.22974" lon="-0.52281">
        <ele>25.22</ele>
        <time>2025-04-13T20:29:42.645Z</time>
      </trkpt>
      <trkpt lat="46.2295" lon="-0.5226">
        <ele>25.32</ele>
        <time>2025-04-13T20:29:51.446Z</time>
      </trkpt>
      <trkpt lat="46.22927" lon="-0.52248">
        <ele>25.41</ele>
        <time>2025-04-13T20:30:00.253Z</time>
      </trkpt>
      <trkpt lat="46.22903" lon="-0.52237">
        <ele>25.51</ele>
        <time>2025-04-13T20:30:09.066Z</time>
      </trkpt>
      <trkpt lat="46.22873" lon="-0.52225">
        <ele>25.63</ele>
        <time>2025-04-13T20:30:17.886Z</time>
      </trkpt>
      <trkpt lat="46.22843" lon="-0.52213">
        <ele>25.72</ele>
        <time>2025-04-13T20:30:26.713Z</time>
      </trkpt>
      <trkpt lat="46.22843" lon="-0.52213">
        <ele>25.77</ele>
        <time>2025-04-13T20:30:35.540Z</time>
      </trkpt>
      <trkpt lat="46.22845" lon="-0.52198">
        <ele>25.78</ele>
        <time>2025-04-13T20:30:44.370Z</time>
      </trkpt>
      <trkpt lat="46.22847" lon="-0.52181">
        <ele>25.82</ele>
        <time>2025-04-13T20:30:53.203Z</time>
      </trkpt>
      <trkpt lat="46.22856" lon="-0.52148">
        <ele>25.83</ele>
        <time>2025-04-13T20:31:02.041Z</time>
      </trkpt>
      <trkpt lat="46.22865" lon="-0.52115">
        <ele>25.83</ele>
        <time>2025-04-13T20:31:10.885Z</time>
      </trkpt>
      <trkpt lat="46.22873" lon="-0.52082">
        <ele>25.93</ele>
        <time>2025-04-13T20:31:19.735Z</time>
      </trkpt>
      <trkpt lat="46.22885" lon="-0.52056">
        <ele>26.01</ele>
        <time>2025-04-13T20:31:28.590Z</time>
      </trkpt>
      <trkpt lat="46.22897" lon="-0.52031">
        <ele>25.95</ele>
        <time>2025-04-13T20:31:37.450Z</time>
      </trkpt>
      <trkpt lat="46.2291" lon="-0.52005">
        <ele>25.94</ele>
        <time>2025-04-13T20:31:46.315Z</time>
      </trkpt>
      <trkpt lat="46.22921" lon="-0.51963">
        <ele>25.91</ele>
        <time>2025-04-13T20:31:55.188Z</time>
      </trkpt>
      <trkpt lat="46.22933" lon="-0.51921">
        <ele>25.89</ele>
        <time>2025-04-13T20:32:04.068Z</time>
      </trkpt>
      <trkpt lat="46.22931" lon="-0.51888">
        <ele>25.94</ele>
        <time>2025-04-13T20:32:12.953Z</time>
      </trkpt>
      <trkpt lat="46.22929" lon="-0.51855">
        <ele>26.06</ele>
        <time>2025-04-13T20:32:21.844Z</time>
      </trkpt>
      <trkpt lat="46.22922" lon="-0.51812">
        <ele>26.18</ele>
        <time>2025-04-13T20:32:30.742Z</time>
      </trkpt>
      <trkpt lat="46.22916" lon="-0.5177">
        <ele>26.3</ele>
        <time>2025-04-13T20:32:39.647Z</time>
      </trkpt>
      <trkpt lat="46.2291" lon="-0.51727">
        <ele>26.49</ele>
        <time>2025-04-13T20:32:48.559Z</time>
      </trkpt>
      <trkpt lat="46.22903" lon="-0.51685">
        <ele>26.59</ele>
        <time>2025-04-13T20:32:57.478Z</time>
      </trkpt>
      <trkpt lat="46.22892" lon="-0.51666">
        <ele>26.7</ele>
        <time>2025-04-13T20:33:06.401Z</time>
      </trkpt>
      <trkpt lat="46.22871" lon="-0.51657">
        <ele>26.79</ele>
        <time>2025-04-13T20:33:15.329Z</time>
      </trkpt>
      <trkpt lat="46.22871" lon="-0.51657">
        <ele>26.9</ele>
        <time>2025-04-13T20:33:24.257Z</time>
      </trkpt>
      <trkpt lat="46.22846" lon="-0.51654">
        <ele>26.99</ele>
        <time>2025-04-13T20:33:33.191Z</time>
      </trkpt>
      <trkpt lat="46.22821" lon="-0.51651">
        <ele>27.09</ele>
        <time>2025-04-13T20:33:42.131Z</time>
      </trkpt>
      <trkpt lat="46.22796" lon="-0.51648">
        <ele>27.22</ele>
        <time>2025-04-13T20:33:51.077Z</time>
      </trkpt>
      <trkpt lat="46.22765" lon="-0.51644">
        <ele>27.42</ele>
        <time>2025-04-13T20:34:00.031Z</time>
      </trkpt>
      <trkpt lat="46.22734" lon="-0.5164">
        <ele>27.58</ele>
        <time>2025-04-13T20:34:08.992Z</time>
      </trkpt>
      <trkpt lat="46.22719" lon="-0.51632">
        <ele>27.76</ele>
        <time>2025-04-13T20:34:17.957Z</time>
      </trkpt>
      <trkpt lat="46.22704" lon="-0.51606">
        <ele>27.96</ele>
        <time>2025-04-13T20:34:26.927Z</time>
      </trkpt>
      <trkpt lat="46.22682" lon="-0.51611">
        <ele>28.2</ele>
        <time>2025-04-13T20:34:35.902Z</time>
      </trkpt>
      <trkpt lat="46.22659" lon="-0.51617">
        <ele>28.44</ele>
        <time>2025-04-13T20:34:44.883Z</time>
      </trkpt>
      <trkpt lat="46.22637" lon="-0.51623">
        <ele>28.63</ele>
        <time>2025-04-13T20:34:53.869Z</time>
      </trkpt>
      <trkpt lat="46.22613" lon="-0.51629">
        <ele>28.86</ele>
        <time>2025-04-13T20:35:02.861Z</time>
      </trkpt>
      <trkpt lat="46.22588" lon="-0.51636">
        <ele>29.03</ele>
        <time>2025-04-13T20:35:11.859Z</time>
      </trkpt>
      <trkpt lat="46.22561" lon="-0.51642">
        <ele>29.2</ele>
        <time>2025-04-13T20:35:20.863Z</time>
      </trkpt>
      <trkpt lat="46.22534" lon="-0.51648">
        <ele>29.42</ele>
        <time>2025-04-13T20:35:29.874Z</time>
      </trkpt>
      <trkpt lat="46.22508" lon="-0.51654">
        <ele>29.66</ele>
        <time>2025-04-13T20:35:38.891Z</time>
      </trkpt>
      <trkpt lat="46.22481" lon="-0.5166">
        <ele>29.87</ele>
        <time>2025-04-13T20:35:47.914Z</time>
      </trkpt>
      <trkpt lat="46.22454" lon="-0.51666">
        <ele>30.01</ele>
        <time>2025-04-13T20:35:56.944Z</time>
      </trkpt>
      <trkpt lat="46.22428" lon="-0.51673">
        <ele>30.12</ele>
        <time>2025-04-13T20:36:05.980Z</time>
      </trkpt>
      <trkpt lat="46.22401" lon="-0.51679">
        <ele>30.26</ele>
        <time>2025-04-13T20:36:15.022Z</time>
      </trkpt>
      <trkpt lat="46.22395" lon="-0.51644">
        <ele>30.4</ele>
        <time>2025-04-13T20:36:24.070Z</time>
      </trkpt>
      <trkpt lat="46.22395" lon="-0.51644">
        <ele>30.54</ele>
        <time>2025-04-13T20:36:33.118Z</time>
      </trkpt>
      <trkpt lat="46.22389" lon="-0.51605">
        <ele>30.65</ele>
        <time>2025-04-13T20:36:42.173Z</time>
      </trkpt>
      <trkpt lat="46.22382" lon="-0.51565">
        <ele>30.78</ele>
        <time>2025-04-13T20:36:51.234Z</time>
      </trkpt>
      <trkpt lat="46.22375" lon="-0.51526">
        <ele>30.98</ele>
        <time>2025-04-13T20:37:00.302Z</time>
      </trkpt>
      <trkpt lat="46.22368" lon="-0.51487">
        <ele>31.15</ele>
        <time>2025-04-13T20:37:09.377Z</time>
      </trkpt>
      <trkpt lat="46.2236" lon="-0.51447">
        <ele>31.26</ele>
        <time>2025-04-13T20:37:18.458Z</time>
      </trkpt>
      <trkpt lat="46.22352" lon="-0.51408">
        <ele>31.38</ele>
        <time>2025-04-13T20:37:27.546Z</time>
      </trkpt>
      <trkpt lat="46.22345" lon="-0.51369">
        <ele>31.49</ele>
        <time>2025-04-13T20:37:36.641Z</time>
      </trkpt>
      <trkpt lat="46.22337" lon="-0.51329">
        <ele>31.52</ele>
        <time>2025-04-13T20:37:45.742Z</time>
      </trkpt>
      <trkpt lat="46.22329" lon="-0.5129">
        <ele>31.55</ele>
        <time>2025-04-13T20:37:54.850Z</time>
      </trkpt>
      <trkpt lat="46.22322" lon="-0.5125">
        <ele>31.59</ele>
        <time>2025-04-13T20:38:03.965Z</time>
      </trkpt>
      <trkpt lat="46.22314" lon="-0.51211">
        <ele>31.66</ele>
        <time>2025-04-13T20:38:13.087Z</time>
      </trkpt>
      <trkpt lat="46.22307" lon="-0.51172">
        <ele>31.66</ele>
        <time>2025-04-13T20:38:22.215Z</time>
      </trkpt>
      <trkpt lat="46.22307" lon="-0.51172">
        <ele>31.64</ele>
        <time>2025-04-13T20:38:31.343Z</time>
      </trkpt>
      <trkpt lat="46.22298" lon="-0.51132">
        <ele>31.6</ele>
        <time>2025-04-13T20:38:40.478Z</time>
      </trkpt>
      <trkpt lat="46.2229" lon="-0.51091">
        <ele>31.54</ele>
        <time>2025-04-13T20:38:49.620Z</time>
      </trkpt>
      <trkpt lat="46.22282" lon="-0.5105">
        <ele>31.5</ele>
        <time>2025-04-13T20:38:58.769Z</time>
      </trkpt>
      <trkpt lat="46.22273" lon="-0.51009">
        <ele>31.4</ele>
        <time>2025-04-13T20:39:07.925Z</time>
      </trkpt>
      <trkpt lat="46.22265" lon="-0.50968">
        <ele>31.29</ele>
        <time>2025-04-13T20:39:17.088Z</time>
      </trkpt>
      <trkpt lat="46.22257" lon="-0.50928">
        <ele>31.2</ele>
        <time>2025-04-13T20:39:26.258Z</time>
      </trkpt>
      <trkpt lat="46.22248" lon="-0.50887">
        <ele>31.04</ele>
        <time>2025-04-13T20:39:35.435Z</time>
      </trkpt>
      <trkpt lat="46.2224" lon="-0.50846">
        <ele>30.87</ele>
        <time>2025-04-13T20:39:44.619Z</time>
      </trkpt>
      <trkpt lat="46.22232" lon="-0.50805">
        <ele>30.67</ele>
        <time>2025-04-13T20:39:53.810Z</time>
      </trkpt>
      <trkpt lat="46.22223" lon="-0.50765">
        <ele>30.53</ele>
        <time>2025-04-13T20:40:03.007Z</time>
      </trkpt>
      <trkpt lat="46.22215" lon="-0.50724">
        <ele>30.39</ele>
        <time>2025-04-13T20:40:12.211Z</time>
      </trkpt>
      <trkpt lat="46.22207" lon="-0.50684">
        <ele>30.3</ele>
        <time>2025-04-13T20:40:21.422Z</time>
      </trkpt>
      <trkpt lat="46.22207" lon="-0.50684">
        <ele>30.23</ele>
        <time>2025-04-13T20:40:30.633Z</time>
      </trkpt>
      <trkpt lat="46.22201" lon="-0.50657">
        <ele>30.17</ele>
        <time>2025-04-13T20:40:39.849Z</time>
      </trkpt>
      <trkpt lat="46.22197" lon="-0.50642">
        <ele>30.15</ele>
        <time>2025-04-13T20:40:49.067Z</time>
      </trkpt>
      <trkpt lat="46.22201" lon="-0.50632">
        <ele>30.16</ele>
        <time>2025-04-13T20:40:58.287Z</time>
      </trkpt>
      <trkpt lat="46.22176" lon="-0.50646">
        <ele>30.13</ele>
        <time>2025-04-13T20:41:07.514Z</time>
      </trkpt>
      <trkpt lat="46.2215" lon="-0.5066">
        <ele>30.16</ele>
        <time>2025-04-13T20:41:16.747Z</time>
      </trkpt>
      <trkpt lat="46.22124" lon="-0.50674">
        <ele>30.22</ele>
        <time>2025-04-13T20:41:25.987Z</time>
      </trkpt>
      <trkpt lat="46.22099" lon="-0.50688">
        <ele>30.34</ele>
        <time>2025-04-13T20:41:35.233Z</time>
      </trkpt>
      <trkpt lat="46.22073" lon="-0.50703">
        <ele>30.51</ele>
        <time>2025-04-13T20:41:44.486Z</time>
      </trkpt>
      <trkpt lat="46.22047" lon="-0.50717">
        <ele>30.55</ele>
        <time>2025-04-13T20:41:53.745Z</time>
      </trkpt>
      <trkpt lat="46.22021" lon="-0.50731">
        <ele>30.6</ele>
        <time>2025-04-13T20:42:03.011Z</time>
      </trkpt>
      <trkpt lat="46.21995" lon="-0.50745">
        <ele>30.71</ele>
        <time>2025-04-13T20:42:12.283Z</time>
      </trkpt>
      <trkpt lat="46.21968" lon="-0.50752">
        <ele>30.85</ele>
        <time>2025-04-13T20:42:21.562Z</time>
      </trkpt>
      <trkpt lat="46.2194" lon="-0.50758">
        <ele>30.89</ele>
        <time>2025-04-13T20:42:30.848Z</time>
      </trkpt>
      <trkpt lat="46.21937" lon="-0.50735">
        <ele>31.04</ele>
        <time>2025-04-13T20:42:40.137Z</time>
      </trkpt>
      <trkpt lat="46.21933" lon="-0.507">
        <ele>31.17</ele>
        <time>2025-04-13T20:42:49.432Z</time>
      </trkpt>
      <trkpt lat="46.21926" lon="-0.50662">
        <ele>31.25</ele>
        <time>2025-04-13T20:42:58.734Z</time>
      </trkpt>
      <trkpt lat="46.21919" lon="-0.50624">
        <ele>31.28</ele>
        <time>2025-04-13T20:43:08.042Z</time>
      </trkpt>
      <trkpt lat="46.21912" lon="-0.50587">
        <ele>31.3</ele>
        <time>2025-04-13T20:43:17.357Z</time>
      </trkpt>
      <trkpt lat="46.21909" lon="-0.50559">
        <ele>31.3</ele>
        <time>2025-04-13T20:43:26.676Z</time>
      </trkpt>
      <trkpt lat="46.21905" lon="-0.50531">
        <ele>31.35</ele>
        <time>2025-04-13T20:43:36.000Z</time>
      </trkpt>
      <trkpt lat="46.21899" lon="-0.50554">
        <ele>31.42</ele>
        <time>2025-04-13T20:43:45.328Z</time>
      </trkpt>
      <trkpt lat="46.2189" lon="-0.50578">
        <ele>31.54</ele>
        <time>2025-04-13T20:43:54.660Z</time>
      </trkpt>
      <trkpt lat="46.21881" lon="-0.50591">
        <ele>31.62</ele>
        <time>2025-04-13T20:44:03.995Z</time>
      </trkpt>
      <trkpt lat="46.21881" lon="-0.50591">
        <ele>31.65</ele>
        <time>2025-04-13T20:44:13.330Z</time>
      </trkpt>
      <trkpt lat="46.2187" lon="-0.50607">
        <ele>31.68</ele>
        <time>2025-04-13T20:44:22.669Z</time>
      </trkpt>
      <trkpt lat="46.21858" lon="-0.50623">
        <ele>31.71</ele>
        <time>2025-04-13T20:44:32.012Z</time>
      </trkpt>
      <trkpt lat="46.21833" lon="-0.50637">
        <ele>31.7</ele>
        <time>2025-04-13T20:44:41.361Z</time>
      </trkpt>
      <trkpt lat="46.21809" lon="-0.50651">
        <ele>31.75</ele>
        <time>2025-04-13T20:44:50.716Z</time>
      </trkpt>
      <trkpt lat="46.21781" lon="-0.50662">
        <ele>31.81</ele>
        <time>2025-04-13T20:45:00.078Z</time>
      </trkpt>
      <trkpt lat="46.21754" lon="-0.50673">
        <ele>31.86</ele>
        <time>2025-04-13T20:45:09.447Z</time>
      </trkpt>
      <trkpt lat="46.21727" lon="-0.50685">
        <ele>31.96</ele>
        <time>2025-04-13T20:45:18.822Z</time>
      </trkpt>
      <trkpt lat="46.21699" lon="-0.50696">
        <ele>32.12</ele>
        <time>2025-04-13T20:45:28.204Z</time>
      </trkpt>
      <trkpt lat="46.21684" lon="-0.50713">
        <ele>32.36</ele>
        <time>2025-04-13T20:45:37.591Z</time>
      </trkpt>
      <trkpt lat="46.21682" lon="-0.50707">
        <ele>32.6</ele>
        <time>2025-04-13T20:45:46.979Z</time>
      </trkpt>
      <trkpt lat="46.21652" lon="-0.50713">
        <ele>32.97</ele>
        <time>2025-04-13T20:45:56.374Z</time>
      </trkpt>
      <trkpt lat="46.21622" lon="-0.50719">
        <ele>33.27</ele>
        <time>2025-04-13T20:46:05.776Z</time>
      </trkpt>
      <trkpt lat="46.21609" lon="-0.50722">
        <ele>33.6</ele>
        <time>2025-04-13T20:46:15.181Z</time>
      </trkpt>
      <trkpt lat="46.21585" lon="-0.50732">
        <ele>34.03</ele>
        <time>2025-04-13T20:46:24.592Z</time>
      </trkpt>
      <trkpt lat="46.2156" lon="-0.50743">
        <ele>34.6</ele>
        <time>2025-04-13T20:46:34.009Z</time>
      </trkpt>
      <trkpt lat="46.21536" lon="-0.50754">
        <ele>35.22</ele>
        <time>2025-04-13T20:46:43.432Z</time>
      </trkpt>
      <trkpt lat="46.21511" lon="-0.50765">
        <ele>35.82</ele>
        <time>2025-04-13T20:46:52.861Z</time>
      </trkpt>
      <trkpt lat="46.21487" lon="-0.50775">
        <ele>36.44</ele>
        <time>2025-04-13T20:47:02.296Z</time>
      </trkpt>
      <trkpt lat="46.21459" lon="-0.50782">
        <ele>37.17</ele>
        <time>2025-04-13T20:47:11.738Z</time>
      </trkpt>
      <trkpt lat="46.21431" lon="-0.50789">
        <ele>38</ele>
        <time>2025-04-13T20:47:21.187Z</time>
      </trkpt>
      <trkpt lat="46.21403" lon="-0.50796">
        <ele>38.94</ele>
        <time>2025-04-13T20:47:30.642Z</time>
      </trkpt>
      <trkpt lat="46.21375" lon="-0.50804">
        <ele>39.86</ele>
        <time>2025-04-13T20:47:40.104Z</time>
      </trkpt>
      <trkpt lat="46.21348" lon="-0.50811">
        <ele>40.81</ele>
        <time>2025-04-13T20:47:49.573Z</time>
      </trkpt>
      <trkpt lat="46.2132" lon="-0.50818">
        <ele>41.64</ele>
        <time>2025-04-13T20:47:59.048Z</time>
      </trkpt>
      <trkpt lat="46.21292" lon="-0.50825">
        <ele>42.48</ele>
        <time>2025-04-13T20:48:08.530Z</time>
      </trkpt>
      <trkpt lat="46.21264" lon="-0.50835">
        <ele>43.36</ele>
        <time>2025-04-13T20:48:18.019Z</time>
      </trkpt>
      <trkpt lat="46.21267" lon="-0.50857">
        <ele>44.01</ele>
        <time>2025-04-13T20:48:27.511Z</time>
      </trkpt>
      <trkpt lat="46.2127" lon="-0.50878">
        <ele>44.61</ele>
        <time>2025-04-13T20:48:37.007Z</time>
      </trkpt>
      <trkpt lat="46.21274" lon="-0.50921">
        <ele>45.07</ele>
        <time>2025-04-13T20:48:46.510Z</time>
      </trkpt>
      <trkpt lat="46.21278" lon="-0.50963">
        <ele>45.51</ele>
        <time>2025-04-13T20:48:56.020Z</time>
      </trkpt>
      <trkpt lat="46.21282" lon="-0.51006">
        <ele>45.93</ele>
        <time>2025-04-13T20:49:05.537Z</time>
      </trkpt>
      <trkpt lat="46.21285" lon="-0.51048">
        <ele>46.3</ele>
        <time>2025-04-13T20:49:15.061Z</time>
      </trkpt>
      <trkpt lat="46.21289" lon="-0.51091">
        <ele>46.67</ele>
        <time>2025-04-13T20:49:24.592Z</time>
      </trkpt>
      <trkpt lat="46.21293" lon="-0.51133">
        <ele>46.97</ele>
        <time>2025-04-13T20:49:34.130Z</time>
      </trkpt>
      <trkpt lat="46.21297" lon="-0.51176">
        <ele>47.17</ele>
        <time>2025-04-13T20:49:43.675Z</time>
      </trkpt>
      <trkpt lat="46.213" lon="-0.51217">
        <ele>47.34</ele>
        <time>2025-04-13T20:49:53.227Z</time>
      </trkpt>
      <trkpt lat="46.21301" lon="-0.51257">
        <ele>47.43</ele>
        <time>2025-04-13T20:50:02.785Z</time>
      </trkpt>
      <trkpt lat="46.21302" lon="-0.51296">
        <ele>47.47</ele>
        <time>2025-04-13T20:50:12.350Z</time>
      </trkpt>
      <trkpt lat="46.21302" lon="-0.51335">
        <ele>47.48</ele>
        <time>2025-04-13T20:50:21.921Z</time>
      </trkpt>
      <trkpt lat="46.213" lon="-0.51374">
        <ele>47.42</ele>
        <time>2025-04-13T20:50:31.498Z</time>
      </trkpt>
      <trkpt lat="46.21298" lon="-0.51413">
        <ele>47.34</ele>
        <time>2025-04-13T20:50:41.082Z</time>
      </trkpt>
      <trkpt lat="46.21296" lon="-0.51451">
        <ele>47.09</ele>
        <time>2025-04-13T20:50:50.672Z</time>
      </trkpt>
      <trkpt lat="46.21294" lon="-0.51485">
        <ele>46.65</ele>
        <time>2025-04-13T20:51:00.267Z</time>
      </trkpt>
      <trkpt lat="46.21292" lon="-0.51518">
        <ele>46.19</ele>
        <time>2025-04-13T20:51:09.868Z</time>
      </trkpt>
      <trkpt lat="46.2129" lon="-0.51563">
        <ele>45.75</ele>
        <time>2025-04-13T20:51:19.476Z</time>
      </trkpt>
      <trkpt lat="46.21289" lon="-0.51607">
        <ele>45.24</ele>
        <time>2025-04-13T20:51:29.092Z</time>
      </trkpt>
      <trkpt lat="46.21287" lon="-0.51652">
        <ele>44.77</ele>
        <time>2025-04-13T20:51:38.715Z</time>
      </trkpt>
      <trkpt lat="46.21286" lon="-0.51697">
        <ele>44.36</ele>
        <time>2025-04-13T20:51:48.345Z</time>
      </trkpt>
      <trkpt lat="46.21285" lon="-0.51742">
        <ele>43.92</ele>
        <time>2025-04-13T20:51:57.983Z</time>
      </trkpt>
      <trkpt lat="46.21283" lon="-0.51786">
        <ele>43.48</ele>
        <time>2025-04-13T20:52:07.628Z</time>
      </trkpt>
      <trkpt lat="46.21284" lon="-0.51824">
        <ele>43.07</ele>
        <time>2025-04-13T20:52:17.279Z</time>
      </trkpt>
      <trkpt lat="46.21285" lon="-0.51861">
        <ele>42.54</ele>
        <time>2025-04-13T20:52:26.936Z</time>
      </trkpt>
      <trkpt lat="46.21282" lon="-0.51898">
        <ele>42.12</ele>
        <time>2025-04-13T20:52:36.599Z</time>
      </trkpt>
      <trkpt lat="46.21279" lon="-0.51934">
        <ele>41.78</ele>
        <time>2025-04-13T20:52:46.268Z</time>
      </trkpt>
      <trkpt lat="46.21279" lon="-0.51936">
        <ele>41.46</ele>
        <time>2025-04-13T20:52:55.937Z</time>
      </trkpt>
      <trkpt lat="46.21303" lon="-0.51933">
        <ele>41.13</ele>
        <time>2025-04-13T20:53:05.612Z</time>
      </trkpt>
      <trkpt lat="46.21327" lon="-0.5193">
        <ele>40.81</ele>
        <time>2025-04-13T20:53:15.293Z</time>
      </trkpt>
      <trkpt lat="46.21352" lon="-0.51928">
        <ele>40.66</ele>
        <time>2025-04-13T20:53:24.980Z</time>
      </trkpt>
      <trkpt lat="46.21356" lon="-0.51932">
        <ele>40.55</ele>
        <time>2025-04-13T20:53:34.668Z</time>
      </trkpt>
      <trkpt lat="46.21361" lon="-0.51956">
        <ele>40.49</ele>
        <time>2025-04-13T20:53:44.360Z</time>
      </trkpt>
      <trkpt lat="46.21366" lon="-0.5198">
        <ele>40.5</ele>
        <time>2025-04-13T20:53:54.056Z</time>
      </trkpt>
      <trkpt lat="46.21373" lon="-0.52011">
        <ele>40.6</ele>
        <time>2025-04-13T20:54:03.757Z</time>
      </trkpt>
      <trkpt lat="46.21379" lon="-0.52051">
        <ele>40.83</ele>
        <time>2025-04-13T20:54:13.465Z</time>
      </trkpt>
      <trkpt lat="46.21385" lon="-0.5209">
        <ele>41.09</ele>
        <time>2025-04-13T20:54:23.180Z</time>
      </trkpt>
      <trkpt lat="46.21392" lon="-0.5213">
        <ele>41.36</ele>
        <time>2025-04-13T20:54:32.901Z</time>
      </trkpt>
      <trkpt lat="46.21398" lon="-0.52169">
        <ele>41.57</ele>
        <time>2025-04-13T20:54:42.629Z</time>
      </trkpt>
      <trkpt lat="46.21404" lon="-0.52208">
        <ele>41.83</ele>
        <time>2025-04-13T20:54:52.363Z</time>
      </trkpt>
      <trkpt lat="46.2141" lon="-0.52247">
        <ele>42.15</ele>
        <time>2025-04-13T20:55:02.104Z</time>
      </trkpt>
      <trkpt lat="46.21419" lon="-0.52288">
        <ele>42.43</ele>
        <time>2025-04-13T20:55:11.852Z</time>
      </trkpt>
      <trkpt lat="46.21428" lon="-0.5233">
        <ele>42.61</ele>
        <time>2025-04-13T20:55:21.607Z</time>
      </trkpt>
      <trkpt lat="46.21436" lon="-0.52371">
        <ele>42.78</ele>
        <time>2025-04-13T20:55:31.369Z</time>
      </trkpt>
      <trkpt lat="46.21445" lon="-0.52412">
        <ele>43.04</ele>
        <time>2025-04-13T20:55:41.138Z</time>
      </trkpt>
      <trkpt lat="46.21454" lon="-0.52453">
        <ele>43.33</ele>
        <time>2025-04-13T20:55:50.914Z</time>
      </trkpt>
      <trkpt lat="46.21463" lon="-0.52494">
        <ele>43.59</ele>
        <time>2025-04-13T20:56:00.697Z</time>
      </trkpt>
      <trkpt lat="46.21472" lon="-0.52535">
        <ele>43.67</ele>
        <time>2025-04-13T20:56:10.487Z</time>
      </trkpt>
      <trkpt lat="46.21495" lon="-0.52526">
        <ele>43.8</ele>
        <time>2025-04-13T20:56:20.283Z</time>
      </trkpt>
      <trkpt lat="46.21518" lon="-0.52518">
        <ele>43.78</ele>
        <time>2025-04-13T20:56:30.084Z</time>
      </trkpt>
      <trkpt lat="46.21541" lon="-0.52509">
        <ele>43.64</ele>
        <time>2025-04-13T20:56:39.891Z</time>
      </trkpt>
      <trkpt lat="46.21564" lon="-0.52501">
        <ele>43.36</ele>
        <time>2025-04-13T20:56:49.704Z</time>
      </trkpt>
      <trkpt lat="46.21579" lon="-0.52505">
        <ele>43.01</ele>
        <time>2025-04-13T20:56:59.520Z</time>
      </trkpt>
      <trkpt lat="46.21585" lon="-0.52534">
        <ele>42.65</ele>
        <time>2025-04-13T20:57:09.341Z</time>
      </trkpt>
      <trkpt lat="46.2159" lon="-0.52563">
        <ele>42.26</ele>
        <time>2025-04-13T20:57:19.167Z</time>
      </trkpt>
      <trkpt lat="46.21592" lon="-0.52608">
        <ele>41.88</ele>
        <time>2025-04-13T20:57:29.000Z</time>
      </trkpt>
      <trkpt lat="46.21603" lon="-0.5265">
        <ele>41.42</ele>
        <time>2025-04-13T20:57:38.841Z</time>
      </trkpt>
      <trkpt lat="46.21614" lon="-0.52693">
        <ele>40.73</ele>
        <time>2025-04-13T20:57:48.689Z</time>
      </trkpt>
      <trkpt lat="46.21624" lon="-0.52736">
        <ele>40.14</ele>
        <time>2025-04-13T20:57:58.545Z</time>
      </trkpt>
      <trkpt lat="46.21635" lon="-0.52778">
        <ele>39.58</ele>
        <time>2025-04-13T20:58:08.408Z</time>
      </trkpt>
      <trkpt lat="46.21646" lon="-0.52821">
        <ele>38.94</ele>
        <time>2025-04-13T20:58:18.278Z</time>
      </trkpt>
      <trkpt lat="46.21656" lon="-0.52863">
        <ele>38.31</ele>
        <time>2025-04-13T20:58:28.156Z</time>
      </trkpt>
      <trkpt lat="46.21667" lon="-0.52895">
        <ele>37.59</ele>
        <time>2025-04-13T20:58:38.040Z</time>
      </trkpt>
      <trkpt lat="46.21678" lon="-0.52928">
        <ele>36.84</ele>
        <time>2025-04-13T20:58:47.929Z</time>
      </trkpt>
      <trkpt lat="46.21689" lon="-0.5296">
        <ele>36</ele>
        <time>2025-04-13T20:58:57.824Z</time>
      </trkpt>
      <trkpt lat="46.21699" lon="-0.52992">
        <ele>35.22</ele>
        <time>2025-04-13T20:59:07.725Z</time>
      </trkpt>
      <trkpt lat="46.21723" lon="-0.52986">
        <ele>34.42</ele>
        <time>2025-04-13T20:59:17.632Z</time>
      </trkpt>
      <trkpt lat="46.21747" lon="-0.5298">
        <ele>33.61</ele>
        <time>2025-04-13T20:59:27.544Z</time>
      </trkpt>
      <trkpt lat="46.21772" lon="-0.52974">
        <ele>32.75</ele>
        <time>2025-04-13T20:59:37.462Z</time>
      </trkpt>
      <trkpt lat="46.21797" lon="-0.52968">
        <ele>31.96</ele>
        <time>2025-04-13T20:59:47.386Z</time>
      </trkpt>
      <trkpt lat="46.21822" lon="-0.52962">
        <ele>31.14</ele>
        <time>2025-04-13T20:59:57.316Z</time>
      </trkpt>
      <trkpt lat="46.2185" lon="-0.5295">
        <ele>30.4</ele>
        <time>2025-04-13T21:00:07.253Z</time>
      </trkpt>
      <trkpt lat="46.21877" lon="-0.52938">
        <ele>29.78</ele>
        <time>2025-04-13T21:00:17.197Z</time>
      </trkpt>
      <trkpt lat="46.21904" lon="-0.52924">
        <ele>29.21</ele>
        <time>2025-04-13T21:00:27.148Z</time>
      </trkpt>
      <trkpt lat="46.2193" lon="-0.5291">
        <ele>28.59</ele>
        <time>2025-04-13T21:00:37.105Z</time>
      </trkpt>
      <trkpt lat="46.21957" lon="-0.52896">
        <ele>28.1</ele>
        <time>2025-04-13T21:00:47.069Z</time>
      </trkpt>
      <trkpt lat="46.21983" lon="-0.52882">
        <ele>27.71</ele>
        <time>2025-04-13T21:00:57.040Z</time>
      </trkpt>
      <trkpt lat="46.2201" lon="-0.52869">
        <ele>27.36</ele>
        <time>2025-04-13T21:01:07.017Z</time>
      </trkpt>
      <trkpt lat="46.22036" lon="-0.52855">
        <ele>27.09</ele>
        <time>2025-04-13T21:01:17.001Z</time>
      </trkpt>
      <trkpt lat="46.22049" lon="-0.52852">
        <ele>26.84</ele>
        <time>2025-04-13T21:01:26.988Z</time>
      </trkpt>
      <trkpt lat="46.22047" lon="-0.52867">
        <ele>26.62</ele>
        <time>2025-04-13T21:01:36.977Z</time>
      </trkpt>
      <trkpt lat="46.22051" lon="-0.52885">
        <ele>26.47</ele>
        <time>2025-04-13T21:01:46.969Z</time>
      </trkpt>
      <trkpt lat="46.22057" lon="-0.52904">
        <ele>26.35</ele>
        <time>2025-04-13T21:01:56.965Z</time>
      </trkpt>
      <trkpt lat="46.22057" lon="-0.52904">
        <ele>26.27</ele>
        <time>2025-04-13T21:02:06.961Z</time>
      </trkpt>
      <trkpt lat="46.22065" lon="-0.52929">
        <ele>26.22</ele>
        <time>2025-04-13T21:02:16.961Z</time>
      </trkpt>
      <trkpt lat="46.22073" lon="-0.52953">
        <ele>26.18</ele>
        <time>2025-04-13T21:02:26.966Z</time>
      </trkpt>
      <trkpt lat="46.22085" lon="-0.52984">
        <ele>26.21</ele>
        <time>2025-04-13T21:02:36.976Z</time>
      </trkpt>
      <trkpt lat="46.22096" lon="-0.53016">
        <ele>26.21</ele>
        <time>2025-04-13T21:02:46.992Z</time>
      </trkpt>
      <trkpt lat="46.22111" lon="-0.53043">
        <ele>26.14</ele>
        <time>2025-04-13T21:02:57.014Z</time>
      </trkpt>
      <trkpt lat="46.22125" lon="-0.53069">
        <ele>26.07</ele>
        <time>2025-04-13T21:03:07.041Z</time>
      </trkpt>
      <trkpt lat="46.22139" lon="-0.53095">
        <ele>26.06</ele>
        <time>2025-04-13T21:03:17.074Z</time>
      </trkpt>
      <trkpt lat="46.22154" lon="-0.53126">
        <ele>26.05</ele>
        <time>2025-04-13T21:03:27.113Z</time>
      </trkpt>
      <trkpt lat="46.22168" lon="-0.53157">
        <ele>25.96</ele>
        <time>2025-04-13T21:03:37.158Z</time>
      </trkpt>
      <trkpt lat="46.22183" lon="-0.53188">
        <ele>25.84</ele>
        <time>2025-04-13T21:03:47.209Z</time>
      </trkpt>
      <trkpt lat="46.22197" lon="-0.53219">
        <ele>25.73</ele>
        <time>2025-04-13T21:03:57.266Z</time>
      </trkpt>
      <trkpt lat="46.22216" lon="-0.53251">
        <ele>25.62</ele>
        <time>2025-04-13T21:04:07.330Z</time>
      </trkpt>
      <trkpt lat="46.22234" lon="-0.53282">
        <ele>25.56</ele>
        <time>2025-04-13T21:04:17.401Z</time>
      </trkpt>
      <trkpt lat="46.22253" lon="-0.53314">
        <ele>25.5</ele>
        <time>2025-04-13T21:04:27.478Z</time>
      </trkpt>
      <trkpt lat="46.22268" lon="-0.53346">
        <ele>25.41</ele>
        <time>2025-04-13T21:04:37.562Z</time>
      </trkpt>
      <trkpt lat="46.22277" lon="-0.5337">
        <ele>25.32</ele>
        <time>2025-04-13T21:04:47.650Z</time>
      </trkpt>
      <trkpt lat="46.22285" lon="-0.53393">
        <ele>25.27</ele>
        <time>2025-04-13T21:04:57.742Z</time>
      </trkpt>
      <trkpt lat="46.22288" lon="-0.53428">
        <ele>25.3</ele>
        <time>2025-04-13T21:05:07.840Z</time>
      </trkpt>
      <trkpt lat="46.22292" lon="-0.53462">
        <ele>25.4</ele>
        <time>2025-04-13T21:05:17.944Z</time>
      </trkpt>
      <trkpt lat="46.22292" lon="-0.53496">
        <ele>25.41</ele>
        <time>2025-04-13T21:05:28.053Z</time>
      </trkpt>
      <trkpt lat="46.22292" lon="-0.53531">
        <ele>25.43</ele>
        <time>2025-04-13T21:05:38.168Z</time>
      </trkpt>
      <trkpt lat="46.22292" lon="-0.53565">
        <ele>25.47</ele>
        <time>2025-04-13T21:05:48.289Z</time>
      </trkpt>
      <trkpt lat="46.22295" lon="-0.53596">
        <ele>25.53</ele>
        <time>2025-04-13T21:05:58.415Z</time>
      </trkpt>
      <trkpt lat="46.22298" lon="-0.53627">
        <ele>25.6</ele>
        <time>2025-04-13T21:06:08.546Z</time>
      </trkpt>
      <trkpt lat="46.22316" lon="-0.53624">
        <ele>25.63</ele>
        <time>2025-04-13T21:06:18.681Z</time>
      </trkpt>
      <trkpt lat="46.22335" lon="-0.53621">
        <ele>25.58</ele>
        <time>2025-04-13T21:06:28.821Z</time>
      </trkpt>
      <trkpt lat="46.22347" lon="-0.53618">
        <ele>25.5</ele>
        <time>2025-04-13T21:06:38.964Z</time>
      </trkpt>
      <trkpt lat="46.22375" lon="-0.53623">
        <ele>25.37</ele>
        <time>2025-04-13T21:06:49.113Z</time>
      </trkpt>
      <trkpt lat="46.22397" lon="-0.53631">
        <ele>25.19</ele>
        <time>2025-04-13T21:06:59.267Z</time>
      </trkpt>
      <trkpt lat="46.22419" lon="-0.53649">
        <ele>24.97</ele>
        <time>2025-04-13T21:07:09.427Z</time>
      </trkpt>
      <trkpt lat="46.22442" lon="-0.53666">
        <ele>24.77</ele>
        <time>2025-04-13T21:07:19.593Z</time>
      </trkpt>
      <trkpt lat="46.22431" lon="-0.53695">
        <ele>24.49</ele>
        <time>2025-04-13T21:07:29.765Z</time>
      </trkpt>
      <trkpt lat="46.2242" lon="-0.53724">
        <ele>24.37</ele>
        <time>2025-04-13T21:07:39.942Z</time>
      </trkpt>
      <trkpt lat="46.22416" lon="-0.53754">
        <ele>24.39</ele>
        <time>2025-04-13T21:07:50.124Z</time>
      </trkpt>
      <trkpt lat="46.2244" lon="-0.53758">
        <ele>24.28</ele>
        <time>2025-04-13T21:08:00.312Z</time>
      </trkpt>
      <trkpt lat="46.22445" lon="-0.53756">
        <ele>24.51</ele>
        <time>2025-04-13T21:08:10.501Z</time>
      </trkpt>
    </trkseg>
  </trk>
</gpx>